     2.11           OBSERVATION DATA    G (GPS)             RINEX VERSION / TYPE
teqc 2010Oct21 OPUS Account 20111028 01:46:46UTC            PGM / RUN BY / DATE
T 1526                                                      MARKER NAME
3054                                                        MARKER NUMBER
CSMIDDLETON NGS                                             OBSERVER / AGENCY
4624K01631 TRIMBLE NETR5 4.41                               REC # / TYPE / VERS
12481390 TRM41249.00 NONE                                   ANT # / TYPE
  -746713.3607 -5575584.9085  2995910.5173                  APPROX POSITION XYZ
        2.0000        0.0000        0.0000                  ANTENNA: DELTA H/E/N
     1     1                                                WAVELENGTH FACT L1/2
     5    L1    L2    C1    P1    P2                        # / TYPES OF OBSERV
    15                                                      LEAP SECONDS
  2011     8    21     0     0    0.0000000     GPS         TIME OF FIRST OBS
                                                            END OF HEADER
 11  8 21  0  0  0.0000000  0  7G09G10G12G17G04G05G02
 121853776.69617  94951065.98354  23188012.938                    23188025.504
 110070523.95318  85769359.41956  20945701.781                    20945711.258
 114999361.31518  89609962.99117  21883652.242                    21883661.746
 120171015.07717  93639836.55316  22867780.516                    22867790.863
 111673136.28118  87018150.58355  21250680.281                    21250690.223
 118491425.27117  92331060.30117  22548157.234                    22548168.828
 108579005.89918  84607121.20756  20661877.672                    20661884.586
 11  8 21  0  0 30.0000000  0  7G09G10G12G17G04G05G02
 121924080.131 7  95005847.74344  23201390.992                    23201403.633
 110051090.681 8  85754216.63646  20942003.305                    20942013.180
 114926051.169 8  89552838.263 7  21869701.742                    21869711.313
 120218177.952 7  93676586.829 6  22876755.609                    22876765.949
 111744354.596 8  87073645.33746  21264232.789                    21264242.578
 118393501.750 7  92254756.396 7  22529522.758                    22529533.625
 108569117.192 8  84599415.73246  20659995.781                    20660002.551
 11  8 21  0  1  0.0000000  0  7G09G10G12G17G04G05G02
 121994661.087 7  95060845.74044  23214822.758                    23214834.750
 110032264.890 8  85739547.20346  20938420.914                    20938430.582
 114853085.678 7  89495982.084 7  21855816.625                    21855826.258
 120265476.136 7  93713442.548 6  22885756.516                    22885766.836
 111815774.850 8  87129297.46246  21277823.523                    21277833.742
 118295788.912 7  92178616.639 7  22510928.344                    22510940.063
 108559548.443 8  84591959.57546  20658174.805                    20658181.980
 11  8 21  0  1 30.0000000  0  7G09G10G12G17G04G05G02
 122065516.966 7  95116057.97844  23228305.930                    23228318.535
 110014048.447 8  85725352.60346  20934954.813                    20934964.379
 114780468.557 8  89439397.360 7  21841997.852                    21842007.340
 120312911.022 7  93750404.767 6  22894783.031                    22894793.410
 111887395.988 8  87185106.13046  21291452.164                    21291462.668
 118198290.490 7  92102643.962 7  22492375.016                    22492386.410
 108550300.338 8  84584753.26546  20656415.086                    20656422.199
 11  8 21  0  2  0.0000000  0  7G09G10G12G17G04G05G02
 122136643.982 7  95171481.47944  23241841.117                    23241854.422
 109996441.904 8  85711633.24045  20931603.859                    20931613.785
 114708201.802 8  89383085.642 7  21828246.320                    21828255.664
 120360483.038 7  93787473.835 6  22903835.469                    22903845.652
 111959215.233 8  87241069.16346  21305119.203                    21305129.391
 118101009.328 7  92026840.586 7  22473862.969                    22473873.879
 108541371.203 8  84577795.51946  20654715.922                    20654723.102
 11  8 21  0  2 30.0000000  0  7G09G10G12G17G04G05G02
 122208039.094 7  95227113.90244  23255427.367                    23255440.598
 109979446.929 8  85698390.43746  20928369.898                    20928379.434
 114636287.818 8  89327048.819 7  21814561.305                    21814571.156
 120408193.085 7  93824650.462 7  22912914.672                    22912925.188
 112031230.749 8  87297185.12446  21318823.469                    21318833.902
 118003948.406 7  91951208.826 7  22455392.531                    22455404.141
 108532760.247 8  84571085.71646  20653077.391                    20653084.543
 11  8 21  0  3  0.0000000  0  8G09G10G12G17G04G05G30G02
 122279698.498 6  95282952.29344  23269064.078                    23269077.395
 109963063.820 7  85685624.41746  20925252.617                    20925261.984
 114564729.016 8  89271288.746 7  21800944.000                    21800953.406
 120456041.510 7  93861934.890 7  22922019.977                    22922030.547
 112103439.738 8  87353451.84546  21332564.367                    21332573.914
 117907110.562 7  91875750.894 7  22436964.797                    22436976.215
 128039704.49015  99771268.86052  24365151.938                    24365163.516
 108524466.145 8  84564622.80246  20651499.031                    20651506.102
 11  8 21  0  3 30.0000000  0  9G09G10G12G17G04G05G30G25G02
 122351619.158 6  95338994.24144  23282749.797                    23282763.016
 109947294.261 8  85673336.48346  20922251.430                    20922261.008
 114493528.505 8  89215807.858 7  21787395.258                    21787404.469
 120504029.478 7  93899328.076 7  22931151.336                    22931162.484
 112175840.663 8  87409868.12546  21346342.063                    21346351.355
 117810499.117 7  91800469.379 7  22418580.141                    22418591.387
 127934648.988 5  99689407.43742  24345158.875                    24345171.941
 129635657.27516 101014841.95515  24668851.148                    24668864.656
 108516488.417 8  84558406.42446  20649980.695                    20649987.977
 11  8 21  0  4  0.0000000  0  9G09G10G12G17G04G05G30G25G02
 122423797.874 6  95395237.27844  23296485.477                    23296498.660
 109932139.233 8  85661527.40146  20919367.711                    20919377.305
 114422688.523 7  89160607.902 7  21773914.484                    21773924.063
 120552157.451 7  93936830.334 7  22940309.813                    22940320.625
 112248431.159 8  87466432.12545  21360155.445                    21360165.285
 117714117.218 7  91725366.736 7  22400239.336                    22400250.477
 127829770.13815  99607683.74452  24325200.945                    24325214.074
 129532418.125 5 100934395.954 6  24649205.453                    24649219.203
 108508825.699 8  84552435.50146  20648522.625                    20648529.461
 11  8 21  0  4 30.0000000  0  9G09G10G12G17G04G05G30G25G02
 122496230.942 7  95451678.49644  23310268.727                    23310281.285
 109917599.604 8  85650197.85446  20916601.039                    20916610.777
 114352211.557 8  89105690.817 7  21760503.305                    21760512.652
 120600425.807 7  93974442.004 6  22949495.039                    22949505.859
 112321208.916 8  87523142.05245  21374004.055                    21374013.586
 117617967.403 7  91650444.935 7  22381942.789                    22381953.934
 127725070.837 5  99526100.00642  24305278.156                    24305291.605
 129429283.988 6 100854031.769 6  24629580.133                    24629593.656
 108501477.051 8  84546709.30846  20647124.352                    20647131.559
 11  8 21  0  5  0.0000000  0  9G09G10G12G17G04G05G30G25G02
 122568914.691 7  95508315.03044  23324100.266                    23324112.715
 109903675.797 8  85639348.17346  20913951.375                    20913961.336
 114282100.140 7  89051058.574 7  21747161.523                    21747170.523
 120648835.141 7  94012163.524 7  22958707.289                    22958717.980
 112394171.543 8  87579996.03245  21387888.609                    21387898.805
 117522052.171 7  91575705.925 7  22363690.516                    22363701.375
 127620553.372 5  99444657.92243  24285388.633                    24285402.063
 129326257.053 6 100773751.136 6  24609974.609                    24609989.000
 108494440.978 8  84541226.68046  20645785.219                    20645792.332
 11  8 21  0  5 30.0000000  0  9G09G10G12G17G04G05G30G25G02
 122641845.809 7  95565144.34044  23337978.789                    23337991.473
 109890369.452 8  85628979.63546  20911419.281                    20911428.699
 114212356.742 7  88996713.073 7  21733889.664                    21733898.957
 120697386.276 7  94049995.531 7  22967946.188                    22967956.551
 112467317.026 8  87636992.49646  21401807.703                    21401818.313
 117426375.090 7  91501152.490 7  22345483.445                    22345494.711
 127516220.802 6  99363359.91343  24265534.891                    24265548.039
 129223340.058 6 100693556.197 6  24590390.031                    24590404.129
 108487717.183 8  84535987.37946  20644505.648                    20644512.785
 11  8 21  0  6  0.0000000  0  9G09G10G12G17G04G05G30G25G02
 122715021.231 7  95622164.00844  23351903.633                    23351915.723
 109877681.086 8  85619092.64246  20909004.453                    20909014.129
 114142983.810 8  88942656.266 7  21720688.719                    21720697.457
 120746079.460 7  94087938.241 6  22977211.961                    22977222.598
 112540643.138 8  87694129.70945  21415761.273                    21415771.363
 117330938.965 7  91426786.815 7  22327322.586                    22327334.051
 127412075.913 6  99282208.13043  24245718.195                    24245729.316
 129120535.283 6 100613448.680 6  24570827.141                    24570840.859
 108481304.543 8  84530990.54146  20643285.469                    20643292.484
 11  8 21  0  6 30.0000000  0  9G09G10G12G17G04G05G30G25G02
 122788437.079 7  95679371.02044  23365874.406                    23365886.523
 109865611.213 8  85609687.58246  20906707.563                    20906717.293
 114073983.856 7  88888890.079 7  21707558.344                    21707567.645
 120794915.478 7  94125992.258 6  22986505.305                    22986515.547
 112614147.688 8  87751405.97145  21429748.773                    21429758.969
 117235746.606 7  91352611.072 7  22309208.055                    22309219.301
 127308121.229 6  99201204.60544  24225935.656                    24225947.754
 129017845.161 7 100533430.503 6  24551285.594                    24551299.773
 108475201.602 8  84526235.02846  20642124.188                    20642131.180
 11  8 21  0  7  0.0000000  0  9G09G10G12G17G04G05G30G25G02
 122862090.044 7  95736762.80844  23379889.969                    23379902.883
 109854160.792 8  85600765.20846  20904528.695                    20904538.559
 114005359.109 7  88835416.280 7  21694499.375                    21694508.609
 120843894.979 7  94164158.051 6  22995825.688                    22995836.340
 112687828.361 8  87808819.47345  21443769.625                    21443780.102
 117140800.821 7  91278627.485 7  22291140.227                    22291151.633
 127204359.448 6  99120351.36044  24206190.711                    24206202.355
 128915272.137 7 100453503.586 7  24531766.891                    24531780.191
 108469407.364 8  84521720.04946  20641021.484                    20641028.500
 11  8 21  0  7 30.0000000  0  9G09G10G12G17G04G05G30G25G02
 122935976.897 7  95794336.82244  23393950.758                    23393963.898
 109843330.735 8  85592326.22746  20902467.656                    20902477.012
 113937112.090 7  88782236.793 7  21681512.688                    21681521.977
 120893018.685 6  94202436.231 6  23005174.234                    23005183.809
 112761683.232 8  87866368.71445  21457824.219                    21457833.957
 117046104.751 7  91204838.488 7  22273120.336                    22273130.988
 127100793.482 6  99039650.67443  24186482.328                    24186494.719
 128812818.723 7 100373669.848 7  24512270.289                    24512283.961
 108463920.908 8  84517444.89646  20639977.367                    20639984.434
 11  8 21  0  8  0.0000000  0  9G09G10G12G17G04G05G30G25G02
 123010094.275 7  95852090.49744  23408054.773                    23408068.066
 109833121.810 8  85584371.24146  20900525.117                    20900534.746
 113869245.579 7  88729353.811 7  21668598.055                    21668606.977
 120942287.129 7  94240827.206 6  23014550.070                    23014559.703
 112835710.018 8  87924051.91145  21471911.172                    21471920.031
 116951661.398 7  91131246.395 7  22255148.219                    22255159.336
 126997426.113 6  98959104.78144  24166812.188                    24166824.191
 128710487.441 6 100293931.273 7  24492797.375                    24492811.059
 108458741.139 8  84513408.73346  20638991.813                    20638998.527
 11  8 21  0  8 30.0000000  0  9G09G10G12G17G04G05G30G25G02
 123084438.687 7  95910021.06344  23422201.711                    23422215.348
 109823534.541 8  85576900.67346  20898700.844                    20898710.273
 113801761.955 7  88676769.180 7  21655755.898                    21655765.152
 120991700.861 7  94279331.371 6  23023953.039                    23023962.816
 112909906.553 8  87981867.37045  21486029.813                    21486039.531
 116857473.547 7  91057853.398 7  22237224.555                    22237235.605
 126894260.125 6  98878715.77143  24147180.852                    24147192.250
 128608280.778 7 100214289.815 7  24473347.992                    24473361.781
 108453866.749 8  84509610.51646  20638064.008                    20638071.137
 11  8 21  0  9  0.0000000  0  9G09G10G12G17G04G05G30G25G02
 123159007.052 7  95968126.10044  23436391.766                    23436404.609
 109814570.260 8  85569915.54446  20896994.805                    20897003.984
 113734663.855 8  88624484.953 7  21642987.867                    21642996.875
 121041260.891 7  94317949.548 6  23033383.781                    23033394.242
 112984270.734 8  88039813.47445  21500180.914                    21500190.672
 116763544.459 7  90984662.039 7  22219350.164                    22219361.086
 126791298.503 6  98798486.02143  24127587.055                    24127599.398
 128506201.506 6 100134747.604 6  24453922.383                    24453936.148
 108449297.357 8  84506049.96746  20637194.609                    20637201.641
 11  8 21  0  9 30.0000000  0  9G09G10G12G17G04G05G30G25G02
 123233795.607 7  96026402.72544  23450624.242                    23450637.750
 109806229.527 8  85563416.29646  20895407.375                    20895417.320
 113667954.000 7  88572503.259 7  21630293.398                    21630302.684
 121090967.570 7  94356682.001 6  23042842.930                    23042853.199
 113058800.662 8  88097888.72545  21514363.203                    21514373.625
 116669877.251 7  90911674.741 7  22201525.922                    22201536.910
 126688544.006 6  98718417.62043  24108033.438                    24108045.688
 128404251.985 6 100055306.483 6  24434521.930                    24434535.941
 108445031.561 8  84502725.98146  20636383.000                    20636389.547
 11  8 21  0 10  0.0000000  0  9G09G10G12G17G04G05G30G25G02
 123308801.330 7  96084848.59944  23464896.695                    23464910.387
 109798513.094 8  85557403.51646  20893938.984                    20893949.059
 113601635.003 7  88520826.132 7  21617673.078                    21617682.574
 121140821.808 7  94395529.401 6  23052329.844                    23052339.813
 113133494.234 8  88156091.48945  21528577.266                    21528587.887
 116576474.655 7  90838893.632 7  22183751.867                    22183763.191
 126585999.416 5  98638512.77742  24088519.680                    24088531.980
 128302434.906 6  99975968.587 6  24415146.219                    24415160.563
 108441068.501 8  84499637.89346  20635628.781                    20635635.445
 11  8 21  0 10 30.0000000  0  9G09G10G12G17G04G05G30G25G02
 123384020.561 7  96143460.84744  23479210.922                    23479224.262
 109791421.310 7  85551877.47446  20892589.656                    20892599.230
 113535708.429 7  88469454.785 7  21605127.734                    21605136.980
 121190823.854 7  94434491.994 6  23061845.203                    23061855.141
 113208349.404 8  88214420.17645  21542821.945                    21542831.938
 116483339.734 7  90766321.087 7  22166028.648                    22166039.770
 126483667.579 6  98558773.69542  24069046.555                    24069058.391
 128200752.662 6  99896735.724 6  24395797.258                    24395811.094
 108437406.956 8  84496784.75946  20634931.875                    20634938.957
 11  8 21  0 11  0.0000000  0  9G09G10G12G17G04G05G30G25G02
 123459449.778 7  96202236.70544  23493564.734                    23493578.035
 109784954.638 8  85546838.53446  20891359.078                    20891368.422
 113470177.182 8  88418391.486 7  21592657.750                    21592666.789
 121240974.493 7  94473570.370 6  23071388.023                    23071398.402
 113283363.716 8  88272872.86645  21557096.555                    21557106.320
 116390475.224 7  90693959.257 7  22148356.813                    22148367.914
 126381551.151 6  98479202.49842  24049614.180                    24049625.664
 128099207.809 6  99817609.900 6  24376473.969                    24376487.457
 108434045.671 8  84494165.58546  20634292.172                    20634298.941
 11  8 21  0 11 30.0000000  0  9G09G10G12G17G04G05G30G25G02
 123535085.604 7  96261173.57944  23507958.258                    23507970.723
 109779113.742 8  85542287.20646  20890247.648                    20890257.422
 113405043.485 8  88367637.970 7  21580263.242                    21580272.398
 121291274.214 7  94512764.919 6  23080960.391                    23080970.051
 113358535.359 8  88331448.15145  21571401.156                    21571411.102
 116297884.023 7  90621810.384 7  22130737.469                    22130748.523
 126279653.004 6  98399801.35142  24030223.820                    24030235.160
 127997802.707 6  99738592.934 5  24357176.414                    24357190.031
 108430983.521 7  84491779.50446  20633709.602                    20633716.438
 11  8 21  0 12  0.0000000  0  9G09G10G12G17G04G05G30G25G02
 123610924.699 7  96320268.83844  23522389.406                    23522402.219
 109773899.130 8  85538223.89546  20889254.984                    20889264.566
 113340309.964 8  88317196.273 7  21567944.758                    21567953.809
 121341723.678 7  94552076.169 6  23090560.258                    23090569.914
 113433861.797 8  88390144.05745  21585735.352                    21585745.234
 116205569.133 7  90549876.813 7  22113170.453                    22113181.484
 126177975.891 6  98320572.44943  24010876.438                    24010886.723
 127896540.063 6  99659686.990 6  24337907.672                    24337921.078
 108428219.650 8  84489625.86346  20633183.633                    20633190.793
 11  8 21  0 12 30.0000000  0  9G09G10G12G17G04G05G30G25G02
 123686963.480 7  96379519.67144  23536860.055                    23536872.613
 109769310.834 8  85534648.61746  20888381.594                    20888391.387
 113275978.711 7  88267068.034 7  21555702.813                    21555712.063
 121392323.378 7  94591504.471 6  23100189.148                    23100199.434
 113509341.058 8  88448959.05145  21600098.375                    21600108.336
 116113533.064 7  90478160.512 7  22095656.633                    22095667.867
 126076522.438 6  98241517.85943  23991569.680                    23991580.957
 127795422.198 6  99580893.844 6  24318665.531                    24318678.820
 108425752.400 8  84487703.33746  20632714.086                    20632721.289
 11  8 21  0 13  0.0000000  0  9G09G10G12G17G04G05G30G25G02
 123763198.697 7  96438923.56744  23551366.625                    23551380.723
 109765349.853 8  85531562.15746  20887628.180                    20887638.047
 113212052.776 7  88217255.633 7  21543538.156                    21543547.516
 121443074.273 7  94631050.566 7  23109846.398                    23109857.492
 113584971.394 8  88507891.74845  21614490.297                    21614500.422
 116021778.991 7  90406663.942 7  22078196.398                    22078207.449
 125975295.714 6  98162639.89343  23972306.773                    23972318.234
 127694451.991 6  99502215.765 6  24299451.711                    24299465.293
 108423581.353 8  84486011.62246  20632300.781                    20632308.324
 11  8 21  0 13 30.0000000  0  9G09G10G12G17G04G05G30G25G02
 123839627.124 6  96498478.06244  23565910.031                    23565924.578
 109762016.782 7  85528964.99146  20886993.945                    20887003.723
 113148534.431 8  88167760.833 7  21531451.156                    21531460.527
 121493976.727 7  94670714.792 6  23119532.781                    23119544.410
 113660750.913 8  88566940.71145  21628910.750                    21628920.816
 115930310.021 7  90335389.529 7  22060790.102                    22060800.879
 125874298.781 6  98083941.02643  23953087.898                    23953099.168
 127593632.090 7  99423654.831 6  24280266.227                    24280279.711
 108421705.364 8  84484549.83146  20631943.820                    20631951.156
 11  8 21  0 14  0.0000000  0  9G09G10G12G17G04G05G30G25G02
 123916245.200 6  96558180.30644  23580490.266                    23580504.145
 109759312.062 7  85526857.43846  20886479.141                    20886488.813
 113085425.869 8  88118585.353 7  21519441.820                    21519450.973
 121545031.216 7  94710497.470 7  23129248.469                    23129259.125
 113736677.295 8  88626104.11545  21643359.023                    21643369.453
 115839129.011 7  90264339.505 7  22043438.961                    22043449.430
 125773534.105 6  98005423.14644  23933913.117                    23933924.301
 127492964.872 7  99345212.880 6  24261109.945                    24261123.395
 108420123.045 8  84483316.86946  20631642.859                    20631650.164
 11  8 21  0 14 30.0000000  0  9G09G10G12G17G04G05G30G25G02
 123993049.452 7  96618027.63344  23595105.914                    23595119.383
 109757236.076 8  85525239.81446  20886084.219                    20886093.875
 113022729.480 7  88069731.044 7  21507510.953                    21507520.266
 121596238.421 7  94750399.155 6  23138992.758                    23139003.398
 113812748.481 8  88685380.33745  21657835.367                    21657844.953
 115748238.897 7  90193516.148 7  22026142.859                    22026153.668
 125673004.756 6  97927088.64644  23914783.055                    23914793.961
 127392452.885 7  99266891.905 6  24241983.445                    24241997.191
 108418833.243 8  84482311.84346  20631397.094                    20631404.438
 11  8 21  0 15  0.0000000  0  9G09G10G12G17G04G05G30G25G02
 124070036.522 7  96678017.38344  23609756.148                    23609770.289
 109755788.676 8  85524111.99046  20885808.922                    20885818.168
 112960447.579 7  88021199.725 7  21495659.227                    21495668.566
 121647599.159 7  94790420.460 7  23148766.328                    23148777.371
 113888962.363 8  88744767.77445  21672338.047                    21672348.789
 115657642.439 7  90122921.614 7  22008902.945                    22008913.637
 125572713.314 6  97848939.55043  23895697.836                    23895709.152
 127292098.750 6  99188693.952 7  24222886.141                    24222899.793
 108417834.845 8  84481533.88946  20631207.266                    20631214.629
 11  8 21  0 15 30.0000000  0  9G09G10G12G17G04G05G30G25G02
 124147203.091 6  96738147.02443  23624440.727                    23624454.520
 109754970.447 8  85523474.42446  20885653.133                    20885662.055
 112898582.926 7  87972993.529 7  21483887.086                    21483896.281
 121699114.030 7  94830561.910 7  23158569.234                    23158580.293
 113965317.062 8  88804264.95045  21686868.484                    21686878.305
 115567342.433 7  90052558.088 7  21991719.359                    21991730.316
 125472662.722 6  97770978.15143  23876658.305                    23876669.820
 127191905.114 6  99110621.079 7  24203820.000                    24203833.523
 108417126.700 8  84480982.11346  20631072.711                    20631079.973
 11  8 21  0 16  0.0000000  0  9G09G10G12G17G04G05G30G25G02
 124224545.820 6  96798413.92644  23639158.664                    23639172.250
 109754781.746 8  85523327.42146  20885617.227                    20885626.270
 112837137.700 7  87925114.155 7  21472194.102                    21472203.203
 121750783.741 7  94870823.974 7  23168401.711                    23168413.066
 114041810.778 8  88863870.45245  21701424.531                    21701434.887
 115477342.086 7  89982428.062 7  21974593.023                    21974603.121
 125372856.054 6  97693206.79443  23857665.836                    23857677.602
 127091874.736 6  99032675.409 7  24184784.961                    24184798.160
 108416708.268 8  84480656.08446  20630993.008                    20631000.035
 11  8 21  0 16 30.0000000  0  9G09G10G12G17G04G05G30G25G02
 124302061.314 6  96858815.46444  23653909.477                    23653923.270
 109755223.329 8  85523671.53146  20885701.313                    20885709.988
 112776114.351 8  87877563.523 7  21460581.594                    21460590.406
 121802608.726 7  94911207.041 7  23178262.930                    23178275.273
 114118441.519 8  88923582.74345  21716006.633                    21716017.262
 115387644.512 7  89912533.965 7  21957523.805                    21957534.367
 125273296.042 6  97615627.65843  23838719.563                    23838732.035
 126992010.224 6  98954858.989 6  24165780.953                    24165794.859
 108416578.376 8  84480554.89246  20630968.219                    20630975.203
 11  8 21  0 17  0.0000000  0  9G09G10G12G17G04G05G30G25G02
 124379745.982 6  96919348.82244  23668692.031                    23668705.816
 109756294.919 7  85524506.56646  20885904.891                    20885914.465
 112715514.907 7  87830343.208 7  21449049.781                    21449058.988
 121854589.539 7  94951711.546 7  23188155.594                    23188166.539
 114195206.846 8  88983399.90545  21730614.688                    21730624.855
 115298252.227 7  89842877.741 7  21940513.367                    21940523.527
 125173985.394 6  97538242.82243  23819821.625                    23819833.113
 126892313.880 6  98877173.625 6  24146808.930                    24146823.559
 108416735.305 8  84480677.19546  20630998.156                    20631005.277
 11  8 21  0 17 30.0000000  0  9G09G10G12G17G04G05G30G25G02
 124457596.779 7  96980011.63944  23683506.953                    23683521.020
 109757997.108 7  85525832.97546  20886229.055                    20886238.098
 112655342.129 8  87783455.357 7  21437599.625                    21437608.563
 121906726.866 7  94992337.980 7  23198076.023                    23198087.898
 114272105.239 8  89043320.74445  21745247.852                    21745258.336
 115209168.337 7  89773461.824 7  21923561.031                    21923571.559
 125074927.160 6  97461054.64443  23800972.008                    23800983.277
 126792788.657 6  98799621.595 6  24127870.344                    24127884.387
 108417178.539 8  84481022.60646  20631082.695                    20631089.762
 11  8 21  0 18  0.0000000  0  9G09G10G12G17G04G05G30G25G02
 124535609.958 7  97040800.99744  23698352.391                    23698367.020
 109760329.734 7  85527650.62646  20886672.820                    20886682.570
 112595598.140 8  87736901.610 7  21426230.680                    21426239.438
 121959021.221 7  95033086.792 6  23208027.656                    23208039.145
 114349134.494 8  89103343.55145  21759906.422                    21759916.480
 115120395.331 7  89704288.161 7  21906667.750                    21906678.402
 124976124.041 6  97384065.29843  23782170.141                    23782181.199
 126693436.962 6  98722204.795 6  24108964.125                    24108977.934
 108417906.587 8  84481589.95146  20631220.844                    20631227.820
 11  8 21  0 18 30.0000000  0  9G09G10G12G17G04G05G30G25G02
 124613782.266 7  97101714.31243  23713229.008                    23713241.703
 109763293.106 8  85529959.76146  20887236.703                    20887245.906
 112536285.645 8  87690684.106 7  21414944.000                    21414952.941
 122011473.020 7  95073958.274 6  23218009.688                    23218020.516
 114426292.669 8  89163466.81845  21774588.961                    21774599.059
 115031936.449 7  89635359.260 7  21889834.555                    21889845.105
 124877578.892 6  97307276.96343  23763417.430                    23763428.668
 126594261.426 6  98644925.246 6  24090091.023                    24090105.293
 108418918.168 7  84482378.22546  20631413.125                    20631420.367
 11  8 21  0 19  0.0000000  0  9G09G10G12G17G04G05G30G25G02
 124692110.418 7  97162749.09043  23728133.664                    23728147.277
 109766887.167 8  85532760.35046  20887920.266                    20887929.719
 112477406.282 8  87644804.099 7  21403739.656                    21403748.277
 122064082.871 7  95114952.933 6  23228021.352                    23228031.176
 114503577.654 8  89223688.90445  21789295.898                    21789305.145
 114943794.233 7  89566677.104 7  21873061.633                    21873071.832
 124779294.376 7  97230691.69443  23744713.961                    23744725.375
 126495264.478 6  98567784.865 6  24071252.875                    24071266.941
 108420212.192 8  84483386.58246  20631659.273                    20631666.422
 11  8 21  0 19 30.0000000  0  9G09G10G12G17G04G05G30G25G02
 124770590.794 7  97223902.47043  23743068.344                    23743081.559
 109771112.019 8  85536052.45446  20888724.438                    20888734.168
 112418962.580 8  87599263.571 7  21392618.148                    21392627.078
 122116851.329 7  95156071.160 6  23238062.891                    23238073.234
 114580987.415 8  89284008.19845  21804025.789                    21804035.852
 114855971.457 7  89498243.864 7  21856349.180                    21856359.523
 124681273.409 7  97154311.79443  23726062.086                    23726072.531
 126396448.814 7  98490785.716 6  24052449.148                    24052462.461
 108421787.262 8  84484613.94946  20631959.461                    20631966.383
 11  8 21  0 20  0.0000000  0  9G09G10G12G17G04G05G30G25G02
 124849220.357 7  97285172.12144  23758031.797                    23758045.168
 109775967.503 7  85539835.96146  20889648.633                    20889658.266
 112360956.733 7  87554064.233 7  21381579.992                    21381589.074
 122169779.134 7  95197313.582 6  23248134.727                    23248144.484
 114658520.302 8  89344423.44045  21818780.164                    21818790.188
 114768471.043 7  89430061.827 7  21839698.383                    21839709.301
 124583518.664 7  97078139.32643  23707460.000                    23707470.730
 126297817.057 7  98413929.862 6  24033680.281                    24033693.184
 108423642.621 7  84486059.70046  20632312.039                    20632319.402
 11  8 21  0 20 30.0000000  0  9G09G10G12G17G04G05G30G25G02
 124927995.302 7  97346555.10044  23773022.406                    23773035.660
 109781453.717 8  85544110.93746  20890692.531                    20890702.160
 112303390.881 8  87509207.750 7  21370625.711                    21370634.355
 122222866.786 7  95238680.535 6  23258236.859                    23258246.148
 114736173.800 8  89404932.67745  21833556.977                    21833567.199
 114681295.778 7  89362133.144 7  21823109.570                    21823120.375
 124486032.956 7  97002176.49443  23688908.711                    23688919.699
 126199371.640 7  98337219.203 6  24014946.391                    24014959.875
 108425776.597 8  84487722.56846  20632718.484                    20632725.547
 11  8 21  0 21  0.0000000  0  9G09G10G12G17G04G05G30G25G02
 125006912.504 7  97408048.92444  23788039.148                    23788053.383
 109787571.166 7  85548877.79846  20891856.453                    20891866.172
 112246267.700 8  87464696.195 7  21359755.000                    21359763.934
 122276114.707 7  95280172.410 6  23268369.750                    23268379.191
 114813946.728 8  89465534.94845  21848357.266                    21848367.199
 114594448.665 7  89294460.166 7  21806582.930                    21806593.457
 124388819.403 7  96926425.72543  23670409.695                    23670420.598
 126101115.503 7  98260656.040 6  23996248.828                    23996261.953
 108428188.599 8  84489602.07446  20633177.047                    20633184.328
 11  8 21  0 21 30.0000000  0  9G09G10G12G17G04G05G30G25G02
 125085968.640 7  97469651.00043  23803083.141                    23803097.563
 109794319.583 7  85554136.31546  20893140.727                    20893150.004
 112189589.467 7  87420531.376 7  21348969.906                    21348978.367
 122329523.562 7  95321789.666 6  23278532.664                    23278542.273
 114891836.813 8  89526228.52345  21863178.906                    21863189.188
 114507932.484 7  89227045.054 7  21790119.680                    21790129.633
 124291880.890 7  96850889.29343  23651962.539                    23651973.676
 126003051.286 7  98184242.427 6  23977587.617                    23977601.480
 108430877.234 8  84491697.13246  20633688.953                    20633695.680
 11  8 21  0 22  0.0000000  0  9G09G10G12G17G04G05G30G25G02
 125165160.494 7  97531358.81244  23818152.883                    23818167.152
 109801698.880 8  85559886.41646  20894545.109                    20894554.465
 112133358.459 8  87376715.032 7  21338269.039                    21338278.270
 122383093.820 7  95363532.673 6  23288726.258                    23288736.844
 114969842.245 8  89587011.96445  21878022.867                    21878033.102
 114421750.443 7  89159890.318 7  21773719.906                    21773730.000
 124195220.203 7  96775569.32344  23633568.813                    23633579.809
 125905181.692 7  98107980.472 6  23958963.758                    23958976.977
 108433841.520 8  84494006.98546  20634252.945                    20634259.828
 11  8 21  0 22 30.0000000  0  9G09G10G12G17G04G05G30G25G02
 125244484.282 6  97593169.40044  23833247.430                    23833261.965
 109809709.017 8  85566128.08146  20896069.023                    20896078.426
 112077576.787 8  87333248.823 7  21327654.531                    21327663.133
 122436826.624 7  95405402.335 6  23298951.758                    23298962.313
 115047961.134 7  89647883.82045  21892888.008                    21892898.395
 114335904.777 7  89092997.682 7  21757383.656                    21757394.000
 124098840.222 7  96700468.09743  23615227.672                    23615239.488
 125807509.215 7  98031872.113 6  23940377.344                    23940391.184
 108437080.278 8  84496530.71146  20634869.242                    20634876.445
 11  8 21  0 23  0.0000000  0  9G09G10G12G17G04G05G30G25G02
 125323936.683 7  97655080.23144  23848367.000                    23848381.668
 109818349.612 8  85572861.02146  20897713.398                    20897723.070
 112022246.424 8  87290134.297 7  21317125.219                    21317134.105
 122490721.838 7  95447398.582 6  23309207.602                    23309218.207
 115126191.623 7  89708842.63745  21907775.133                    21907784.957
 114250398.665 7  89026369.634 7  21741112.117                    21741122.156
 124002743.580 6  96625587.63944  23596941.461                    23596953.352
 125710036.458 6  97955919.340 6  23921828.359                    23921842.613
 108440591.910 8  84499267.05546  20635537.633                    20635544.285
 11  8 21  0 23 30.0000000  0  9G09G10G12G17G04G05G30G25G02
 125403514.827 7  97717089.02444  23863510.523                    23863525.152
 109827620.823 8  85580085.35246  20899477.820                    20899487.055
 111967369.913 8  87247373.417 7  21306682.727                    21306691.703
 122544780.455 7  95489522.136 6  23319494.883                    23319505.773
 115204531.775 7  89769886.89145  21922682.461                    21922692.289
 114165234.539 7  88960008.078 7  21724906.125                    21724916.375
 123906933.358 6  96550930.38643  23578709.828                    23578721.141
 125612766.287 6  97880124.455 7  23903318.992                    23903332.699
 108444375.868 8  84502215.60246  20636257.539                    20636264.848
 11  8 21  0 24  0.0000000  0  9G09G10G12G17G04G05G30G25G02
 125483215.011 6  97779192.94644  23878677.477                    23878692.180
 109837522.237 8  85587800.74846  20901362.203                    20901371.789
 111912949.450 8  87204967.903 7  21296326.555                    21296335.391
 122599002.777 7  95531773.253 6  23329812.469                    23329824.117
 115282979.734 7  89831015.14945  21937611.000                    21937620.352
 114080415.216 8  88893915.196 7  21708765.469                    21708775.898
 123811412.284 7  96476498.43143  23560532.227                    23560544.215
 125515701.170 7  97804489.348 7  23884847.906                    23884861.633
 108448430.420 8  84505375.00346  20637029.102                    20637035.789
 11  8 21  0 24 30.0000000  0  9G09G10G12G17G04G05G30G25G02
 125563033.820 6  97841389.30444  23893866.609                    23893881.512
 109848053.726 8  85596007.11346  20903365.898                    20903375.422
 111858987.196 8  87162919.435 7  21286057.852                    21286067.098
 122653389.482 7  95574152.472 6  23340162.758                    23340173.414
 115361533.529 8  89892225.87745  21952559.313                    21952568.820
 113995943.650 7  88828093.298 7  21692690.836                    21692701.203
 123716183.079 7  96402293.92043  23542410.703                    23542422.215
 125418843.662 7  97729016.020 7  23866415.945                    23866430.336
 108452754.572 8  84508744.46646  20637852.078                    20637859.293
 11  8 21  0 25  0.0000000  0  9G09G10G12G17G04G05G30G25G02
 125642968.157 6  97903675.64244  23909077.414                    23909092.336
 109859214.924 8  85604704.16246  20905490.180                    20905499.551
 111805485.191 8  87121229.613 7  21275876.836                    21275885.707
 122707940.738 7  95616659.894 6  23350543.719                    23350554.250
 115440191.432 8  89953517.72945  21967527.531                    21967537.457
 113911822.398 7  88762544.370 7  21676683.031                    21676693.309
 123621248.765 7  96328319.18544  23524345.422                    23524356.113
 125322196.643 7  97653706.704 7  23848025.102                    23848038.867
 108457347.148 8  84512323.09946  20638725.844                    20638732.691
 11  8 21  0 25 30.0000000  0  9G09G10G12G17G04G05G30G25G02
 125723014.207 6  97966049.03443  23924309.273                    23924324.828
 109871005.681 8  85613891.77746  20907733.836                    20907743.535
 111752445.390 8  87079899.949 7  21265783.633                    21265792.672
 122762657.438 7  95659296.263 6  23360955.695                    23360966.211
 115518951.552 7  90014889.22845  21982514.969                    21982524.871
 113828054.211 7  88697270.544 7  21660742.695                    21660752.559
 123526612.026 7  96254576.34744  23506336.586                    23506347.293
 125225762.644 7  97578563.401 7  23829674.188                    23829688.098
 108462206.969 8  84516109.97446  20639650.898                    20639657.555
 11  8 21  0 26  0.0000000  0  9G09G10G12G17G04G05G30G25G02
 125803168.909 6  98028507.10143  23939562.828                    23939577.570
 109883425.870 8  85623569.85646  20910097.320                    20910107.043
 111699870.213 8  87038932.315 7  21255778.688                    21255787.641
 122817539.760 7  95702061.678 7  23371399.727                    23371410.590
 115597812.081 8  90076338.97845  21997521.461                    21997531.656
 113744642.183 7  88632274.249 7  21644869.688                    21644879.621
 123432275.879 7  96181067.73844  23488384.930                    23488396.043
 125129544.488 7  97503588.284 7  23811364.859                    23811378.316
 108467332.910 8  84520104.19846  20640626.094                    20640633.410
 11  8 21  0 26 30.0000000  0  9G09G10G12G17G04G05G30G25G02
 125883428.945 6  98091047.24543  23954835.203                    23954850.605
 109896474.818 8  85633737.88246  20912580.414                    20912590.012
 111647761.742 8  86998328.358 7  21245863.172                    21245871.926
 122872588.397 7  95744956.694 6  23381874.680                    23381885.320
 115676771.108 7  90137865.47645  22012547.023                    22012557.602
 113661588.609 8  88567557.270 7  21629064.867                    21629074.871
 123338242.932 7  96107795.39543  23470491.375                    23470502.543
 125033544.605 7  97428783.241 7  23793096.859                    23793109.867
 108472723.522 7  84524304.66646  20641651.883                    20641659.313
 11  8 21  0 27  0.0000000  0  9G09G10G12G17G04G05G30G25G02
 125963791.007 6  98153666.89943  23970128.625                    23970142.984
 109910152.453 8  85644395.80046  20915182.898                    20915192.500
 111596122.111 7  86958089.727 7  21236036.250                    21236045.426
 122927803.831 7  95787981.691 6  23392381.859                    23392392.547
 115755826.858 8  90199467.34545  22027590.617                    22027601.164
 113578896.393 8  88503121.866 7  21613328.648                    21613339.527
 123244515.992 7  96034761.50844  23452654.672                    23452666.363
 124937765.658 7  97354150.390 7  23774869.742                    23774883.664
 108478377.705 8  84528710.51146  20642727.875                    20642734.488
 11  8 21  0 27 30.0000000  0  9G09G10G12G17G04G05G30G25G02
 126044251.837 6  98216363.51944  23985439.813                    23985453.895
 109924458.205 8  85655543.16546  20917904.883                    20917914.633
 111544953.689 7  86918218.273 7  21226299.398                    21226307.961
 122983186.717 7  95831137.174 7  23402921.164                    23402932.043
 115834977.597 7  90261143.21545  22042652.555                    22042662.656
 113496568.327 7  88438970.209 7  21597662.531                    21597672.430
 123151098.123 7  95961968.43844  23434878.523                    23434889.172
 124842210.491 7  97279691.893 6  23756686.711                    23756700.059
 108484294.488 8  84533320.97646  20643853.570                    20643861.156
 11  8 21  0 28  0.0000000  0  9G09G10G12G17G04G05G30G25G02
 126124807.801 7  98279134.25743  24000769.563                    24000783.508
 109939391.916 8  85667179.86146  20920746.797                    20920756.582
 111494258.069 7  86878715.220 7  21216652.102                    21216661.434
 123038737.472 7  95874423.443 7  23413491.594                    23413503.383
 115914221.439 7  90322891.63645  22057731.875                    22057741.938
 113414607.181 7  88375104.460 7  21582065.625                    21582075.484
 123057992.068 7  95889418.35443  23417161.055                    23417171.410
 124746881.770 7  97205409.861 6  23738546.375                    23738559.441
 108490472.571 8  84538135.05746  20645029.570                    20645036.402
 11  8 21  0 28 30.0000000  0  9G09G10G12G17G04G05G30G25G02
 126205456.036 6  98341976.89943  24016115.477                    24016130.574
 109954953.275 8  85679305.61846  20923708.359                    20923717.727
 111444037.568 8  86839582.390 7  21207095.234                    21207104.711
 123094456.489 7  95917840.817 6  23424095.156                    23424106.398
 115993556.773 7  90384711.34245  22072829.227                    22072839.348
 113333015.727 8  88311526.795 7  21566539.125                    21566549.535
 122965200.690 7  95817113.47744  23399503.344                    23399514.234
 124651782.121 7  97131306.343 6  23720449.156                    23720462.191
 108496910.751 8  84543151.82046  20646254.883                    20646261.293
 11  8 21  0 29  0.0000000  0  9G09G10G12G17G04G05G30G25G02
 126286192.950 6  98404888.67543  24031479.422                    24031494.465
 109971141.251 8  85691919.64246  20926788.523                    20926798.160
 111394294.123 8  86800821.292 7  21197629.461                    21197638.711
 123150344.286 7  95961389.695 6  23434729.867                    23434740.781
 116072981.723 7  90446600.88545  22087943.414                    22087953.074
 113251796.310 8  88248239.030 7  21551083.656                    21551093.805
 122872726.606 7  95745055.84144  23381905.820                    23381916.160
 124556914.127 7  97057383.327 6  23702396.711                    23702409.777
 108503607.633 8  84548370.16746  20647528.953                    20647535.879
 11  8 21  0 29 30.0000000  0  9G09G10G12G17G04G05G30G25G02
 126367015.291 7  98467866.99343  24046859.602                    24046874.656
 109987955.475 8  85705021.64946  20929988.195                    20929997.906
 111345029.955 8  86762433.642 7  21188255.227                    21188263.969
 123206401.623 7  96005070.709 6  23445397.664                    23445408.137
 116152494.403 7  90508558.80745  22103074.031                    22103084.352
 113170951.665 7  88185243.290 7  21535699.414                    21535709.488
 122780572.788 7  95673247.78244  23364369.414                    23364380.348
 124462280.471 7  96983642.938 6  23684387.758                    23684401.129
 108510562.203 8  84553789.31646  20648852.258                    20648859.223
 11  8 21  0 30  0.0000000  0  9G09G10G12G17G04G05G30G25G02
 126447919.915 6  98530909.42543  24062255.180                    24062270.297
 110005395.493 8  85718611.27846  20933306.898                    20933316.113
 111296247.034 8  86724420.992 7  21178971.852                    21178980.684
 123262628.648 7  96048883.964 6  23456096.969                    23456108.000
 116232093.140 7  90570583.79345  22118221.281                    22118231.316
 113090484.586 8  88122541.757 7  21520387.000                    21520397.125
 122688741.983 6  95601691.42044  23346894.703                    23346905.250
 124367883.898 7  96910087.265 6  23666424.898                    23666437.730
 108517773.093 8  84559408.20346  20650224.641                    20650231.645
 11  8 21  0 30 30.0000000  0  9G09G10G12G17G04G05G30G25G02
 126528903.401 7  98594013.33443  24077666.430                    24077680.582
 110023461.073 8  85732688.38146  20936744.672                    20936754.508
 111247947.437 8  86686784.951 7  21169780.422                    21169789.742
 123319026.340 7  96092830.169 6  23466829.156                    23466840.297
 116311776.245 7  90632674.52045  22133384.766                    22133394.723
 113010397.758 7  88060136.529 7  21505146.492                    21505156.918
 122597237.121 6  95530389.00944  23329482.023                    23329492.523
 124273727.118 7  96836718.446 6  23648507.352                    23648520.141
 108525239.366 8  84565226.08746  20651645.180                    20651652.602
 11  8 21  0 31  0.0000000  0  9G09G10G12G17G04G05G30G25G02
 126609962.247 7  98657175.90843  24093091.969                    24093104.930
 110042151.321 8  85747252.23946  20940301.211                    20940310.832
 111200133.040 7  86649526.983 7  21160681.742                    21160690.730
 123375594.748 7  96136909.390 6  23477593.781                    23477604.754
 116391541.954 7  90694829.59645  22148563.602                    22148574.105
 112930693.663 7  87998029.521 7  21489979.828                    21489989.758
 122506060.827 6  95459342.63944  23312130.813                    23312141.840
 124179812.643 7  96763538.448 6  23630635.992                    23630648.660
 108532959.630 8  84571241.89546  20653114.602                    20653121.531
 11  8 21  0 31 30.0000000  0  9G09G10G12G17G04G05G30G25G02
 126691093.649 7  98720395.02443  24108530.570                    24108544.484
 110061466.097 8  85762302.75546  20943976.688                    20943986.762
 111152806.111 7  86612648.854 7  21151675.539                    21151684.836
 123432334.470 6  96181122.123 6  23488390.953                    23488401.926
 116471388.732 7  90757047.82545  22163757.961                    22163768.410
 112851375.508 7  87936223.243 7  21474885.805                    21474895.895
 122415216.197 7  95388554.70244  23294843.711                    23294854.590
 124086143.438 7  96690549.549 7  23612811.414                    23612824.215
 108540932.901 8  84577454.84846  20654631.945                    20654638.492
 11  8 21  0 32  0.0000000  0  9G09G10G12G17G04G05G30G25G02
 126772294.041 6  98783667.89143  24123983.000                    24123996.641
 110081404.360 8  85777839.08946  20947770.797                    20947780.434
 111105968.441 8  86576151.948 7  21142762.781                    21142771.805
 123489245.857 6  96225468.644 6  23499220.813                    23499231.301
 116551314.532 7  90819327.63445  22178967.117                    22178977.488
 112772445.469 7  87874719.399 7  21459865.844                    21459875.875
 122324705.793 7  95318027.20244  23277620.719                    23277631.703
 123992721.944 7  96617753.667 7  23595033.289                    23595047.020
 108549157.770 8  84583863.86546  20656196.984                    20656203.988
 11  8 21  0 32 30.0000000  0  9G09G10G12G17G04G05G30G25G02
 126853559.941 6  98846991.79943  24139446.766                    24139461.504
 110101965.542 8  85793860.80446  20951683.305                    20951693.211
 111059622.194 8  86540037.983 7  21133943.695                    21133952.504
 123546329.589 6  96269949.446 6  23510083.211                    23510093.949
 116631318.010 7  90881667.97145  22194191.453                    22194201.488
 112693906.586 7  87813520.347 7  21444920.117                    21444930.039
 122234532.610 6  95247762.48244  23260461.078                    23260472.695
 123899551.033 7  96545153.068 7  23577303.523                    23577317.449
 108557633.149 8  84590468.08546  20657809.555                    20657817.035
 11  8 21  0 33  0.0000000  0  9G09G10G12G17G04G05G30G25G02
 126934888.338 6  98910364.39643  24154922.852                    24154937.906
 110123148.695 8  85810367.17046  20955714.500                    20955724.164
 111013769.053 8  86504308.250 7  21125217.922                    21125226.707
 123603586.122 6  96314564.914 6  23520979.648                    23520989.645
 116711397.115 7  90944067.23345  22209429.688                    22209439.953
 112615760.484 7  87752627.351 7  21430049.430                    21430059.324
 122144699.106 7  95177762.41844  23243366.383                    23243377.145
 123806633.108 7  96472749.587 7  23559621.781                    23559635.277
 108566357.522 8  84597266.31646  20659469.594                    20659476.871
 11  8 21  0 33 30.0000000  0  9G09G10G12G17G04G05G30G25G02
 127016276.132 6  98973783.26243  24170411.773                    24170426.762
 110144953.309 8  85827357.78546  20959863.867                    20959873.344
 110968411.232 8  86468964.482 7  21116586.734                    21116595.223
 123661015.711 7  96359315.233 6  23531907.711                    23531918.309
 116791550.548 7  91006524.40545  22224682.477                    22224692.582
 112538010.459 7  87692042.999 7  21415254.406                    21415264.309
 122055208.487 7  95108029.54244  23226336.508                    23226347.793
 123713971.115 7  96400545.526 7  23541989.195                    23542002.395
 108575330.004 8  84604257.88546  20661177.203                    20661184.211
 11  8 21  0 34  0.0000000  0  9G09G10G12G17G04G05G30G25G02
 127097719.704 6  99037245.56343  24185909.875                    24185924.875
 110167378.154 8  85844831.69546  20964131.094                    20964140.301
 110923550.033 8  86434007.707 7  21108050.031                    21108058.500
 123718618.738 7  96404200.719 6  23542869.141                    23542879.617
 116871776.049 7  91069037.73245  22239949.438                    22239959.305
 112460658.884 8  87631769.125 7  21400534.352                    21400544.805
 121966063.016 7  95038565.59744  23209372.727                    23209383.934
 123621567.390 7  96328542.695 7  23524405.336                    23524418.250
 108584548.934 8  84611441.48146  20662931.563                    20662938.242
 11  8 21  0 34 30.0000000  0  9G09G10G12G17G04G05G30G25G02
 127179215.993 6  99100748.91543  24201417.727                    24201432.957
 110190422.726 8  85862788.51345  20968516.367                    20968525.785
 110879187.962 8  86399439.854 7  21099608.094                    21099616.762
 123776395.923 7  96449221.895 6  23553864.227                    23553873.992
 116952072.283 7  91131606.19145  22255229.094                    22255238.969
 112383708.438 8  87571807.809 7  21385891.336                    21385901.391
 121877265.836 7  94969373.06144  23192475.156                    23192486.383
 123529424.899 7  96256743.424 7  23506870.602                    23506884.543
 108594013.669 8  84618816.61546  20664732.641                    20664739.656
 11  8 21  0 35  0.0000000  0  9G09G10G12G17G04G05G30G25G02
 127260761.844 5  99164290.93443  24216934.203                    24216950.898
 110214086.820 8  85881228.07146  20973019.484                    20973028.840
 110835326.790 8  86365262.307 7  21091261.742                    21091270.332
 123834347.704 6  96494379.119 6  23564891.922                    23564902.262
 117032437.869 7  91194228.68345  22270522.219                    22270532.602
 112307161.639 8  87512161.028 7  21371324.875                    21371334.926
 121788819.944 7  94900454.24944  23175644.617                    23175655.578
 123437546.488 7  96185149.938 7  23489387.141                    23489400.199
 108603723.215 8  84626382.50146  20666580.156                    20666586.953
 11  8 21  0 35 30.0000000  0  9G09G10G12G17G04G05G30G25G02
 127342353.663 5  99227868.77843  24232461.438                    24232478.398
 110238368.939 8  85900149.19946  20977640.219                    20977649.914
 110791968.125 8  86331476.330 7  21083010.953                    21083019.367
 123892474.051 7  96539672.361 6  23575952.664                    23575963.801
 117112870.691 7  91256903.58945  22285828.086                    22285838.664
 112231021.077 8  87452830.797 7  21356835.477                    21356845.875
 121700727.711 7  94831811.02944  23158880.625                    23158891.863
 123345934.419 7  96113763.979 7  23471953.781                    23471966.590
 108613675.209 8  84634137.31446  20668474.203                    20668481.168
 11  8 21  0 36  0.0000000  0  9G09G10G12G17G04G05G30G25G02
 127423988.535 6  99291480.12043  24247996.477                    24248012.730
 110263268.042 8  85919551.09246  20982378.539                    20982388.074
 110749113.812 8  86298083.363 7  21074855.852                    21074864.324
 123950775.678 7  96585102.172 6  23587047.688                    23587058.660
 117193369.229 7  91319629.69945  22301146.055                    22301156.742
 112155288.980 8  87393818.855 7  21342424.445                    21342434.219
 121612991.826 7  94763445.48544  23142185.594                    23142196.695
 123254591.413 7  96042587.670 6  23454571.797                    23454584.438
 108623868.902 8  84642080.46446  20670413.758                    20670420.605
 11  8 21  0 36 30.0000000  0  9G09G10G12G17G04G05G30G25G02
 127505663.478 6  99355122.66143  24263539.391                    24263555.137
 110288784.001 8  85939433.65246  20987233.891                    20987243.805
 110706765.964 8  86265085.042 7  21066797.648                    21066806.152
 124009253.171 7  96630669.039 6  23598175.539                    23598186.527
 117273932.157 7  91382405.97945  22316476.898                    22316487.797
 112079968.297 8  87335127.491 7  21328091.313                    21328101.156
 121525615.380 7  94695360.00944  23125557.625                    23125568.895
 123163520.394 7  95971623.317 6  23437241.055                    23437254.012
 108634303.705 8  84650211.48246  20672399.594                    20672406.434
 11  8 21  0 37  0.0000000  0  9G09G10G12G17G04G05G30G25G02
 127587374.859 6  99418793.62343  24279089.742                    24279103.871
 110314915.431 8  85959795.81046  20992206.656                    20992216.523
 110664926.274 8  86232482.693 7  21058835.336                    21058844.113
 124067906.784 7  96676373.156 6  23609336.344                    23609347.535
 117354557.525 7  91445230.91445  22331818.961                    22331830.539
 112005061.221 7  87276758.421 7  21313836.828                    21313847.227
 121438601.007 7  94627556.67244  23109000.039                    23109010.297
 123072723.870 7  95900872.856 6  23419963.125                    23419975.863
 108644977.828 8  84658528.98446  20674430.883                    20674437.688
 11  8 21  0 37 30.0000000  0  9G09G10G12G17G04G05G30G25G02
 127669119.461 6  99482490.53144  24294645.234                    24294660.051
 110341661.060 7  85980636.58346  20997296.008                    20997305.508
 110623596.529 8  86200277.711 7  21050970.531                    21050979.309
 124126737.027 6  96722214.890 6  23620531.375                    23620542.883
 117435243.674 7  91508103.17145  22347173.977                    22347184.348
 111930570.405 8  87218713.704 7  21299661.813                    21299671.641
 121351951.331 7  94560037.51444  23092510.578                    23092521.465
 122982204.541 7  95830338.396 6  23402737.688                    23402750.805
 108655890.068 8  84667032.03346  20676507.094                    20676514.074
 11  8 21  0 38  0.0000000  0  9G09G10G12G17G04G05G30G25G02
 127750894.135 6  99546210.86243  24310206.039                    24310221.441
 110369020.131 8  86001955.36346  21002502.313                    21002511.887
 110582778.274 8  86168471.284 7  21043203.281                    21043212.102
 124185744.105 6  96768194.367 7  23631760.461                    23631771.887
 117515989.277 7  91571021.77544  22362538.586                    22362549.328
 111856498.319 8  87160995.270 7  21285566.156                    21285576.461
 121265669.108 7  94492804.68344  23076092.102                    23076103.156
 122891964.974 7  95760021.933 6  23385565.273                    23385578.477
 108667039.063 8  84675719.55846  20678628.789                    20678636.133
 11  8 21  0 38 30.0000000  0  9G09G10G12G17G04G05G30G25G02
 127832695.846 6  99609952.23043  24325772.461                    24325787.887
 110396991.954 8  86023751.59946  21007825.273                    21007834.566
 110542473.892 8  86137065.288 7  21035533.766                    21035542.324
 124244928.623 7  96814312.145 6  23643023.430                    23643034.113
 117596792.832 7  91633985.55045  22377914.914                    22377925.195
 111782847.512 8  87103605.108 7  21271550.773                    21271561.008
 121179757.341 7  94425860.50244  23059743.281                    23059753.996
 122802008.200 7  95689925.816 6  23368447.078                    23368459.992
 108678424.139 8  84684591.05346  20680795.367                    20680802.512
 11  8 21  0 39  0.0000000  0  9G09G10G12G17G04G05G30G25G02
 127914521.682 6  99673712.43843  24341343.063                    24341359.012
 110425575.378 8  86046024.41246  21013264.242                    21013273.672
 110502684.935 8  86106060.919 7  21027962.023                    21027970.816
 124304290.800 6  96860568.380 6  23654319.055                    23654330.113
 117677652.589 7  91696993.14345  22393302.773                    22393313.160
 111709620.391 8  87046545.094 7  21257616.344                    21257626.461
 121094218.692 7  94359207.05344  23043465.883                    23043476.453
 122712336.812 7  95620052.082 6  23351383.516                    23351396.734
 108690044.079 8  84693645.56046  20683006.656                    20683013.496
 11  8 21  0 39 30.0000000  0  9G09G10G12G17G04G05G30G25G02
 127996367.977 6  99737488.55043  24356918.164                    24356934.488
 110454769.315 8  86068772.94646  21018819.961                    21018828.863
 110463412.949 8  86075459.396 7  21020488.930                    21020497.297
 124363831.021 6  96906963.320 6  23665649.063                    23665660.605
 117758566.946 7  91760043.26945  22408699.969                    22408710.895
 111636819.677 8  86989817.337 7  21243762.438                    21243772.500
 121009055.795 7  94292846.40944  23027259.633                    23027270.641
 122622953.305 7  95550402.660 6  23334374.484                    23334387.672
 108701897.176 8  84702881.73546  20685261.922                    20685268.863
 11  8 21  0 40  0.0000000  0  9G09G10G12G17G04G05G30G25G02
 128078231.439 6  99801278.08943  24372497.086                    24372512.418
 110484572.737 8  86091996.41246  21024491.203                    21024500.633
 110424659.237 8  86045261.711 7  21013114.047                    21013122.605
 124423549.911 6  96953497.461 6  23677012.703                    23677024.738
 117839534.286 7  91823134.68745  22424107.648                    22424118.383
 111564447.237 8  86933423.302 7  21229990.563                    21229999.957
 120924271.230 7  94226780.58844  23011125.672                    23011136.254
 122533860.298 7  95480979.604 6  23317420.352                    23317432.922
 108713982.228 8  84712298.67046  20687561.539                    20687568.773
 11  8 21  0 40 30.0000000  0  9G09G10G12G17G04G05G30G25G02
 128160108.973 6  99865078.57343  24388077.539                    24388093.320
 110514984.386 8  86115693.82446  21030278.258                    21030287.512
 110386425.993 8  86015469.593 7  21005838.430                    21005847.184
 124483447.689 7  97000171.023 6  23688411.813                    23688422.656
 117920553.397 7  91886266.45645  22439524.969                    22439536.039
 111492505.686 8  86877365.016 7  21216300.586                    21216310.133
 120839867.952 7  94161011.84344  22995064.234                    22995074.797
 122445060.606 7  95411785.096 6  23300522.695                    23300535.043
 108726298.285 8  84721895.60546  20689905.242                    20689912.238
 11  8 21  0 41  0.0000000  0  9G09G10G12G17G04G05G30G25G02
 128241997.474 6  99928887.65543  24403661.352                    24403676.238
 110546003.001 8  86139864.19946  21036180.742                    21036190.270
 110348714.862 8  85986084.307 7  20998662.445                    20998671.227
 124543524.646 6  97046984.198 6  23699843.602                    23699854.930
 118001622.626 7  91949437.28944  22454951.875                    22454963.176
 111420997.391 8  86821644.337 7  21202692.516                    21202702.656
 120755848.572 7  94095542.26244  22979075.641                    22979086.273
 122356556.838 7  95342821.177 7  23283680.586                    23283693.180
 108738844.234 8  84731671.68246  20692292.914                    20692299.832
 11  8 21  0 41 30.0000000  0  9G09G10G12G17G04G05G30G25G02
 128323893.996 6  99992702.98943  24419244.586                    24419260.500
 110577627.217 7  86164506.47146  21042198.406                    21042208.316
 110311527.117 8  85957106.874 7  20991585.828                    20991594.563
 124603781.068 6  97093937.249 6  23711309.836                    23711321.023
 118082740.112 7  92012645.71844  22470388.086                    22470398.563
 111349924.648 8  86766263.063 7  21189167.820                    21189177.879
 120672215.701 7  94030373.83044  22963161.094                    22963172.098
 122268351.542 7  95274089.829 7  23266895.758                    23266907.883
 108751618.400 8  84741625.59846  20694723.664                    20694730.773
 11  8 21  0 42  0.0000000  0  9G09G10G12G17G04G05G30G25G02
 128405795.569 6 100056522.27343  24434829.820                    24434846.313
 110609856.158 7  86189619.95846  21048331.633                    21048341.555
 110274865.000 8  85928539.009 7  20984609.109                    20984618.156
 124664217.514 6  97141030.543 6  23722811.070                    23722821.867
 118163904.718 7  92075890.85044  22485833.141                    22485843.945
 111279290.003 8  86711223.147 7  21175726.594                    21175736.555
 120588972.103 7  93965508.76444  22947320.430                    22947331.191
 122180447.534 7  95205593.244 7  23250168.047                    23250180.977
 108764619.909 8  84751756.66746  20697197.945                    20697205.105
 11  8 21  0 42 30.0000000  0  9G09G10G12G17G04G05G30G25G02
 128487698.585 6 100120342.66243  24450415.305                    24450431.457
 110642688.639 7  86215203.73445  21054579.195                    21054588.508
 110238729.483 8  85900381.486 7  20977732.477                    20977741.777
 124724834.170 6  97188264.308 6  23734346.273                    23734357.039
 118245114.585 7  92139171.23344  22501286.758                    22501297.383
 111209095.824 8  86656526.459 7  21162369.086                    21162378.918
 120506120.312 7  93900948.98344  22931554.094                    22931564.570
 122092847.272 7  95137333.348 7  23233498.469                    23233510.617
 108777847.149 8  84762063.62446  20699714.734                    20699722.090
 11  8 21  0 43  0.0000000  0  9G09G10G12G17G04G05G30G25G02
 128569600.267 6 100184162.00143  24466000.477                    24466017.207
 110676124.015 8  86241257.29746  21060941.703                    21060951.508
 110203122.593 8  85872635.884 7  20970956.656                    20970965.652
 124785631.706 6  97235638.998 6  23745915.773                    23745926.680
 118326368.647 7  92202486.07444  22516748.758                    22516759.137
 111139344.731 8  86602175.031 7  21149095.664                    21149105.340
 120423663.468 7  93836696.95544  22915862.820                    22915873.605
 122005553.860 7  95069312.566 7  23216887.273                    23216899.742
 108791299.673 8  84772546.13146  20702274.828                    20702282.016
 11  8 21  0 43 30.0000000  0  9G09G10G12G17G04G05G30G25G02
 128651497.450 6 100247977.84743  24481586.023                    24481601.770
 110710160.320 8  86267779.12146  21067419.047                    21067428.395
 110168045.757 8  85845303.317 7  20964282.180                    20964291.004
 124846610.235 6  97283154.721 6  23757518.836                    23757530.320
 118407665.001 7  92265833.87544  22532219.484                    22532229.000
 111070038.754 8  86548170.433 7  21135907.406                    21135917.215
 120341603.907 7  93772754.49044  22900247.641                    22900258.336
 121918569.709 7  95001532.747 7  23200334.586                    23200347.063
 108804975.718 8  84783202.81646  20704877.156                    20704884.172
 11  8 21  0 44  0.0000000  0  9G09G10G12G17G04G05G30G25G02
 128733386.879 6 100311787.63043  24497169.938                    24497185.754
 110744796.328 8  86294768.24046  21074010.109                    21074019.223
 110133500.689 8  85818385.111 7  20957708.430                    20957717.109
 124907770.063 6  97330811.702 6  23769157.656                    23769167.770
 118489002.587 7  92329213.81845  22547697.555                    22547707.898
 111001180.223 8  86494514.504 7  21122804.078                    21122813.594
 120259944.340 7  93709123.73244  22884708.266                    22884719.297
 121831897.395 7  94933995.921 7  23183840.797                    23183853.625
 108818874.392 8  84794032.97746  20707522.016                    20707528.910
 11  8 21  0 44 30.0000000  0  9G09G10G12G17G04G05G30G25G02
 128815265.502 6 100375589.03143  24512750.656                    24512766.676
 110780030.415 8  86322223.39346  21080714.469                    21080724.086
 110099488.873 8  85791882.424 7  20951236.195                    20951244.535
 124969111.581 6  97378610.298 6  23780831.008                    23780841.332
 118570379.926 7  92392624.73245  22563183.063                    22563194.336
 110932771.421 8  86441209.006 7  21109786.422                    21109795.828
 120178687.379 7  93645806.68644  22869245.617                    22869256.352
 121745539.598 7  94866704.180 7  23167408.367                    23167420.441
 108832994.221 8  84805035.47046  20710208.516                    20710215.945
 11  8 21  0 45  0.0000000  0  9G09G10G12G17G04G05G30G25G02
 128897130.013 7 100439379.41643  24528329.984                    24528344.508
 110815861.354 8  86350143.62945  21087532.977                    21087542.406
 110066011.684 8  85765796.325 7  20944865.445                    20944874.160
 125030635.021 6  97426550.627 6  23792537.516                    23792548.582
 118651795.125 7  92456065.11544  22578675.992                    22578686.879
 110864814.292 8  86388255.470 7  21096854.000                    21096863.926
 120097835.547 7  93582805.34844  22853859.547                    22853870.418
 121659498.887 7  94799659.502 7  23151034.867                    23151047.438
 108847333.829 8  84816209.21746  20712937.500                    20712944.684
 11  8 21  0 45 30.0000000  0  9G09G10G12G17G04G05G30G25G02
 128978977.558 6 100503156.53643  24543904.414                    24543919.594
 110852288.110 8  86378528.13046  21094464.648                    21094473.949
 110033070.781 8  85740128.127 7  20938596.852                    20938606.180
 125092340.853 6  97474633.110 6  23804279.938                    23804290.297
 118733247.080 7  92519534.14645  22594176.156                    22594186.555
 110797311.725 8  86335656.125 7  21084008.578                    21084018.496
 120017391.828 7  93520121.98244  22838551.719                    22838562.195
 121573778.153 7  94732864.172 7  23134722.516                    23134735.422
 108861892.351 8  84827553.55046  20715708.102                    20715714.547
 11  8 21  0 46  0.0000000  0  9G09G10G12G17G04G05G30G25G02
 129060804.953 6 100566917.99743  24559475.422                    24559491.418
 110889309.395 7  86407375.90845  21101509.609                    21101519.328
 110000667.494 8  85714878.853 7  20932431.008                    20932439.816
 125154229.037 6  97522857.685 6  23816057.234                    23816067.816
 118814734.422 7  92583030.74244  22609682.219                    22609692.887
 110730265.711 8  86283412.537 7  21071250.383                    21071259.781
 119937358.631 7  93457758.52344  22823321.641                    22823332.426
 121488379.858 7  94666320.093 7  23118471.695                    23118484.527
 108876668.396 8  84839067.38446  20718519.734                    20718526.898
 11  8 21  0 46 30.0000000  0  9G09G10G12G17G04G05G30G25G02
 129142609.291 6 100630661.46143  24575042.070                    24575058.598
 110926923.701 8  86436685.77045  21108666.984                    21108676.793
 109968803.426 8  85690049.746 7  20926367.438                    20926376.148
 125216300.329 6  97571224.948 6  23827868.391                    23827879.680
 118896255.583 7  92646553.69744  22625194.852                    22625206.422
 110663678.211 8  86231526.236 7  21058578.992                    21058588.652
 119857738.683 7  93395717.04644  22808170.469                    22808181.027
 121403306.784 7  94600029.444 7  23102282.484                    23102295.375
 108891661.043 8  84850750.00346  20721372.523                    20721379.492
 11  8 21  0 47  0.0000000  0  9G09G10G12G17G04G05G30G25G02
 129224387.261 6 100694384.38343  24590604.133                    24590621.434
 110965129.248 8  86466456.31845  21115937.797                    21115947.324
 109937479.842 8  85665641.802 7  20920406.695                    20920415.445
 125278554.889 6  97619735.013 6  23839715.602                    23839726.969
 118977809.313 7  92710102.02044  22640714.383                    22640725.324
 110597551.809 8  86179999.226 7  21045995.633                    21046005.410
 119778534.577 7  93333999.62144  22793098.398                    22793108.957
 121318561.541 7  94533994.241 7  23086156.305                    23086168.738
 108906869.045 8  84862600.44146  20724266.539                    20724273.566
 11  8 21  0 47 30.0000000  0  9G09G10G12G17G04G05G30G25G02
 129306136.123 6 100758084.60243  24606161.063                    24606177.652
 111003924.724 8  86496686.55246  21123320.344                    21123329.762
 109906698.860 8  85641656.656 7  20914549.211                    20914557.906
 125340993.064 6  97668388.154 6  23851597.148                    23851608.160
 119059394.313 7  92773674.73544  22656238.969                    22656250.031
 110531888.819 8  86128833.325 7  21033500.164                    21033510.344
 119699748.946 7  93272608.24544  22778106.086                    22778116.500
 121234146.794 7  94468216.553 7  23070092.602                    23070104.895
 108922291.213 8  84874617.75146  20727200.813                    20727208.188
 11  8 21  0 48  0.0000000  0  9G09G10G12G17G04G05G30G25G02
 129387852.394 6 100821759.43243  24621711.531                    24621727.949
 111043308.367 8  86527375.09446  21130815.250                    21130824.586
 109876460.382 8  85618094.242 7  20908794.945                    20908803.789
 125403614.719 6  97717184.262 6  23863513.703                    23863524.855
 119141008.654 7  92837270.30844  22671770.289                    22671780.516
 110466691.247 8  86078030.081 7  21021093.719                    21021103.410
 119621383.966 7  93211544.66944  22763194.086                    22763204.195
 121150064.677 7  94402698.061 7  23054092.391                    23054104.453
 108937925.666 8  84886800.47946  20730176.461                    20730183.340
 11  8 21  0 48 30.0000000  0  9G09G10G12G17G04G05G30G25G02
 129469533.250 6 100885406.70543  24637254.109                    24637271.484
 111083279.288 8  86558521.26746  21138420.828                    21138430.629
 109846766.818 8  85594956.423 7  20903144.625                    20903153.090
 125466420.372 6  97766123.768 6  23875464.977                    23875476.605
 119222651.447 7  92900888.07744  22687306.578                    22687316.586
 110401961.172 8  86027591.127 7  21008775.914                    21008785.355
 119543442.663 7  93150811.21044  22748362.063                    22748372.020
 121066318.338 7  94337441.208 7  23038155.875                    23038168.336
 108953771.843 8  84899148.17146  20733192.070                    20733198.691
 11  8 21  0 49  0.0000000  0  9G09G10G12G17G04G05G30G25G02
 129551175.661 6 100949023.97043  24652790.484                    24652806.633
 111123835.879 8  86590123.80646  21146138.977                    21146147.832
 109817619.393 8  85572244.172 7  20897597.734                    20897606.762
 125529410.319 6  97815206.831 6  23887451.477                    23887463.012
 119304321.242 7  92964526.86444  22702848.000                    22702857.969
 110337700.687 8  85977518.079 7  20996547.219                    20996557.074
 119465927.448 7  93090409.77544  22733611.773                    22733621.789
 120982910.172 7  94272447.868 7  23022284.125                    23022296.168
 108969828.346 8  84911659.76746  20736247.328                    20736254.398
 11  8 21  0 49 30.0000000  0  9G09G10G12G17G04G05G30G25G02
 129632776.465 6 101012608.78943  24668318.375                    24668334.875
 111164975.963 8  86622181.01745  21153967.383                    21153976.957
 109789019.169 8  85549958.324 7  20892155.438                    20892164.074
 125592584.803 6  97864433.692 6  23899473.117                    23899484.793
 119386016.383 7  93028185.39944  22718393.727                    22718404.254
 110273911.597 8  85927812.350 7  20984408.672                    20984418.371
 119388840.722 7  93030342.21944  22718942.180                    22718952.785
 120899842.754 7  94207720.046 7  23006476.719                    23006489.152
 108986093.630 8  84924334.03746  20739342.078                    20739349.387
 11  8 21  0 50  0.0000000  0  9G09G10G12G17G04G05G30G25G02
 129714332.890 6 101076159.05943  24683838.664                    24683854.902
 111206698.266 7  86654691.89145  21161907.094                    21161916.461
 109760967.710 8  85528100.077 7  20886817.242                    20886825.906
 125655944.003 6  97913804.494 6  23911530.664                    23911541.199
 119467735.759 7  93091862.79344  22733944.664                    22733955.691
 110210596.742 8  85878476.159 7  20972360.305                    20972370.047
 119312185.398 7  92970610.83344  22704354.938                    22704365.703
 120817118.908 7  94143259.944 7  22990735.188                    22990747.129
 109002567.374 8  84937170.75046  20742477.359                    20742484.313
 11  8 21  0 50 30.0000000  0  9G09G10G12G17G04G05G30G25G02
 129795842.086 7 101139672.45443  24699349.977                    24699366.625
 111249001.275 8  86687655.28045  21169956.664                    21169966.602
 109733466.480 8  85506670.579 7  20881584.070                    20881592.953
 125719488.290 6  97963319.509 6  23923622.516                    23923633.523
 119549478.690 7  93155558.57744  22749499.336                    22749510.098
 110147758.095 8  85829511.038 7  20960402.438                    20960411.785
 119235963.893 7  92911217.47244  22689850.875                    22689861.238
 120734741.205 7  94079069.578 7  22975058.953                    22975071.734
 109019247.994 8  84950168.64646  20745651.492                    20745658.094
 11  8 21  0 51  0.0000000  0  9G09G10G12G17G04G05G30G25G02
 129877300.578 7 101203146.41544  24714850.938                    24714867.910
 111291883.137 7  86721069.74345  21178117.203                    21178126.992
 109706516.476 8  85485670.608 7  20876455.586                    20876464.586
 125783217.812 6  98012978.871 6  23935749.703                    23935761.172
 119631242.851 7  93219270.89144  22765058.453                    22765069.910
 110085397.316 8  85780918.288 7  20948535.648                    20948545.430
 119160178.613 7  92852164.02744  22675429.375                    22675439.840
 120652712.061 7  94015150.801 7  22959449.531                    22959461.219
 109036133.984 8  84963326.58246  20748864.508                    20748871.758
 11  8 21  0 51 30.0000000  0  9G09G10G12G17G04G05G30G25G02
 129958705.733 7 101266578.77643  24730342.867                    24730358.836
 111335342.314 7  86754934.05946  21186386.711                    21186396.621
 109680118.931 8  85465101.119 7  20871432.102                    20871440.754
 125847132.685 7  98062782.631 6  23947912.398                    23947923.426
 119713027.338 7  93282999.06144  22780621.570                    22780632.754
 110023516.741 8  85732699.716 7  20936760.125                    20936769.551
 119084832.163 7  92793452.53844  22661091.656                    22661101.551
 120571034.202 7  93951505.758 7  22943906.578                    22943918.918
 109053224.461 8  84976643.85046  20752117.070                    20752123.777
 11  8 21  0 52  0.0000000  0  9G09G10G12G17G04G05G30G25G02
 130040054.556 6 101329967.22843  24745822.383                    24745839.227
 111379377.524 7  86789247.24645  21194766.531                    21194776.387
 109654275.793 8  85444963.633 7  20866514.461                    20866523.117
 125911233.388 6  98112731.201 6  23960110.477                    23960121.520
 119794830.936 7  93346742.10844  22796188.547                    22796199.309
 109962118.727 8  85684857.172 7  20925076.328                    20925085.813
 119009927.300 7  92735085.14445  22646837.633                    22646847.559
 120489710.402 7  93888136.602 7  22928430.914                    22928443.379
 109070518.510 8  84990119.74546  20755407.984                    20755415.074
 11  8 21  0 52 30.0000000  0  9G09G10G12G17G04G05G30G25G02
 130121343.879 6 101393309.30143  24761291.789                    24761308.480
 111423986.559 7  86824007.55046  21203255.625                    21203264.715
 109628987.050 8  85425258.143 7  20861701.922                    20861710.867
 125975520.073 6  98162824.704 6  23972343.188                    23972354.684
 119876652.009 7  93410498.75544  22811758.461                    22811768.934
 109901205.191 8  85637392.138 7  20913484.844                    20913494.477
 118935466.162 7  92677063.51544  22632668.086                    22632677.980
 120408742.946 7  93825045.107 7  22913023.484                    22913036.227
 109088014.580 8  85003753.05146  20758736.945                    20758744.090
 11  8 21  0 53  0.0000000  0  9G09G10G12G17G04G05G30G25G02
 130202570.863 6 101456602.81543  24776748.383                    24776765.152
 111469168.007 7  86859213.88245  21211853.375                    21211862.531
 109604254.357 8  85405985.938 7  20856995.633                    20857004.199
 126039992.775 6  98213063.150 6  23984612.305                    23984623.297
 119958489.624 7  93474268.28944  22827331.336                    22827341.961
 109840777.708 8  85590305.858 7  20901985.570                    20901995.117
 118861451.238 7  92619389.58144  22618583.453                    22618593.441
 120328134.373 7  93762233.282 7  22897683.805                    22897696.617
 109105711.322 8  85017542.72646  20762104.711                    20762111.695
 11  8 21  0 53 30.0000000  0  9G09G10G12G17G04G05G30G25G02
 130283732.564 6 101519845.42043  24792193.258                    24792209.465
 111514920.045 8  86894864.83345  21220559.430                    21220569.051
 109580079.256 8  85387148.223 7  20852395.359                    20852403.758
 126104651.871 6  98263446.869 6  23996915.898                    23996927.492
 120040342.458 7  93538049.65944  22842907.922                    22842918.027
 109780838.446 8  85543600.000 7  20890579.547                    20890589.090
 118787885.186 7  92562065.41644  22604583.664                    22604594.590
 120247887.455 7  93699703.259 7  22882413.125                    22882426.156
 109123607.782 8  85031488.01646  20765510.344                    20765517.887
 11  8 21  0 54  0.0000000  0  9G09G10G12G17G04G05G30G25G02
 130364826.072 6 101583035.00143  24807624.875                    24807641.012
 111561240.535 8  86930958.75045  21229373.820                    21229383.078
 109556462.235 8  85368745.366 7  20847900.859                    20847909.668
 126169497.420 6  98313975.849 6  24009256.563                    24009267.195
 120122209.003 7  93601841.73944  22858486.883                    22858497.145
 109721389.358 8  85497276.100 7  20879266.813                    20879276.543
 118714770.210 7  92505092.73644  22590670.430                    22590681.133
 120168004.524 7  93637456.873 7  22867212.563                    22867224.809
 109141702.637 8  85045587.89646  20768953.508                    20768960.633
 11  8 21  0 54 30.0000000  0  9G09G10G12G17G04G05G30G25G02
 130445848.415 5 101646169.09142  24823044.141                    24823060.156
 111608127.993 7  86967494.46945  21238296.109                    21238305.941
 109533404.530 8  85350778.334 7  20843513.344                    20843521.773
 126234529.796 6  98364650.401 6  24021631.531                    24021642.523
 120204088.084 7  93665643.58244  22874067.594                    22874078.008
 109662432.473 8  85451335.731 8  20868047.633                    20868056.875
 118642108.914 7  92448473.58345  22576843.789                    22576854.203
 120088488.283 7  93575496.214 7  22852080.539                    22852093.348
 109159994.821 8  85059841.52946  20772434.375                    20772441.102
 11  8 21  0 55  0.0000000  0  9G09G10G12G17G04G05G30G25G02
 130526796.657 6 101709245.46642  24838446.961                    24838464.098
 111655580.599 8  87004470.55945  21247326.188                    21247335.668
 109510907.608 8  85333248.264 7  20839232.281                    20839240.566
 126299749.131 6  98415470.681 6  24034042.117                    24034053.109
 120285978.886 7  93729454.56044  22889651.000                    22889661.875
 109603969.770 8  85405780.438 7  20856922.836                    20856931.836
 118569903.909 7  92392209.97044  22563103.695                    22563114.051
 120009341.455 7  93513823.413 7  22837019.484                    22837031.793
 109178483.703 8  85074248.42746  20775953.188                    20775960.109
 11  8 21  0 55 30.0000000  0  9G09G10G12G17G04G05G30G25G02
 130607667.940 5 101772261.88042  24853835.625                    24853853.773
 111703596.559 8  87041885.62145  21256462.820                    21256472.582
 109488972.679 8  85316156.108 7  20835058.609                    20835067.152
 126365155.613 6  98466436.797 6  24046488.656                    24046499.207
 120367879.895 7  93793273.48144  22905236.313                    22905247.527
 109546003.256 8  85360611.785 8  20845891.867                    20845901.344
 118498157.557 7  92336303.77744  22549450.484                    22549461.273
 119930566.521 7  93452440.390 7  22822029.078                    22822041.430
 109197167.657 8  85088807.33946  20779508.500                    20779515.309
 11  8 21  0 56  0.0000000  0  9G09G10G12G17G04G05G30G25G02
 130688460.125 5 101835216.62942  24869210.453                    24869228.219
 111752174.969 8  87079738.95145  21265706.938                    21265717.102
 109467601.422 8  85299503.189 7  20830991.523                    20831000.254
 126430750.431 6  98517549.696 5  24058971.445                    24058981.449
 120449791.002 7  93857100.27044  22920823.766                    22920833.992
 109488535.931 8  85315832.114 7  20834956.094                    20834965.453
 118426873.159 7  92280757.53545  22535886.180                    22535896.523
 119852166.905 7  93391349.826 7  22807110.078                    22807122.160
 109216046.419 8  85103518.05246  20783100.836                    20783107.512
 11  8 21  0 56 30.0000000  0  8G10G12G17G04G05G30G25G02
 111801313.973 8  87118029.10445  21275058.273                    21275068.039
 109446794.737 8  85283290.193 7  20827031.859                    20827040.559
 126496533.805 6  98568809.489 6  24071489.523                    24071499.086
 120531710.912 7  93920933.93344  22936412.906                    22936422.773
 109431569.327 8  85271442.597 8  20824115.664                    20824124.883
 118356053.202 7  92225573.18344  22522409.008                    22522419.359
 119774145.209 7  93330553.745 7  22792263.133                    22792274.984
 109235118.998 8  85118379.79146  20786730.602                    20786737.648
 11  8 21  0 57  0.0000000  0  8G10G12G17G04G05G30G25G02
 111851010.152 8  87156753.40345  21284514.945                    21284524.836
 109426552.471 8  85267516.984 7  20823180.055                    20823188.695
 126562504.388 6  98620215.185 6  24084043.047                    24084053.465
 120613637.144 7  93984772.49944  22952002.359                    22952013.332
 109375103.975 8  85227443.678 7  20813370.469                    20813380.109
 118285698.702 7  92170751.53144  22509021.016                    22509031.273
 119696502.576 7  93270053.024 7  22777487.992                    22777500.141
 109254382.810 8  85133390.55046  20790396.031                    20790403.379
 11  8 21  0 57 30.0000000  0  8G10G12G17G04G05G30G25G02
 111901261.911 8  87195910.61245  21294078.086                    21294086.770
 109406876.112 8  85252184.763 7  20819436.023                    20819444.461
 126628662.462 6  98671766.938 6  24096632.406                    24096642.805
 120695568.578 7  94048615.14144  22967593.375                    22967603.887
 109319142.094 8  85183837.073 8  20802721.820                    20802730.918
 118215812.221 7  92116294.56645  22495721.914                    22495732.641
 119619241.758 7  93209849.835 7  22762785.641                    22762797.762
 109273837.065 8  85148549.70546  20794098.398                    20794104.730
 11  8 21  0 58  0.0000000  0  8G10G12G17G04G05G30G25G02
 111952067.343 7  87235499.24145  21303745.891                    21303754.891
 109387766.300 8  85237293.997 7  20815799.148                    20815807.879
 126695008.130 6  98723464.873 6  24109257.617                    24109268.125
 120777504.148 7  94112461.00644  22983184.633                    22983195.473
 109263685.662 8  85140624.329 8  20792168.602                    20792177.816
 118146396.058 7  92062204.09445  22482512.641                    22482522.809
 119542365.175 7  93149946.057 7  22748156.820                    22748168.926
 109293480.519 8  85163856.31646  20797836.383                    20797842.824
 11  8 21  0 58 30.0000000  0  8G10G12G17G04G05G30G25G02
 112003424.187 7  87275517.54545  21313518.602                    21313527.180
 109369223.521 8  85222845.075 7  20812270.703                    20812279.512
 126761541.642 6  98775309.219 6  24121918.672                    24121928.902
 120859442.542 7  94176309.06444  22998777.938                    22998787.922
 109208735.924 8  85097806.401 7  20781711.711                    20781720.625
 118077452.413 7  92008481.82445  22469393.008                    22469402.973
 119465875.199 7  93090343.529 7  22733601.242                    22733613.500
 109313311.805 8  85179309.28046  20801609.375                    20801616.328
 11  8 21  0 59  0.0000000  0  8G10G12G17G04G05G30G25G02
 112055330.435 7  87315963.95345  21323396.063                    21323405.320
 109351248.584 8  85208838.620 7  20808850.281                    20808858.977
 126828262.750 6  98827299.709 6  24134614.945                    24134626.234
 120941382.335 7  94240158.22544  23014370.563                    23014380.320
 109154294.709 8  85055384.725 8  20771351.805                    20771361.074
 118008983.560 7  91955129.52445  22456363.961                    22456373.934
 119389774.201 7  93031044.093 7  22719119.828                    22719132.402
 109333329.524 8  85194907.54646  20805419.320                    20805425.988
 11  8 21  0 59 30.0000000  0  8G10G12G17G04G05G30G25G02
 112107784.602 7  87356837.30745  21333377.313                    21333386.773
 109333843.112 8  85195275.919 7  20805538.273                    20805546.754
 126895172.166 6  98879436.958 6  24147348.313                    24147358.543
 121023323.040 7  94304008.07944  23029963.000                    23029973.063
 109100364.152 8  85013360.967 8  20761089.117                    20761098.328
 117940992.235 7  91902149.33945  22443425.359                    22443435.672
 119314065.205 7  92972050.121 7  22704712.922                    22704724.871
 109353533.408 8  85210650.86446  20809263.805                    20809271.145
 11  8 21  1  0  0.0000000  0  8G10G12G17G04G05G30G25G02
 112160784.332 7  87398135.79545  21343463.242                    21343472.953
 109317007.741 8  85182157.443 7  20802334.391                    20802343.035
 126962269.887 7  98931720.937 6  24160116.297                    24160127.098
 121105263.099 7  94367857.45244  23045556.492                    23045566.184
 109046945.976 8  84971736.470 8  20750923.734                    20750933.473
 117873480.465 7  91849542.83245  22430577.641                    22430588.270
 119238750.398 7  92913363.327 7  22690380.328                    22690392.574
 109373921.874 8  85226538.02146  20813143.320                    20813150.305
 11  8 21  1  0 30.0000000  0  8G10G12G17G04G05G30G25G02
 112214327.586 7  87439857.81845  21353652.250                    21353661.645
 109300743.237 8  85169483.804 7  20799239.180                    20799247.941
 127029555.587 7  98984151.394 6  24172919.422                    24172931.234
 121187201.628 7  94431705.62544  23061148.516                    23061158.609
 108994041.879 8  84930512.554 7  20740856.391                    20740865.980
 117806450.611 7  91797311.83945  22417822.453                    22417833.152
 119163832.227 7  92854985.604 7  22676124.328                    22676136.148
 109394493.622 8  85242567.99246  20817058.375                    20817065.273
 11  8 21  1  1  0.0000000  0  8G10G12G17G04G05G30G25G02
 112268412.899 7  87482002.24145  21363944.289                    21363954.340
 109285050.611 8  85157255.796 8  20796253.195                    20796261.930
 127097029.850 6  99036728.788 6  24185759.164                    24185770.461
 121269137.736 7  94495551.92844  23076740.523                    23076750.742
 108941653.901 8  84889690.810 8  20730887.570                    20730897.180
 117739905.138 7  91745458.28645  22405159.539                    22405169.895
 119089313.423 7  92796919.082 7  22661943.578                    22661955.586
 109415247.977 8  85258740.25746  20821007.359                    20821014.523
 11  8 21  1  1 30.0000000  0  8G10G12G17G04G05G30G25G02
 112323037.791 8  87524567.11545  21374339.086                    21374348.516
 109269930.688 8  85145474.042 7  20793376.055                    20793384.953
 127164692.651 6  99089453.083 6  24198635.031                    24198646.293
 121351070.206 7  94559395.40444  23092331.570                    23092342.527
 108889783.395 8  84849272.292 8  20721016.781                    20721026.141
 117673846.217 7  91693983.87944  22392588.883                    22392598.781
 119015196.391 7  92739165.624 7  22647839.508                    22647851.805
 109436183.738 8  85275053.86846  20824991.531                    20824997.836
 11  8 21  1  2  0.0000000  0  8G10G12G17G04G05G30G25G02
 112378199.954 8  87567550.64045  21384836.156                    21384845.785
 109255383.689 8  85134138.727 7  20790607.500                    20790616.199
 127232543.987 6  99142324.266 6  24211546.711                    24211558.027
 121432997.566 6  94623234.90044  23107921.617                    23107932.973
 108838431.775 8  84809258.104 8  20711244.914                    20711254.219
 117608275.910 7  91642890.20644  22380111.289                    22380120.953
 118941483.296 8  92681726.944 7  22633812.516                    22633824.379
 109457299.479 8  85291507.73146  20829009.102                    20829016.586
 11  8 21  1  2 30.0000000  0  8G10G12G17G04G05G30G25G02
 112433897.604 8  87610951.41445  21395434.930                    21395444.344
 109241411.004 8  85123250.929 7  20787948.797                    20787957.359
 127300583.886 6  99195342.408 6  24224494.102                    24224505.277
 121514919.087 6  94687069.82944  23123510.805                    23123521.602
 108787601.159 8  84769649.881 8  20701571.922                    20701581.141
 117543196.599 7  91592179.14844  22367726.883                    22367736.898
 118868176.816 7  92624605.103 7  22619861.898                    22619874.766
 109478594.184 8  85308101.05046  20833062.008                    20833068.512
 11  8 21  1  3  0.0000000  0  8G10G12G17G04G05G30G25G02
 112490128.680 7  87654767.85645  21406135.555                    21406144.582
 109228013.191 8  85112811.080 7  20785399.125                    20785407.992
 127368812.635 6  99248507.680 6  24237477.781                    24237489.027
 121596833.889 6  94750899.53844  23139098.203                    23139109.359
 108737293.150 8  84730448.890 8  20691998.633                    20692007.965
 117478610.716 7  91541852.56244  22355436.844                    22355446.953
 118795279.490 7  92567802.073 7  22605990.352                    22606002.680
 109500067.263 8  85324833.34346  20837147.820                    20837154.918
 11  8 21  1  3 30.0000000  0  8G10G12G17G04G05G30G25G02
 112546890.889 7  87698998.17245  21416936.789                    21416945.914
 109215190.559 8  85102819.425 7  20782959.578                    20782967.770
 127437230.101 6  99301820.037 6  24250497.242                    24250508.691
 121678740.700 7  94814722.99444  23154684.336                    23154695.570
 108687509.369 8  84691656.389 8  20682525.445                    20682534.563
 117414520.104 7  91491911.90044  22343240.852                    22343250.652
 118722793.501 7  92511319.574 7  22592196.242                    22592209.148
 109521716.970 8  85341703.28246  20841267.805                    20841274.746
 11  8 21  1  4  0.0000000  0  8G10G12G17G04G05G30G25G02
 112604181.908 7  87743640.54545  21427839.016                    21427848.113
 109202944.154 8  85093276.781 7  20780628.750                    20780637.523
 127505836.408 6  99355279.545 6  24263552.633                    24263563.793
 121760638.336 7  94878539.31944  23170269.547                    23170279.848
 108638250.875 8  84653273.197 8  20673151.953                    20673160.754
 117350927.008 7  91442358.92144  22331139.109                    22331148.898
 118650721.186 7  92455159.414 7  22578481.625                    22578494.055
 109543542.367 8  85358710.10646  20845421.188                    20845427.980
 11  8 21  1  4 30.0000000  0  8G10G12G17G04G05G30G25G02
 112661999.561 7  87788693.29345  21438841.227                    21438850.234
 109191274.706 8  85084183.718 7  20778407.961                    20778416.953
 127574631.650 6  99408886.259 6  24276644.086                    24276655.020
 121842525.941 7  94942347.79244  23185852.531                    23185862.824
 108589519.620 8  84615300.841 7  20663878.281                    20663887.406
 117287833.778 7  91393195.45144  22319132.508                    22319142.727
 118579065.175 7  92399323.641 7  22564845.813                    22564858.332
 109565542.643 8  85375853.19846  20849608.016                    20849614.715
 11  8 21  1  5  0.0000000  0  8G10G12G17G04G05G30G25G02
 112720341.994 7  87834154.95145  21449943.273                    21449952.711
 109180182.279 8  85075540.272 7  20776297.289                    20776305.629
 127643615.602 6  99462640.034 6  24289771.180                    24289782.887
 121924402.548 7  95006147.69244  23201433.242                    23201443.645
 108541317.086 8  84577740.471 8  20654705.258                    20654714.820
 117225242.435 7  91344423.04745  22307221.883                    22307232.406
 118507827.776 7  92343814.048 7  22551289.867                    22551302.117
 109587716.432 8  85393131.50146  20853827.250                    20853834.066
 11  8 21  1  5 30.0000000  0  8G10G12G17G04G05G30G25G02
 112779207.067 7  87880023.85345  21461145.461                    21461154.570
 109169667.922 8  85067347.276 7  20774296.359                    20774305.332
 127712788.603 6  99516541.119 6  24302933.938                    24302945.543
 122006267.284 7  95069938.36744  23217011.508                    23217022.203
 108493644.796 8  84540593.275 8  20645633.922                    20645643.266
 117163155.354 7  91296043.58745  22295406.992                    22295417.730
 118437011.527 7  92288632.624 7  22537814.055                    22537826.191
 109610062.986 8  85410544.41546  20858079.391                    20858086.570
 11  8 21  1  6  0.0000000  0  8G10G12G17G04G05G30G25G02
 112838591.936 7  87926297.79845  21472445.586                    21472454.891
 109159732.129 8  85059605.112 7  20772405.977                    20772414.684
 127782150.521 6  99570589.420 6  24316133.000                    24316144.242
 122088118.762 7  95133718.72644  23232587.703                    23232598.273
 108446504.281 8  84503860.447 8  20636663.336                    20636672.660
 117101574.393 7  91248058.51145  22283688.430                    22283699.031
 118366618.587 7  92233781.055 7  22524418.469                    22524430.895
 109632581.013 8  85428090.94446  20862364.375                    20862371.465
 11  8 21  1  6 30.0000000  0  9G29G10G12G17G04G05G30G25G02
 129593229.14916 100981785.46916  24660778.477                    24660789.813
 112898494.249 7  87972974.92445  21483844.805                    21483853.973
 109150374.949 8  85052313.803 7  20770625.258                    20770633.844
 127851700.907 6  99624784.590 6  24329368.297                    24329378.910
 122169955.809 7  95197487.84544  23248160.789                    23248171.051
 108399896.574 8  84467542.788 8  20627793.922                    20627803.148
 117040501.212 7  91200469.11145  22272066.344                    22272077.105
 118296650.876 7  92179260.820 7  22511104.102                    22511116.461
 109655268.854 7  85445769.79646  20866681.453                    20866688.340
 11  8 21  1  7  0.0000000  0  9G29G10G12G17G04G05G30G25G02
 129513758.879 6 100919860.672 6  24645655.039                    24645667.918
 112958911.479 7  88020053.27945  21495341.898                    21495350.789
 109141596.949 8  85045473.823 7  20768954.813                    20768963.645
 127921439.725 6  99679126.589 6  24342639.563                    24342650.238
 122251777.025 7  95261244.63744  23263730.469                    23263741.074
 108353822.881 8  84431641.246 8  20619026.500                    20619035.746
 116979937.746 7  91153276.86445  22260541.750                    22260551.863
 118227110.600 7  92125073.653 7  22497870.977                    22497883.371
 109678125.354 8  85463580.05546  20871031.164                    20871037.711
 11  8 21  1  7 30.0000000  0  9G29G10G12G17G04G05G30G25G02
 129434208.968 6 100857873.858 6  24630518.141                    24630529.320
 113019842.234 7  88067531.77345  21506936.172                    21506945.281
 109133399.230 8  85039085.994 7  20767394.633                    20767403.277
 127991367.717 7  99733615.974 6  24355946.555                    24355957.207
 122333582.648 7  95324989.24744  23279297.180                    23279308.164
 108308285.683 8  84396157.762 8  20610361.320                    20610370.078
 116919887.064 7  91106484.19145  22249114.250                    22249124.406
 118158001.076 7  92071222.143 7  22484719.711                    22484731.750
 109701150.418 7  85481521.66646  20875412.844                    20875419.855
 11  8 21  1  8  0.0000000  0  9G29G10G12G17G04G05G30G25G02
 129354579.930 6 100795825.453 6  24615365.125                    24615377.195
 113081284.064 7  88115408.50745  21518628.242                    21518637.477
 109125781.715 8  85033150.280 7  20765945.320                    20765954.051
 128061484.706 6  99788252.655 6  24369288.828                    24369299.426
 122415371.391 7  95388720.73444  23294861.203                    23294872.402
 108263285.825 8  84361092.971 8  20601797.820                    20601806.770
 116860350.851 7  91060092.39345  22237784.977                    22237795.254
 118089324.246 7  92017707.770 7  22471650.828                    22471663.234
 109724342.840 8  85499593.68446  20879825.844                    20879832.879
 11  8 21  1  8 30.0000000  0  9G29G10G12G17G04G05G30G25G02
 129274872.231 6 100733715.733 6  24600196.117                    24600209.070
 113143234.905 7  88163681.87745  21530417.031                    21530426.039
 109118745.222 8  85027667.315 7  20764606.570                    20764615.309
 128131790.742 6  99843036.652 6  24382667.953                    24382678.656
 122497142.338 6  95452438.36043  23310421.930                    23310432.059
 108218825.103 8  84326448.303 8  20593337.008                    20593346.262
 116801331.234 7  91014103.13545  22226554.031                    22226564.246
 118021082.617 7  91964532.527 7  22458664.742                    22458677.137
 109747701.451 8  85517795.19146  20884271.484                    20884278.172
 11  8 21  1  9  0.0000000  0  9G29G10G12G17G04G05G30G25G02
 129195086.146 6 100671544.941 6  24585013.281                    24585025.969
 113205692.137 7  88212349.84745  21542302.141                    21542311.605
 109112290.429 8  85022637.632 8  20763377.891                    20763386.645
 128202285.410 6  99897967.614 6  24396081.852                    24396093.418
 122578894.352 6  95516141.28743  23325979.102                    23325988.367
 108174904.516 8  84292224.513 8  20584979.125                    20584988.523
 116742829.996 7  90968517.81345  22215421.555                    22215431.895
 117953278.217 7  91911697.993 7  22445762.430                    22445774.570
 109771224.896 8  85536125.14346  20888747.352                    20888754.148
 11  8 21  1  9 30.0000000  0  9G29G10G12G17G04G05G30G25G02
 129115222.256 7 100609313.544 6  24569815.211                    24569828.012
 113268653.041 7  88261410.27445  21554283.500                    21554292.695
 109106416.967 8  85018060.932 7  20762260.109                    20762268.355
 128272968.753 6  99953045.575 6  24409532.516                    24409543.742
 122660626.411 6  95579828.64743  23341532.008                    23341541.809
 108131525.228 8  84258422.512 8  20576724.438                    20576733.793
 116684849.055 7  90923337.91745  22204387.984                    22204398.020
 117885913.187 7  91859205.813 7  22432943.078                    22432955.469
 109794912.103 8  85554582.71846  20893254.781                    20893261.660
 11  8 21  1 10  0.0000000  0  9G29G10G12G17G04G05G30G25G02
 129035281.469 7 100547022.254 6  24554603.672                    24554616.141
 113332115.798 7  88310861.75645  21566360.039                    21566369.227
 109101125.794 8  85013937.961 7  20761253.391                    20761261.715
 128343840.875 6 100008270.665 6  24423019.125                    24423030.090
 122742337.907 6  95643499.93343  23357080.648                    23357091.504
 108088689.090 8  84225043.752 8  20568572.813                    20568582.117
 116627390.806 7  90878565.29745  22193454.031                    22193463.984
 117818990.319 7  91807058.178 7  22420207.984                    22420220.340
 109818762.623 8  85573167.55346  20897793.508                    20897800.617
 11  8 21  1 10 30.0000000  0  9G29G10G12G17G04G05G30G25G02
 128955264.061 7 100484671.253 6  24539376.695                    24539388.863
 113396077.693 7  88360702.17245  21578531.617                    21578541.004
 109096416.789 8  85010268.637 7  20760357.141                    20760365.840
 128414901.746 6 100063642.846 6  24436541.680                    24436552.031
 122824027.549 6  95707154.21344  23372625.898                    23372637.395
 108046397.221 8  84192089.090 8  20560525.383                    20560534.320
 116570456.774 7  90834201.14945  22182619.664                    22182629.941
 117752511.346 7  91755256.424 7  22407557.656                    22407569.086
 109842774.913 8  85591878.44046  20902362.836                    20902369.969
 11  8 21  1 11  0.0000000  0  9G29G10G12G17G04G05G30G25G02
 128875170.819 7 100422261.134 6  24524135.422                    24524147.270
 113460536.542 7  88410929.83145  21590797.875                    21590807.191
 109092290.802 8  85007053.616 7  20759571.531                    20759580.359
 128486151.333 6 100119162.062 6  24450100.070                    24450110.559
 122905694.726 6  95770790.96144  23388166.594                    23388178.047
 108004650.789 8  84159559.452 8  20552581.070                    20552589.703
 116514049.216 7  90790247.23645  22171885.844                    22171895.898
 117686478.988 7  91703802.682 7  22394991.898                    22395003.402
 109866948.457 8  85610714.97146  20906963.469                    20906969.906
 11  8 21  1 11 30.0000000  0  9G29G10G12G17G04G05G30G25G02
 128795002.146 7 100359792.226 6  24508880.203                    24508891.383
 113525489.744 8  88461542.71645  21603157.570                    21603167.234
 109088747.844 7  85004292.896 7  20758897.461                    20758906.121
 128557589.364 6 100174828.182 6  24463693.523                    24463704.801
 122987338.567 6  95834409.50844  23403703.508                    23403714.352
 107963451.004 8  84127455.773 8  20544741.117                    20544749.832
 116458169.973 7  90746704.99245  22161252.641                    22161262.266
 117620895.278 7  91652698.519 7  22382511.344                    22382523.406
 109891281.822 8  85629676.04746  20911593.609                    20911599.996
 11  8 21  1 12  0.0000000  0  9G29G10G12G17G04G05G30G25G02
 128714758.594 7 100297264.937 6  24493609.516                    24493622.043
 113590934.750 7  88512538.82545  21615611.484                    21615621.289
 109085787.796 8  85001986.412 7  20758334.281                    20758342.711
 128629215.851 6 100230641.101 6  24477324.125                    24477335.172
 123068958.052 6  95898009.08944  23419235.000                    23419245.613
 107922799.069 8  84095779.001 8  20537005.078                    20537014.207
 116402820.588 7  90703575.62545  22150719.914                    22150729.828
 117555762.170 7  91601945.475 7  22370117.586                    22370129.203
 109915773.788 8  85648760.70246  20916254.445                    20916261.215
 11  8 21  1 12 30.0000000  0  9G29G10G12G17G04G05G30G25G02
 128634440.562 6 100234679.574 6  24478325.867                    24478337.781
 113656869.241 7  88563916.36645  21628158.492                    21628168.309
 109083410.969 8  85000134.376 7  20757881.922                    20757891.059
 128701030.722 6 100286600.791 6  24490989.227                    24491000.320
 123150552.116 6  95961588.85744  23434761.703                    23434772.684
 107882695.949 8  84064529.863 8  20529373.617                    20529382.531
 116348003.051 7  90660860.69045  22140288.352                    22140298.098
 117491081.921 7  91551545.306 7  22357809.391                    22357821.020
 109940423.301 8  85667968.11946  20920944.773                    20920951.473
 11  8 21  1 13  0.0000000  0  9G29G10G12G17G04G05G30G25G02
 128554049.829 6 100172037.524 6  24463027.797                    24463039.891
 113723291.688 7  88615674.11945  21640798.305                    21640807.910
 109081618.606 7  84998737.773 7  20757540.930                    20757549.961
 128773034.238 6 100342707.504 6  24504691.734                    24504702.172
 123232120.936 6  96025148.97043  23450283.117                    23450294.457
 107843143.922 8  84033710.164 8  20521846.992                    20521856.273
 116293720.150 7  90618562.34645  22129958.523                    22129968.254
 117426857.706 7  91501500.491 7  22345587.680                    22345599.551
 109965230.375 8  85687298.31146  20925665.641                    20925672.551
 11  8 21  1 13 30.0000000  0  8G29G10G12G04G05G30G25G02
 128473587.634 5 100109339.788 6  24447715.672                    24447727.832
 113790200.434 7  88667810.81045  21653530.445                    21653540.406
 109080411.418 8  84997797.146 7  20757311.180                    20757319.805
 123313664.219 6  96088689.15944  23465800.813                    23465812.008
 107804144.510 8  84003321.072 8  20514425.734                    20514434.496
 116239974.417 7  90576682.58145  22119730.898                    22119740.738
 117363092.346 7  91451813.233 7  22333453.539                    22333465.613
 109990194.698 8  85706751.04346  20930416.047                    20930423.176
 11  8 21  1 14  0.0000000  0  8G29G10G12G04G05G30G25G02
 128393053.328 6 100046585.835 6  24432390.750                    24432402.555
 113857591.554 7  88720323.37045  21666354.992                    21666364.547
 109079788.494 7  84997311.793 7  20757192.617                    20757201.262
 123395180.026 6  96152207.93744  23481313.242                    23481323.555
 107765697.788 8  83973362.637 8  20507109.125                    20507118.367
 116186766.447 7  90535221.86845  22109605.594                    22109615.668
 117299786.789 7  91402484.260 7  22321406.500                    22321418.598
 110015314.134 8  85726324.64346  20935195.914                    20935203.047
 11  8 21  1 14 30.0000000  0  8G29G10G12G04G05G30G25G02
 128312446.755 6  99983775.521 5  24417051.594                    24417063.859
 113925461.551 8  88773209.08445  21679270.250                    21679279.656
 109079748.992 7  84997281.049 7  20757185.000                    20757193.406
 123476666.560 6  96215703.90444  23496820.320                    23496830.250
 107727804.164 8  83943835.201 8  20499898.656                    20499907.539
 116134097.169 7  90494180.90845  22099583.297                    22099592.477
 117236942.393 7  91353514.639 7  22309448.156                    22309459.633
 110040586.593 8  85746017.47946  20940005.227                    20940012.109
 11  8 21  1 15  0.0000000  0  8G29G10G12G04G05G30G25G02
 128231768.462 5  99920909.290 5  24401699.844                    24401711.367
 113993807.975 8  88826466.04745  21692275.773                    21692285.484
 109080292.893 8  84997704.904 7  20757288.695                    20757297.035
 123558123.288 6  96279176.67344  23512319.961                    23512330.461
 107690464.835 8  83914739.670 8  20492793.445                    20492802.328
 116081968.288 7  90453561.03945  22089663.344                    22089672.980
 117174561.159 7  91304905.927 7  22297577.242                    22297588.992
 110066011.007 8  85765828.72246  20944843.359                    20944849.871
 11  8 21  1 15 30.0000000  0  8G29G10G12G04G05G30G25G02
 128151020.64215  99857988.84214  24386332.797
 114062629.725 7  88880093.38445  21705372.320                    21705381.863
 109081421.740 8  84998584.554 7  20757503.336                    20757511.961
 123639550.044 6  96342626.07744  23527814.828                    23527825.590
 107653681.365 8  83886077.283 8  20485793.141                    20485802.598
 116030382.779 7  90413364.56445  22079847.070                    22079856.520
 117112646.542 7  91256660.808 7  22285795.109                    22285806.578
 110091587.906 8  85785758.77846  20949710.211                    20949717.375
 11  8 21  1 16  0.0000000  0  8G29G10G12G04G05G30G25G02
 128070203.221 6  99795014.123 5  24370954.727
 114131923.565 8  88934088.57345  21718558.773                    21718567.836
 109083134.705 8  84999919.363 7  20757829.359                    20757838.211
 123720945.865 7  96406051.33644  23543304.227                    23543315.070
 107617454.588 8  83857848.674 8  20478899.539                    20478908.648
 115979341.728 7  90373592.36245  22070134.039                    22070143.891
 117051199.985 7  91208780.413 7  22274102.406                    22274113.691
 110117315.530 7  85805806.28846  20954606.422                    20954613.184
 11  8 21  1 16 30.0000000  0  8G29G10G12G04G05G30G25G02
 127989316.748 6  99731985.630 5  24355563.156                    24355574.203
 114201686.754 7  88988449.51045  21731833.813                    21731843.012
 109085431.736 8  85001709.283 7  20758266.844                    20758275.289
 123802309.477 7  96469451.55243  23558786.773                    23558797.859
 107581785.307 8  83830054.483 8  20472111.922                    20472121.020
 115928846.592 7  90334245.54145  22060525.406                    22060534.934
 116990223.227 7  91161266.097 7  22262498.633                    22262510.020
 110143192.605 8  85825970.25846  20959530.359                    20959537.426
 11  8 21  1 17  0.0000000  0  8G29G10G12G04G05G30G25G02
 127908361.664 6  99668903.734 5  24340157.750                    24340168.523
 114271916.401 7  89043173.92745  21745198.078                    21745207.301
 109088312.326 8  85003953.916 7  20758814.508                    20758823.328
 123883640.124 7  96532826.09044  23574264.125                    23574274.770
 107546674.048 8  83802695.100 8  20465430.547                    20465439.395
 115878898.877 7  90295325.26345  22051020.344                    22051030.133
 116929718.284 8  91114119.432 7  22250984.930                    22250996.375
 110169217.872 8  85846249.71446  20964482.938                    20964489.785
 11  8 21  1 17 30.0000000  0  8G29G10G12G04G05G30G25G02
 127827338.806 6  99605769.074 6  24324738.938                    24324750.672
 114342609.964 7  89098259.83945  21758651.000                    21758659.820
 109091776.532 7  85006653.309 8  20759473.844                    20759482.500
 123964936.881 7  96596174.21043  23589734.547                    23589744.777
 107512122.003 8  83775771.471 8  20458855.531                    20458864.074
 115829500.298 7  90256832.87245  22041620.219                    22041630.246
 116869687.164 8  91067341.972 7  22239561.289                    22239573.238
 110195390.405 8  85866643.91046  20969463.227                    20969470.641
 11  8 21  1 18  0.0000000  0  8G29G10G12G04G05G30G25G02
 127746249.174 6  99542582.432 6  24309309.195                    24309320.688
 114413765.341 7  89153705.60645  21772191.328                    21772200.234
 109095824.725 8  85009807.761 7  20760244.086                    20760252.809
 124046199.384 7  96659495.59943  23605198.578                    23605208.680
 107478130.527 8  83749284.655 8  20452386.789                    20452395.633
 115780652.817 7  90218769.91245  22032324.875                    22032335.047
 116810132.325 8  91020935.633 7  22228228.141                    22228240.742
 110221709.709 8  85887152.46546  20974472.086                    20974478.727
 11  8 21  1 18 30.0000000  0  8G29G10G12G04G05G30G25G02
 127665093.719 6  99479344.553 6  24293864.766                    24293876.734
 114485380.033 7  89209509.27645  21785819.055                    21785827.969
 109100457.144 8  85013417.444 7  20761125.734                    20761134.387
 124127426.970 7  96722789.80643  23620655.781                    23620665.363
 107444700.519 8  83723235.337 8  20446025.023                    20446034.027
 115732358.297 8  90181137.82245  22023134.992                    22023144.266
 116751055.939 7  90974902.107 7  22216986.383                    22216998.406
 110248175.058 8  85907774.82146  20979508.297                    20979514.609
 11  8 21  1 19  0.0000000  0  8G29G10G12G04G05G30G25G02
 127583873.362 6  99416056.113 6  24278408.773                    24278420.438
 114557451.469 7  89265668.82645  21799533.820                    21799542.785
 109105673.701 8  85017482.289 7  20762118.180                    20762126.773
 124208619.036 7  96786056.32644  23636105.992                    23636115.355
 107411833.197 8  83697624.479 8  20439770.844                    20439779.820
 115684618.521 8  90143938.00045  22014050.539                    22014060.051
 116692460.262 8  90929243.167 7  22205836.273                    22205847.852
 110274785.727 8  85928510.40946  20984572.297                    20984578.996
 11  8 21  1 19 30.0000000  0  8G29G10G12G04G05G30G25G02
 127502588.341 6  99352717.298 6  24262940.336                    24262952.879
 114629976.805 7  89322182.08245  21813334.875                    21813344.160
 109111473.881 8  85022001.906 7  20763222.086                    20763230.848
 124289774.785 7  96849294.59743  23651548.422                    23651559.063
 107379528.937 8  83672452.359 8  20433623.352                    20433632.449
 115637434.651 8  90107171.36245  22005071.164                    22005081.070
 116634346.890 7  90883960.045 7  22194777.383                    22194789.359
 110301540.293 8  85949358.12646  20989663.008                    20989669.832
 11  8 21  1 20  0.0000000  0  8G29G10G12G04G05G30G25G02
 127421239.784 6  99289328.988 6  24247460.266                    24247472.375
 114702953.491 7  89379047.02745  21827221.703                    21827230.996
 109117857.554 8  85026976.201 8  20764436.594                    20764445.422
 124370893.412 7  96912503.87043  23666985.234                    23666994.848
 107347788.849 7  83647719.852 8  20427583.688                    20427592.789
 115590808.414 8  90070839.25345  21996198.625                    21996208.527
 116576717.952 8  90839054.399 7  22183810.875                    22183822.637
 110328437.933 8  85970317.33846  20994781.445                    20994788.090
 11  8 21  1 20 30.0000000  0  8G29G10G12G04G05G30G25G02
 127339828.207 6  99225891.578 6  24231968.250                    24231979.910
 114776378.813 7  89436261.54645  21841194.203                    21841203.297
 109124825.052 8  85032405.412 7  20765762.813                    20765771.305
 124451974.176 6  96975683.66343  23682414.258                    23682424.539
 107316613.529 8  83623427.435 8  20421650.813                    20421659.770
 115544741.362 7  90034942.87245  21987431.820                    21987442.469
 116519575.380 8  90794527.747 7  22172937.023                    22172948.910
 110355477.662 8  85991387.25846  20999926.633                    20999933.871
 11  8 21  1 21  0.0000000  0  8G29G10G12G04G05G30G25G02
 127258354.851 6  99162406.004 6  24216464.406                    24216475.605
 114850250.776 7  89493824.09745  21855251.383                    21855261.004
 109132375.677 8  85038288.998 7  20767199.602                    20767207.898
 124533016.794 6  97038833.76643  23697835.445                    23697846.836
 107286004.282 8  83599576.100 8  20415826.063                    20415834.980
 115499235.393 8  89999483.70845  21978773.055                    21978783.059
 116462921.586 8  90750381.961 7  22162156.438                    22162168.430
 110382659.137 8  86012567.64046  21005099.133                    21005106.402
 11  8 21  1 21 30.0000000  0  8G29G10G12G04G05G30G25G02
 127176819.681 6  99098872.247 6  24200947.602                    24200960.227
 114924565.880 7  89551731.96845  21869393.344                    21869402.613
 109140508.993 8  85044626.639 7  20768747.367                    20768755.930
 124614019.976 6  97101953.12643  23713250.031                    23713261.426
 107255961.386 8  83576166.088 8  20410109.313                    20410118.066
 115454291.280 7  89964462.37545  21970220.195                    21970230.086
 116406757.810 8  90706618.007 7  22151468.617                    22151480.398
 110409980.583 8  86033857.08746  21010298.320                    21010305.434
 11  8 21  1 22  0.0000000  0  8G29G10G12G04G05G30G25G02
 127095224.448 6  99035291.685 6  24185421.328                    24185433.141
 114999322.075 7  89609983.53745  21883619.141                    21883628.336
 109149225.670 8  85051418.845 7  20770406.078                    20770414.652
 124694983.677 6  97165041.72343  23728657.117                    23728668.805
 107226485.551 8  83553197.940 8  20404500.328                    20404509.008
 115409911.106 7  89929880.47145  21961774.656                    21961784.563
 116351086.563 8  90663237.854 7  22140874.734                    22140886.285
 110437441.865 8  86055255.48846  21015524.273                    21015531.156
 11  8 21  1 22 30.0000000  0  8G29G10G12G04G05G30G25G02
 127013569.819 6  98971664.797 6  24169883.086                    24169894.766
 115074516.251 7  89668576.39745  21897927.750                    21897937.113
 109158524.586 8  85058664.740 7  20772175.594                    20772184.176
 124775906.772 6  97228098.66243  23744056.688                    23744067.883
 107197577.687 8  83530672.371 8  20398999.156                    20399008.059
 115366096.192 7  89895739.04245  21953437.188                    21953447.172
 116295909.640 7  90620242.904 7  22130374.703                    22130386.523
 110465041.726 8  86076761.88046  21020776.609                    21020783.191
 11  8 21  1 23  0.0000000  0  8G29G10G12G04G05G30G25G02
 126931855.240 6  98907991.213 6  24154333.414                    24154344.852
 115150145.263 7  89727508.12345  21912319.133                    21912329.234
 109168404.654 8  85066363.490 7  20774055.586                    20774064.594
 124856788.019 7  97291123.00743  23759447.734                    23759458.672
 107169237.572 7  83508589.205 8  20393606.219                    20393615.176
 115322847.103 7  89862038.52045  21945207.172                    21945216.805
 116241227.988 7  90577633.874 7  22119969.555                    22119980.980
 110492777.946 8  86098374.53446  21026054.250                    21026061.234
 11  8 21  1 23 30.0000000  0  8G29G10G12G04G05G30G25G02
 126850082.797 6  98844272.526 6  24138772.578                    24138783.285
 115226207.167 7  89786777.13845  21926793.500                    21926803.406
 109178866.660 8  85074515.711 7  20776046.359                    20776055.176
 124937627.432 7  97354114.75443  23774830.977                    23774842.098
 107141466.626 8  83486949.540 8  20388321.758                    20388330.539
 115280165.884 7  89828780.49545  21937085.078                    21937095.219
 116187044.301 8  90535412.885 7  22109658.336                    22109670.000
 110520650.995 8  86120093.81146  21031358.398                    21031365.168
 11  8 21  1 24  0.0000000  0  8G29G10G12G04G05G30G25G02
 126768253.269 6  98780509.314 6  24123200.711                    24123211.004
 115302699.252 7  89846381.38545  21941349.781                    21941359.527
 109189910.050 8  85083120.947 7  20778148.281                    20778156.355
 125018424.497 7  97417073.49343  23790206.641                    23790217.152
 107114265.784 8  83465754.116 8  20383145.695                    20383154.098
 115238054.183 7  89795966.25245  21929071.297                    21929081.176
 116133360.532 8  90493581.424 7  22099442.656                    22099454.250
 110548660.134 8  86141919.12346  21036688.344                    21036695.172
 11  8 21  1 24 30.0000000  0  8G29G10G12G04G05G30G25G02
 126686367.820 6  98716702.565 6  24107618.805                    24107629.520
 115379619.177 7  89906319.01045  21955986.875                    21955996.242
 109201534.662 8  85092179.093 7  20780360.281                    20780368.672
 125099178.620 6  97479998.80543  23805573.672                    23805583.344
 107087635.770 8  83445003.493 8  20378078.023                    20378086.676
 115196513.372 7  89763596.85645  21921166.344                    21921176.004
 116080178.747 8  90452141.126 7  22089322.398                    22089333.867
 110576804.733 8  86163849.99846  21042043.922                    21042050.531
 11  8 21  1 25  0.0000000  0  8G29G10G12G04G05G30G25G02
 126604426.369 6  98652852.172 6  24092024.891                    24092036.066
 115456963.351 7  89966587.19945  21970705.078                    21970714.207
 109213739.682 8  85101689.514 7  20782682.633                    20782690.836
 125179888.815 7  97542889.89643  23820932.219                    23820941.637
 107061576.487 8  83424697.592 8  20373119.055                    20373127.797
 115155544.357 7  89731673.02145  21913370.250                    21913380.074
 116027500.139 8  90411092.921 7  22079298.195                    22079309.496
 110605082.976 8  86185885.01346  21047425.609                    21047432.137
 11  8 21  1 25 30.0000000  0  8G29G10G12G04G05G30G25G02
 126522430.888 6  98588959.731 6  24076421.734                    24076433.637
 115534729.832 7  90027184.46745  21985503.984                    21985512.867
 109226524.764 8  85111651.929 7  20785115.320                    20785124.191
 125260555.047 7  97605746.69843  23836282.016                    23836291.969
 107036089.399 8  83404837.562 8  20368268.953                    20368277.531
 115115149.193 7  89700196.32645  21905683.234                    21905692.816
 115975327.360 8  90370438.877 7  22069369.453                    22069381.613
 110633495.133 8  86208024.36946  21052832.008                    21052838.359
 11  8 21  1 26  0.0000000  0  8G29G10G12G04G05G30G25G02
 126440381.564 6  98525025.303 6  24060808.000                    24060819.887
 115612915.236 7  90088108.17045  22000381.570                    22000391.227
 109239889.285 8  85122065.852 7  20787658.578                    20787667.031
 125341176.092 6  97668568.32843  23851623.922                    23851634.410
 107011173.852 8  83385422.878 8  20363527.484                    20363536.398
 115075328.287 7  89669167.10645  21898105.219                    21898115.098
 115923661.260 8  90330179.637 7  22059538.102                    22059549.992
 110662039.217 8  86230266.52746  21058263.609                    21058270.469
 11  8 21  1 26 30.0000000  0  8G29G10G12G04G05G30G25G02
 126358279.569 6  98461049.801 5  24045184.867                    24045195.363
 115691516.837 7  90149356.17845  22015338.648                    22015348.750
 109253833.114 8  85132931.198 7  20790311.930                    20790320.598
 125421751.418 6  97731354.29143  23866956.914                    23866967.191
 106986830.916 8  83366454.387 8  20358895.352                    20358904.281
 115036083.175 7  89638586.54545  21890637.609                    21890646.598
 115872503.946 8  90290316.854 7  22049803.320                    22049814.617
 110690714.839 8  86252611.18146  21063720.156                    21063726.918
 11  8 21  1 27  0.0000000  0  8G29G10G12G04G05G30G25G02
 126276125.454 6  98397033.693 5  24029550.930                    24029561.734
 115770532.075 7  90210926.49945  22030374.922                    22030384.609
 109268355.009 8  85144246.972 7  20793075.547                    20793084.102
 125502280.703 6  97794104.36143  23882280.898                    23882291.590
 106963061.047 8  83347932.449 8  20354372.344                    20354380.691
 114997415.205 8  89608455.69145  21883279.453                    21883288.727
 115821857.288 8  90250851.970 7  22040165.305                    22040176.559
 110719521.056 8  86275057.59146  21069201.930                    21069208.969
 11  8 21  1 27 30.0000000  0  8G29G10G12G04G05G30G25G02
 126193920.450 6  98332977.880 5  24013908.719                    24013918.313
 115849958.166 7  90272816.95145  22045489.023                    22045499.457
 109283455.352 8  85156013.502 7  20795949.195                    20795957.953
 125582763.065 6  97856817.88843  23897596.328                    23897607.270
 106939864.761 8  83329857.455 8  20349957.930                    20349966.438
 114959325.483 8  89578775.41645  21876031.047                    21876040.504
 115771722.766 8  90211786.145 7  22030625.195                    22030636.266
 110748457.065 8  86297605.13846  21074708.703                    21074715.090
 11  8 21  1 28  0.0000000  0  8G29G10G12G04G05G30G25G02
 126111665.172 7  98268882.951 6  23998255.352                    23998266.789
 115929791.997 7  90335025.12845  22060681.117                    22060691.113
 109299132.448 8  85168229.449 7  20798932.281                    20798940.625
 125663197.920 6  97919494.39743  23912902.195                    23912913.559
 106917242.218 8  83312229.530 8  20345652.992                    20345661.648
 114921814.816 7  89549546.35145  21868892.516                    21868902.418
 115722101.959 8  90173120.612 7  22021182.734                    22021193.613
 110777521.593 8  86320252.82046  21080239.430                    21080246.254
 11  8 21  1 28 30.0000000  0  8G29G10G12G04G05G30G25G02
 126029360.697 6  98204749.681 6  23982593.664                    23982605.422
 116010031.219 7  90397549.18445  22075950.523                    22075959.840
 109315386.313 8  85180894.812 7  20802025.305                    20802033.832
 125743584.946 6  97982133.61843  23928198.734                    23928210.527
 106895193.979 8  83295049.121 8  20341457.516                    20341465.613
 114884884.823 7  89520769.75045  21861864.961                    21861874.836
 115672996.839 8  90134856.910 7  22011837.914                    22011849.133
 110806714.231 8  86343000.33646  21085794.492                    21085801.145
 11  8 21  1 29  0.0000000  0  8G29G10G12G04G05G30G25G02
 125947008.308 7  98140579.070 6  23966922.789                    23966933.348
 116090673.343 7  90460387.21545  22091296.414                    22091304.988
 109332216.298 8  85194009.103 7  20805227.828                    20805236.488
 125823923.604 6  98044735.13843  23943487.922                    23943497.809
 106873720.677 8  83278316.709 8  20337370.922                    20337379.578
 114848536.844 8  89492446.66145  21854948.445                    21854958.531
 115624409.279 8  90096996.497 7  22002591.836                    22002603.578
 110836034.375 8  86365847.20646  21091373.797                    21091380.586
 11  8 21  1 29 30.0000000  0  8G29G10G12G04G05G30G25G02
 125864608.806 6  98076371.715 6  23951242.219                    23951252.598
 116171715.116 7  90523536.65245  22106718.148                    22106727.594
 109349621.351 8  85207571.511 7  20808539.938                    20808548.227
 125904213.099 6  98107298.36443  23958765.938                    23958776.977
 106852822.433 8  83262032.393 8  20333394.055                    20333402.922
 114812771.398 8  89464577.49945  21848142.141                    21848152.359
 115576340.493 8  90059540.319 7  21993444.664                    21993456.680
 110865480.696 8  86388792.39846  21096976.898                    21096983.617
 11  8 21  1 30  0.0000000  0  8G29G10G12G04G05G30G25G02
 125782163.310 6  98012128.543 6  23935553.375                    23935564.359
 116253154.104 7  90586995.61145  22122215.266                    22122224.246
 109367601.704 8  85221582.188 7  20811961.547                    20811969.891
 125984453.104 6  98169823.02443  23974034.992                    23974045.789
 106832499.827 8  83246196.623 8  20329526.945                    20329535.840
 114777590.245 7  89437163.62745  21841447.680                    21841457.668
 115528792.631 8  90022490.047 7  21984396.508                    21984408.734
 110895053.070 8  86411835.80846  21102604.445                    21102611.352
 11  8 21  1 30 30.0000000  0  8G29G10G12G04G05G30G25G02
 125699672.284 6  97947849.908 6  23919855.008                    23919866.238
 116334986.950 7  90650761.47545  22137786.813                    22137796.762
 109386156.142 8  85236040.198 7  20815492.172                    20815500.504
 126064642.990 6  98232308.56843  23989295.398                    23989306.242
 106812752.961 8  83230809.489 8  20325769.430                    20325777.434
 114742994.027 8  89410205.53745  21834864.289                    21834874.102
 115481766.908 8  89985846.634 7  21975448.445                    21975460.047
 110924750.179 8  86434976.40546  21108255.844                    21108262.238
 11  8 21  1 31  0.0000000  0  8G29G10G12G04G05G30G25G02
 125617137.050 6  97883536.859 6  23904149.547                    23904160.484
 116417211.031 7  90714832.18644  22153433.781                    22153443.359
 109405283.791 8  85250944.877 7  20819132.234                    20819139.824
 126144782.303 6  98294754.75243  24004545.883                    24004556.160
 106793581.787 8  83215870.946 8  20322120.930                    20322130.023
 114708983.918 8  89383704.15045  21828392.500                    21828402.172
 115435265.142 8  89949611.505 7  21966599.000                    21966610.508
 110954571.259 8  86458213.61046  21113930.508                    21113937.223
 11  8 21  1 31 30.0000000  0  8G29G10G12G04G05G30G25G02
 125534558.693 7  97819190.182 6  23888434.891                    23888446.531
 116499823.776 7  90779205.72745  22169154.469                    22169164.336
 109424983.909 8  85266295.629 7  20822881.203                    20822889.004
 126224870.892 6  98357161.42343  24019785.383                    24019796.504
 106774987.172 8  83201381.667 8  20318582.500                    20318591.172
 114675561.134 7  89357660.43945  21822032.672                    21822041.906
 115389289.065 8  89913786.004 7  21957850.180                    21957861.422
 110984515.983 8  86481547.14546  21119629.016                    21119635.813
 11  8 21  1 32  0.0000000  0  8G29G10G12G04G05G30G25G02
 125451938.544 6  97754810.983 6  23872713.328                    23872724.219
 116582822.728 7  90843880.20945  22184948.938                    22184958.848
 109445256.021 8  85282092.097 7  20826738.563                    20826746.863
 126304908.212 6  98419528.14343  24035015.766                    24035026.949
 106756969.639 8  83187342.066 8  20315153.977                    20315162.438
 114642726.855 7  89332075.29745  21815783.992                    21815793.578
 115343840.442 8  89878371.499 7  21949201.719                    21949212.980
 111014583.820 8  86504976.62046  21125350.656                    21125357.594
 11  8 21  1 32 30.0000000  0  8G29G10G12G04G05G30G25G02
 125369276.577 6  97690399.207 6  23856982.977                    23856993.715
 116666203.948 7  90908852.56945  22200816.148                    22200825.613
 109466098.781 8  85298333.225 7  20830704.594                    20830713.004
 126384892.978 6  98481853.93243  24050236.195                    24050247.164
 106739528.330 8  83173751.463 8  20311834.727                    20311843.449
 114610481.113 7  89306948.76945  21809647.984                    21809657.652
 115298919.902 8  89843368.500 7  21940653.484                    21940665.492
 111044772.589 8  86528500.34146  21131095.516                    21131102.133
 11  8 21  1 33  0.0000000  0  8G29G10G12G04G05G30G25G02
 125286574.606 6  97625956.281 6  23841244.922                    23841255.984
 116749965.138 7  90974121.02845  22216754.977                    22216764.723
 109487511.404 8  85315018.393 7  20834779.250                    20834787.934
 126464825.355 6  98544138.89943  24065446.617                    24065458.152
 106722663.687 8  83160610.218 8  20308625.703                    20308634.207
 114578825.337 7  89282281.95845  21803623.625                    21803633.492
 115254529.393 8  89808778.525 7  21932205.914                    21932218.109
 111075082.346 7  86552118.34846  21136862.719                    21136869.938
 11  8 21  1 33 30.0000000  0  8G29G10G12G04G05G30G25G02
 125203833.444 6  97561482.818 6  23825499.430                    23825510.770
 116834103.604 7  91039683.46645  22232766.055                    22232776.109
 109509492.903 8  85332146.840 7  20838962.070                    20838970.695
 126544704.607 6  98606382.43943  24080647.656                    24080658.863
 106706376.010 8  83147918.551 8  20305526.219                    20305534.770
 114547760.326 7  89258075.48845  21797712.148                    21797722.035
 115210670.413 8  89774602.730 7  21923860.109                    21923871.785
 111105512.149 7  86575829.91446  21142653.461                    21142660.492
 11  8 21  1 34  0.0000000  0  8G29G10G12G04G05G30G25G02
 125121054.098 7  97496979.583 6  23809747.742                    23809758.219
 116918616.409 7  91105537.60945  22248848.250                    22248857.426
 109532042.604 8  85349718.036 7  20843253.516                    20843261.621
 126624530.345 6  98668584.28043  24095838.508                    24095849.027
 106690665.581 8  83135676.687 8  20302536.797                    20302545.328
 114517287.004 7  89234330.07345  21791913.547                    21791923.129
 115167344.403 8  89740842.241 7  21915615.305                    21915626.746
 111136061.286 8  86599634.46846  21148466.836                    21148473.797
 11  8 21  1 34 30.0000000  0  8G29G10G12G04G05G30G25G02
 125038237.788 7  97432447.578 6  23793988.203                    23793998.773
 117003500.866 7  91171681.33044  22265001.383                    22265010.805
 109555159.813 8  85367731.461 7  20847652.250                    20847660.887
 126704302.228 6  98730744.23143  24111017.969                    24111028.480
 106675532.562 8  83123884.758 8  20299656.906                    20299665.258
 114487406.445 8  89211046.53645  21786227.109                    21786237.227
 115124553.051 8  89707498.374 7  21907472.430                    21907483.777
 111166729.263 8  86623531.62346  21154302.961                    21154309.992
 11  8 21  1 35  0.0000000  0  8G29G10G12G04G05G30G25G02
 124955385.241 7  97367887.331 6  23778221.711                    23778232.500
 117088753.745 7  91238112.12944  22281224.734                    22281233.449
 109578843.095 8  85386185.971 7  20852159.070                    20852167.480
 126784019.526 6  98792861.61643  24126187.445                    24126197.766
 106660976.354 8  83112542.294 8  20296886.922                    20296895.379
 114458118.955 8  89188225.12345  21780653.938                    21780663.969
 115082297.314 8  89674571.858 7  21899431.195                    21899442.816
 111197514.770 8  86647520.34646  21160161.125                    21160168.168
 11  8 21  1 35 30.0000000  0  8G29G10G12G04G05G30G25G02
 124872497.948 7  97303299.994 6  23762448.406                    23762459.234
 117174372.605 7  91304828.11844  22297517.328                    22297526.801
 109603091.956 8  85405081.190 7  20856773.680                    20856781.750
 126863682.201 6  98854936.43142  24141347.078                    24141357.035
 106646997.502 8  83101649.718 8  20294226.734                    20294235.055
 114429425.811 7  89165866.85545  21775194.070                    21775203.316
 115040579.028 8  89642064.139 7  21891492.594                    21891504.156
 111228417.703 8  86671600.57446  21166041.891                    21166048.449
 11  8 21  1 36  0.0000000  0  8G29G10G12G04G05G30G25G02
 124789577.079 7  97238686.462 6  23746669.148                    23746679.336
 117260354.459 7  91371826.94244  22313878.711                    22313888.914
 109627905.405 8  85424416.355 7  20861495.719                    20861504.512
 126943289.790 6  98916968.35243  24156496.320                    24156505.871
 106633596.436 8  83091207.358 8  20291676.797                    20291684.992
 114401327.946 7  89143972.43645  21769847.359                    21769856.793
 114999399.755 8  89609976.432 7  21883656.336                    21883667.859
 111259437.487 8  86695771.85346  21171944.195                    21171950.934
 11  8 21  1 36 30.0000000  0  8G29G10G12G04G05G30G25G02
 124706623.301 7  97174047.291 6  23730883.641                    23730894.039
 117346696.333 7  91439106.30144  22330309.172                    22330319.238
 109653282.145 8  85444190.443 7  20866324.453                    20866333.184
 127022841.859 6  98978957.01843  24171634.281                    24171644.168
 106620772.967 8  83081215.081 8  20289236.328                    20289244.652
 114373825.892 7  89122542.29245  21764613.914                    21764623.422
 114958760.604 8  89578309.598 7  21875923.164                    21875934.297
 111290572.889 8  86720033.22846  21177869.219                    21177876.469
 11  8 21  1 37  0.0000000  0  8G29G10G12G04G05G30G25G02
 124623637.826 7  97109383.430 6  23715091.305                    23715101.660
 117433395.305 7  91506663.92144  22346807.148                    22346817.512
 109679220.916 8  85464402.477 7  20871260.516                    20871268.637
 127102337.673 6  99040901.77643  24186762.352                    24186772.391
 106608526.451 8  83071672.373 8  20286905.664                    20286914.289
 114346920.194 7  89101576.84145  21759493.836                    21759503.320
 114918662.706 7  89547064.519 7  21868292.320                    21868303.930
 111321822.996 8  86744383.97346  21183816.422                    21183823.039
 11  8 21  1 37 30.0000000  0  8G29G10G12G04G05G30G25G02
 124540621.962 7  97044695.853 6  23699294.383                    23699305.066
 117520448.742 7  91574497.74445  22363373.523                    22363383.086
 109705721.134 8  85485051.997 7  20876302.953                    20876311.824
 127181777.101 6  99102802.62743  24201878.875                    24201889.449
 106596857.269 8  83062579.535 8  20284685.211                    20284694.020
 114320611.710 7  89081076.75245  21754487.367                    21754496.805
 114879107.681 8  89516242.457 7  21860765.461                    21860776.742
 111353187.696 7  86768824.03146  21189784.430                    21189791.125
 11  8 21  1 38  0.0000000  0  8G29G10G12G04G05G30G25G02
 124457576.834 7  96979985.493 6  23683491.156                    23683501.488
 117607853.641 7  91642605.44445  22380006.063                    22380015.969
 109732781.575 8  85506138.054 7  20881452.680                    20881461.359
 127261159.675 6  99164659.18443  24216985.094                    24216995.469
 106585765.364 8  83053936.512 8  20282574.602                    20282583.340
 114294901.136 8  89061042.56945  21749595.156                    21749604.930
 114840096.784 8  89485844.388 7  21853341.578                    21853353.074
 111384666.022 8  86793352.61146  21195774.523                    21195781.613
 11  8 21  1 38 30.0000000  0  9G29G10G12G26G04G05G30G25G02
 124374503.521 7  96915253.150 6  23667682.828                    23667693.453
 117695607.399 7  91710984.97245  22396705.242                    22396714.504
 109760401.126 8  85527659.773 7  20886708.758                    20886717.266
 130573770.10616 101745876.91553  24847372.867                    24847383.637
 127340485.107 6  99226471.23243  24232080.367                    24232091.426
 106575250.659 8  83045743.260 8  20280573.883                    20280582.320
 114269789.233 7  89041474.88845  21744816.344                    21744826.012
 114801631.410 8  89455871.406 7  21846021.984                    21846033.180
 111416257.415 8  86817969.29646  21201786.453                    21201793.238
 11  8 21  1 39  0.0000000  0  9G29G10G12G26G04G05G30G25G02
 124291402.936 7  96850499.545 6  23651868.922                    23651879.855
 117783706.743 7  91779633.80945  22413470.047                    22413478.848
 109788578.364 8  85549616.060 7  20892070.445                    20892079.313
 130482233.915 6 101674550.16643  24829952.883                    24829965.094
 127419752.685 6  99288238.14643  24247163.898                    24247175.227
 106565312.707 8  83037999.421 8  20278682.227                    20278690.770
 114245276.321 8  89022373.96845  21740151.445                    21740161.137
 114763712.562 8  89426324.278 7  21838806.188                    21838818.070
 111447960.907 8  86842673.33246  21207819.273                    21207825.984
 11  8 21  1 39 30.0000000  0  9G29G10G12G26G04G05G30G25G02
 124208276.387 7  96785725.714 6  23636050.727                    23636060.813
 117872148.862 7  91848549.73444  22430299.391                    22430308.922
 109817312.240 7  85572006.087 7  20897538.453                    20897546.570
 130390557.256 6 101603113.98643  24812508.117                    24812519.891
 127498962.208 6  99349959.85043  24262237.141                    24262248.199
 106555951.086 8  83030704.676 8  20276901.078                    20276909.766
 114221362.912 7  89003740.21245  21735600.820                    21735610.383
 114726341.368 8  89397203.901 7  21831694.867                    21831706.445
 111479775.657 8  86867464.04646  21213873.477                    21213880.332
 11  8 21  1 40  0.0000000  0  9G29G10G12G26G04G05G30G25G02
 124125125.270 7  96720932.712 6  23620227.789                    23620237.254
 117960930.818 7  91917730.45444  22447194.320                    22447203.922
 109846601.579 8  85594828.952 7  20903111.906                    20903120.313
 130298743.523 6 101531571.02443  24795035.273                    24795048.137
 127578113.401 6  99411636.10543  24277299.297                    24277310.754
 106547166.416 8  83023859.496 8  20275229.281                    20275237.887
 114198049.796 8  88985574.20845  21731164.328                    21731174.020
 114689519.348 8  89368511.452 7  21824687.813                    21824699.559
 111511701.583 8  86892341.39146  21219948.898                    21219955.441
 11  8 21  1 40 30.0000000  0  9G29G10G12G26G04G05G30G25G02
 124041950.686 7  96656121.424 6  23604399.344                    23604409.801
 118050050.041 7  91987173.97544  22464152.844                    22464162.930
 109876445.346 8  85618083.836 7  20908791.000                    20908799.367
 130206795.473 6 101459923.32843  24777538.250                    24777550.523
 127657206.079 6  99473266.78943  24292349.742                    24292361.172
 106538958.385 8  83017463.650 8  20273667.664                    20273675.875
 114175337.654 8  88967876.49445  21726842.492                    21726852.148
 114653247.785 8  89340247.929 7  21817785.578                    21817797.473
 111543737.675 8  86917304.57146  21226045.102                    21226051.879
 11  8 21  1 41  0.0000000  0  9G29G10G12G26G04G05G30G25G02
 123958753.887 7  96591292.817 6  23588568.234                    23588578.148
 118139503.665 7  92056878.07844  22481176.102                    22481185.789
 109906842.411 8  85641769.861 7  20914575.203                    20914583.777
 130114715.962 6 101388173.21543  24760016.516                    24760028.352
 127736239.909 6  99534851.59643  24307390.063                    24307400.809
 106531326.756 8  83011516.941 8  20272214.891                    20272223.641
 114153227.040 8  88950647.49745  21722635.117                    21722644.762
 114617527.920 8  89312414.307 7  21810988.563                    21810999.438
 111575883.660 8  86942353.38046  21232162.414                    21232168.828
 11  8 21  1 41 30.0000000  0  9G29G10G12G26G04G05G30G25G02
 123875536.225 7  96526447.966 6  23572731.391                    23572742.445
 118229288.766 7  92126840.46444  22498261.555                    22498271.031
 109937791.415 8  85665885.966 7  20920464.945                    20920473.516
 130022507.691 6 101316322.79343  24742469.477                    24742481.863
 127815214.487 7  99596390.25144  24322417.570                    24322429.141
 106524271.370 8  83006019.257 8  20270872.750                    20270881.090
 114131718.342 7  88933887.50945  21718541.422                    21718550.867
 114582360.822 7  89285011.418 7  21804296.328                    21804307.664
 111608138.906 8  86967487.34446  21238300.180                    21238306.992
 11  8 21  1 42  0.0000000  0  9G29G10G12G26G04G05G30G25G02
 123792298.706 7  96461587.622 6  23556892.016                    23556902.332
 118319402.179 7  92197058.68544  22515410.414                    22515418.793
 109969290.830 8  85690430.969 7  20926459.047                    20926467.371
 129930173.669 6 101244374.35343  24724899.023                    24724911.078
 127894129.505 7  99657882.48043  24337434.586                    24337446.051
 106517791.712 8  83000970.192 8  20269639.906                    20269648.375
 114110811.970 8  88917596.86445  21714563.336                    21714573.059
 114547747.568 8  89258040.102 7  21797709.484                    21797720.859
 111640502.440 8  86992705.68446  21244459.000                    21244465.531
 11  8 21  1 42 30.0000000  0  9G29G10G12G26G04G05G30G25G02
 123709042.463 7  96396712.687 6  23541048.906                    23541059.914
 118409840.918 7  92267530.43245  22532619.820                    22532628.980
 110001339.480 8  85715403.947 7  20932557.703                    20932566.184
 129837716.638 6 101172330.03943  24707305.008                    24707317.207
 127972984.339 7  99719327.81843  24352441.031                    24352451.738
 106511887.257 8  82996369.341 8  20268515.766                    20268524.238
 114090508.222 8  88901775.79245  21710699.570                    21710709.383
 114513689.117 8  89231501.086 7  21791228.305                    21791239.598
 111672973.576 7  87018007.88746  21250637.688                    21250644.484
 11  8 21  1 43  0.0000000  0  9G29G10G12G26G04G05G30G25G02
 123625768.856 7  96331824.222 6  23525203.164                    23525213.289
 118500602.057 7  92338253.40344  22549890.734                    22549899.758
 110033935.947 8  85740803.798 7  20938760.297                    20938769.137
 129745139.120 6 101100191.89843  24689688.281                    24689700.227
 128051778.948 6  99780726.22643  24367434.719                    24367445.652
 106506557.662 8  82992216.439 8  20267501.734                    20267509.949
 114070807.450 8  88886424.56145  21706950.734                    21706960.645
 114480186.537 8  89205395.215 7  21784853.047                    21784864.336
 111705551.693 7  87043393.44046  21256837.094                    21256843.961
 11  8 21  1 43 30.0000000  0  9G29G10G12G26G04G05G30G25G02
 123542479.144 7  96266923.193 6  23509353.234                    23509363.477
 118591683.162 6  92409225.68644  22567222.609                    22567231.781
 110067078.864 8  85766629.452 7  20945067.313                    20945075.926
 129652444.349 6 101027962.32043  24672048.563                    24672060.922
 128130513.053 6  99842077.47743  24382417.352                    24382428.344
 106501802.973 8  82988511.505 8  20266596.930                    20266605.340
 114051710.186 8  88871543.58445  21703316.820                    21703326.676
 114447241.032 8  89179723.430 7  21778583.820                    21778595.215
 111738236.275 8  87068861.96546  21263056.672                    21263063.438
 11  8 21  1 44  0.0000000  0  9G29G10G12G26G04G05G30G25G02
 123459174.485 7  96202010.532 6  23493500.406                    23493511.383
 118683081.159 6  92480444.89444  22584614.383                    22584624.461
 110100766.987 8  85792879.949 7  20951478.273                    20951486.570
 129559635.169 6 100955643.64743  24654387.227                    24654399.309
 128209186.325 6  99903381.30943  24397387.898                    24397398.559
 106497622.846 8  82985254.291 8  20265801.203                    20265810.063
 114033216.816 8  88857133.16945  21699797.820                    21699807.023
 114414853.669 8  89154486.550 7  21772420.391                    21772431.250
 111771026.842 8  87094413.06246  21269296.508                    21269303.539
 11  8 21  1 44 30.0000000  0  9G29G10G12G26G04G05G30G25G02
 123375856.313 7  96137087.372 6  23477645.672                    23477656.348
 118774792.889 7  92551908.55444  22602066.727                    22602076.582
 110134998.577 8  85819553.923 7  20957992.195                    20958000.766
 129466714.311 6 100883237.90743  24636705.281                    24636717.906
 128287798.249 6  99964637.33343  24412347.742                    24412358.266
 106494016.278 7  82982443.998 8  20265115.180                    20265123.750
 114015327.507 8  88843193.45045  21696392.930                    21696402.895
 114383025.253 8  89129685.223 7  21766363.563                    21766374.961
 111803922.420 8  87120045.98846  21275556.594                    21275562.945
 11  8 21  1 45  0.0000000  0  9G29G10G12G26G04G05G30G25G02
 123292525.827 7  96072154.608 6  23461789.008                    23461798.930
 118866815.629 7  92623614.55244  22619578.914                    22619588.281
 110169772.522 8  85846650.499 7  20964609.547                    20964618.094
 129373684.867 6 100810747.58043  24619002.195                    24619014.492
 128366348.948 6 100025845.68643  24427295.531                    24427306.031
 106490983.237 8  82980080.619 8  20264537.734                    20264546.352
 113998042.621 8  88829724.70545  21693103.930                    21693113.480
 114351756.929 8  89105320.315 7  21760413.742                    21760425.098
 111836922.795 8  87145760.58146  21281836.383                    21281842.938
 11  8 21  1 45 30.0000000  0  9G29G10G12G26G04G05G30G25G02
 123209184.270 7  96007213.215 6  23445929.141                    23445939.313
 118959146.500 6  92695560.66044  22637148.922                    22637158.055
 110205087.643 8  85874168.792 7  20971329.641                    20971337.898
 129280549.986 6 100738175.09842  24601279.492                    24601291.551
 128444838.045 6 100087005.98243  24442231.828                    24442241.160
 106488523.555 8  82978164.007 8  20264069.859                    20264078.449
 113981362.604 8  88816727.29045  21689929.992                    21689939.523
 114321049.844 8  89081392.736 7  21754570.367                    21754581.176
 111870027.564 8  87171556.50946  21288136.094                    21288142.633
 11  8 21  1 46  0.0000000  0  9G29G10G12G26G04G05G30G25G02
 123125833.078 7  95942264.331 6  23430067.625                    23430078.227
 119051782.619 7  92767744.63544  22654777.125                    22654786.492
 110240941.937 8  85902107.208 7  20978152.766                    20978161.098
 129187312.068 5 100665522.28043  24583536.922                    24583548.438
 128523265.180 6 100148118.05042  24457156.141                    24457165.000
 106486636.267 8  82976693.424 8  20263710.531                    20263719.121
 113965287.468 8  88804201.21345  21686871.000                    21686880.816
 114290904.673 7  89057903.002 7  21748833.891                    21748845.344
 111903235.737 7  87197433.02446  21294455.383                    21294461.746
 11  8 21  1 46 30.0000000  0  9G29G10G12G26G04G05G30G25G02
 123042473.427 7  95877308.844 6  23414204.844                    23414214.602
 119144721.320 7  92840164.38145  22672462.711                    22672472.301
 110277333.945 8  85930464.619 7  20985077.734                    20985086.020
 129093974.570 6 100592791.92542  24565775.070                    24565786.613
 128601630.079 6 100209181.55942  24472068.703                    24472077.172
 106485321.131 8  82975668.680 8  20263460.164                    20263469.074
 113949817.576 8  88792146.74045  21683926.883                    21683936.645
 114261322.455 7  89034851.938 7  21743204.625                    21743215.977
 111936546.977 7  87223389.84246  21300794.148                    21300800.957
 11  8 21  1 47  0.0000000  0  9G29G10G12G26G04G05G30G25G02
 122959106.736 7  95812347.879 6  23398340.445                    23398350.566
 119237959.390 6  92912817.39644  22690205.102                    22690215.359
 110314262.669 8  85959240.252 7  20992105.148                    20992113.438
 129000540.139 6 100519985.99642  24547993.977                    24548006.543
 128679932.607 6 100270196.49442  24486968.523                    24486977.777
 106484577.520 8  82975089.273 8  20263318.922                    20263327.801
 113934952.988 8  88780563.94145  21681099.031                    21681107.980
 114232304.058 8  89012240.221 7  21737682.594                    21737693.992
 111969960.725 7  87249426.54946  21307152.094                    21307159.094
 11  8 21  1 47 30.0000000  0  9G29G10G12G26G04G05G30G25G02
 122875734.274 7  95747382.414 6  23382475.227                    23382484.922
 119331494.009 6  92985701.50844  22708003.766                    22708014.523
 110351725.910 8  85988432.392 7  20999233.633                    20999242.250
 128907011.998 6 100447107.07642  24530195.844                    24530208.391
 128758172.503 6 100331162.65442  24501856.742                    24501866.180
 106484404.821 8  82974954.736 8  20263285.906                    20263294.215
 113920693.916 8  88769452.97645  21678385.078                    21678394.684
 114203850.338 7  88990068.508 7  21732267.852                    21732279.082
 112003476.199 7  87275542.50446  21313530.266                    21313537.172
 11  8 21  1 48  0.0000000  0  9G29G10G12G26G04G05G30G25G02
 122792357.376 6  95682413.499 6  23366608.367                    23366619.270
 119425322.287 6  93058814.40344  22725858.992                    22725869.000
 110389722.102 8  86018039.822 7  21006464.336                    21006472.695
 128813392.913 6 100374157.25642  24512381.750                    24512393.516
 128836349.399 6 100392079.75842  24516734.391                    24516743.793
 106484802.454 8  82975264.613 8  20263361.719                    20263369.973
 113907040.301 8  88758813.80745  21675787.016                    21675796.422
 114175962.039 8  88968337.382 7  21726960.875                    21726971.906
 112037092.691 7  87301737.18346  21319926.969                    21319933.555
 11  8 21  1 48 30.0000000  0  9G29G10G12G26G04G05G30G25G02
 122708977.293 6  95617442.120 6  23350742.305                    23350752.523
 119519441.248 6  93132153.82644  22743769.352                    22743779.582
 110428250.111 8  86048061.648 7  21013795.805                    21013804.523
 128719685.913 6 100301138.97143  24494549.289                    24494561.344
 128914463.166 6 100452947.62242  24531598.242                    24531608.117
 106485769.932 8  82976018.525 8  20263545.531                    20263554.340
 113893992.426 8  88748646.64945  21673303.945                    21673313.652
 114148640.147 8  88947047.601 7  21721761.695                    21721772.930
 112070810.008 8  87328010.41546  21326343.680                    21326350.016
 11  8 21  1 49  0.0000000  0  9G29G10G12G26G04G05G30G25G02
 122625595.444 7  95552469.319 6  23334875.039                    23334884.816
 119613847.789 7  93205717.34744  22761734.492                    22761743.660
 110467307.898 8  86078496.281 7  21021228.469                    21021236.902
 128625893.914 6 100228054.39843  24476701.227                    24476713.398
 128992513.484 6 100513766.07642  24546450.320                    24546461.129
 106487306.371 8  82977215.784 8  20263837.820                    20263846.660
 113881550.103 8  88738951.35945  21670936.430                    21670945.770
 114121885.190 8  88926199.610 7  21716670.383                    21716681.891
 112104627.409 8  87354361.62146  21332778.945                    21332785.621
 11  8 21  1 49 30.0000000  0  9G29G10G12G26G04G05G30G25G02
 122542213.372 6  95487496.361 6  23319008.250                    23319017.828
 119708539.493 7  93279503.07344  22779753.664                    22779762.359
 110506893.836 8  86109342.475 7  21028761.148                    21028769.668
 128532019.920 6 100154905.92343  24458837.750                    24458849.418
 129070500.176 6 100574534.89843  24561290.891                    24561301.625
 106489411.231 7  82978855.964 8  20264238.430                    20264246.832
 113869713.479 8  88729728.04245  21668683.945                    21668693.289
 114095698.023 8  88905794.040 7  21711687.039                    21711698.691
 112138544.334 8  87380790.37746  21339233.289                    21339239.563
 11  8 21  1 50  0.0000000  0  9G29G10G12G26G04G05G30G25G02
 122458832.267 6  95422524.151 6  23303140.891                    23303150.859
 119803513.208 7  93353508.54644  22797826.633                    22797835.621
 110547006.462 8  86140599.063 7  21036394.508                    21036403.285
 128438067.182 6 100081696.11043  24440958.977                    24440970.637
 129148423.117 6 100635254.05342  24576119.188                    24576129.406
 106492083.938 8  82980938.623 8  20264746.898                    20264755.547
 113858482.776 8  88720976.86945  21666546.469                    21666555.496
 114070079.602 8  88885831.648 7  21706812.180                    21706823.621
 112172560.396 8  87407296.38446  21345706.180                    21345712.461
 11  8 21  1 50 30.0000000  0  9G29G10G12G26G04G05G30G25G02
 122375453.370 6  95357553.645 6  23287274.469                    23287284.609
 119898765.979 6  93427731.46444  22815952.617                    22815961.207
 110587644.071 8  86172264.737 7  21044127.883                    21044136.180
 128344038.582 6 100008427.18243  24423066.336                    24423077.176
 129226282.260 6 100695923.55943  24590935.313                    24590946.012
 106495323.952 8  82983463.334 8  20265363.430                    20265371.934
 113847857.840 8  88712697.72645  21664525.172                    21664534.316
 114045030.564 8  88866312.937 7  21702045.484                    21702057.035
 112206675.046 7  87433879.21746  21352197.695                    21352204.656
 11  8 21  1 51  0.0000000  0  9G29G10G12G26G04G05G30G25G02
 122292078.275 7  95292586.117 6  23271408.664                    23271418.836
 119994294.665 6  93502169.38144  22834131.508                    22834140.266
 110628804.893 8  86204338.110 7  21051960.125                    21051969.059
 128249937.125 6  99935101.49643  24405159.758                    24405170.445
 129304077.089 6 100756542.89643  24605739.063                    24605749.770
 106499129.897 8  82986429.017 8  20266088.281                    20266096.520
 113837838.490 8  88704890.46745  21662618.031                    21662627.762
 114020551.408 8  88847238.289 7  21697387.086                    21697398.617
 112240887.591 7  87460538.34646  21358707.945                    21358715.199
 11  8 21  1 51 30.0000000  0  9G29G10G12G26G04G05G30G25G02
 122208708.495 7  95227622.712 6  23255544.164                    23255553.879
 120090096.638 7  93576820.26444  22852361.859                    22852371.148
 110670487.473 8  86236818.049 7  21059892.242                    21059900.809
 128155766.186 6  99861721.62543  24387238.727                    24387250.410
 129381807.721 6 100817112.23843  24620530.398                    24620541.238
 106503501.973 8  82989835.841 8  20266919.953                    20266928.504
 113828424.900 8  88697555.22945  21660826.547                    21660836.285
 113996643.131 7  88828608.481 7  21692837.672                    21692849.430
 112275197.979 7  87487273.72346  21365237.047                    21365243.984
 11  8 21  1 52  0.0000000  0  9G29G10G12G26G04G05G30G25G02
 122125345.325 7  95162664.444 6  23239680.484                    23239690.281
 120186169.320 7  93651682.08744  22870643.320                    22870653.492
 110712689.727 8  86269702.928 7  21067923.602                    21067931.383
 128061528.357 6  99788289.69743  24369305.781                    24369317.543
 129459473.765 6 100877631.24843  24635310.625                    24635320.875
 106508438.683 8  82993682.637 8  20267859.273                    20267867.906
 113819616.678 8  88690691.70945  21659150.703                    21659160.156
 113973306.099 8  88810423.797 7  21688396.742                    21688408.273
 112309605.470 7  87514084.75446  21371784.836                    21371791.441
 11  8 21  1 52 30.0000000  0  9G29G10G12G26G04G05G30G25G02
 122041990.393 7  95097712.606 6  23223818.656                    23223829.059
 120282509.666 6  93726752.50644  22888976.945                    22888986.016
 110755410.336 8  86302991.715 7  21076052.469                    21076061.035
 127967227.157 6  99714808.32843  24351360.578                    24351372.500
 129537075.235 6 100938099.92143  24650076.711                    24650088.453
 106513939.745 8  82997969.183 8  20268905.703                    20268914.566
 113811413.996 8  88684300.04745  21657589.336                    21657598.496
 113950541.158 8  88792684.899 7  21684064.516                    21684076.016
 112344109.880 7  87540971.30746  21378350.859                    21378357.504
 11  8 21  1 53  0.0000000  0  9G29G10G12G26G04G05G30G25G02
 121958644.989 7  95032768.160 6  23207958.727                    23207968.164
 120379114.660 7  93802029.11444  22907359.734                    22907369.102
 110798646.857 8  86336682.507 7  21084279.984                    21084288.730
 127872865.518 6  99641279.91843  24333404.688                    24333415.754
 129614611.964 6 100998518.15843  24664831.242                    24664843.223
 106520004.092 8  83002694.647 8  20270060.063                    20270068.586
 113803816.487 8  88678379.92945  21656143.539                    21656153.230
 113928348.713 8  88775392.099 7  21679841.531                    21679853.219
 112378710.249 7  87567932.63846  21384934.938                    21384941.469
 11  8 21  1 53 30.0000000  0  8G29G10G12G26G05G30G25G02
 121875310.779 7  94967832.450 6  23192100.508                    23192110.113
 120475981.796 6  93877509.97344  22925793.023                    22925802.156
 110842398.497 8  86370774.691 7  21092605.406                    21092614.137
 127778446.780 6  99567706.99243  24315436.961                    24315448.449
 106526631.339 8  83007858.748 8  20271321.344                    20271329.359
 113796824.418 8  88672931.57945  21654813.836                    21654822.688
 113906729.829 7  88758546.237 7  21675727.375                    21675738.871
 112413406.891 8  87594968.98846  21391537.461                    21391544.410
 11  8 21  1 54  0.0000000  0  8G29G10G12G26G05G30G25G02
 121791989.050 6  94902906.470 6  23176244.781                    23176254.742
 120573107.800 6  93953192.52944  22944275.883                    22944285.281
 110886662.377 8  86405266.023 7  21101028.813                    21101037.441
 127683973.760 6  99494091.77043  24297459.172                    24297471.066
 106533819.963 8  83013460.288 8  20272689.133                    20272697.500
 113790437.222 8  88667954.55245  21653598.250                    21653607.375
 113885684.704 8  88742147.454 7  21671722.945                    21671733.887
 112448198.696 7  87622079.48546  21398158.578                    21398164.531
 11  8 21  1 54 30.0000000  0  8G29G10G12G26G05G30G25G02
 121708681.315 7  94837991.391 6  23160391.945                    23160401.664
 120670489.589 6  94029074.43444  22962806.156                    22962815.762
 110931436.982 8  86440155.325 7  21109549.219                    21109558.215
 127589449.586 6  99420436.70443  24279471.922                    24279483.617
 106541569.260 8  83019498.723 8  20274163.438                    20274172.375
 113784654.475 8  88663448.52745  21652497.313                    21652506.711
 113865213.674 8  88726196.009 7  21667827.414                    21667838.477
 112483085.013 8  87649263.63446  21404797.031                    21404803.305
 11  8 21  1 55  0.0000000  0  8G29G10G12G26G05G30G25G02
 121625389.021 6  94773088.360 7  23144541.266                    23144551.574
 120768124.461 7  94105153.54144  22981385.891                    22981395.359
 110976720.412 8  86475441.113 7  21118166.258                    21118174.816
 127494877.457 6  99346744.28943  24261474.891                    24261486.418
 106549878.360 8  83025973.358 8  20275744.539                    20275753.121
 113779475.988 8  88659413.35945  21651511.945                    21651521.461
 113845317.302 8  88710692.354 7  21664041.086                    21664052.395
 112518065.937 8  87676521.49946  21411453.352                    21411459.813
 11  8 21  1 55 30.0000000  0  8G29G10G12G26G05G30G25G02
 121542113.547 7  94708198.441 6  23128694.609                    23128704.996
 120866009.509 7  94181427.61344  23000013.000                    23000022.469
 111022510.996 8  86511122.074 7  21126880.164                    21126888.598
 127400260.384 6  99273016.85143  24243469.695                    24243481.727
 106558746.059 8  83032883.281 8  20277432.227                    20277440.602
 113774901.444 8  88655848.77345  21650641.781                    21650651.078
 113825996.056 8  88695636.848 7  21660364.359                    21660375.840
 112553140.676 8  87703852.46846  21418127.742                    21418134.586
 11  8 21  1 56  0.0000000  0  8G29G10G12G26G05G30G25G02
 121458856.725 7  94643323.043 6  23112851.336                    23112861.863
 120964141.835 7  94257894.34844  23018686.828                    23018696.348
 111068806.909 8  86547196.810 7  21135689.586                    21135698.332
 127305601.804 6  99199257.05243  24225456.813                    24225468.375
 106568171.963 8  83040228.165 8  20279225.883                    20279234.078
 113770930.734 8  88652754.71645  21649885.891                    21649895.227
 113807250.516 8  88681029.938 7  21656797.305                    21656808.219
 112588309.086 8  87731256.44446  21424820.164                    21424826.992
 11  8 21  1 56 30.0000000  0  8G29G10G12G26G05G30G25G02
 121375619.814 7  94578463.143 6  23097012.063                    23097021.691
 121062518.945 6  94334551.81944  23037407.531                    23037417.008
 111115605.983 8  86583663.612 7  21144595.703                    21144604.090
 127210904.719 6  99125467.27743  24207436.750                    24207448.422
 106578155.025 8  83048007.195 8  20281125.703                    20281134.223
 113767563.477 8  88650130.88345  21649244.992                    21649254.145
 113789081.244 8  88666872.068 7  21653339.906                    21653351.215
 112623570.557 7  87758732.92546  21431530.578                    21431537.035
 11  8 21  1 57  0.0000000  0  8G29G10G12G26G05G30G25G02
 121292404.252 7  94513619.878 6  23081176.359                    23081186.195
 121161137.462 6  94411397.36644  23056173.938                    23056183.660
 111162905.901 8  86620520.683 7  21153596.320                    21153604.969
 127116172.339 6  99051649.96943  24189409.180                    24189420.816
 106588693.872 8  83056219.307 8  20283131.180                    20283139.852
 113764798.924 7  88647976.67645  21648719.250                    21648728.348
 113771488.226 8  88653163.224 7  21649992.250                    21650002.750
 112658924.549 8  87786281.51146  21438257.641                    21438265.250
 11  8 21  1 57 30.0000000  0  8G29G10G12G26G05G30G25G02
 121209211.897 7  94448794.707 6  23065345.398                    23065355.398
 121259994.578 6  94488428.85844  23074986.164                    23074995.863
 111210705.257 8  86657766.930 7  21162692.445                    21162701.027
 127021407.582 6  98977807.43543  24171376.047                    24171387.488
 106599787.514 8  83064863.726 8  20285242.047                    20285250.758
 113762636.962 7  88646292.01645  21648307.547                    21648316.656
 113754472.018 8  88639903.838 7  21646753.813                    21646764.871
 112694370.739 8  87813901.93146  21445002.844                    21445010.008
 11  8 21  1 58  0.0000000  0  8G29G10G12G26G05G30G25G02
 121126043.789 7  94383988.414 6  23049519.141                    23049529.184
 121359087.652 6  94565644.23343  23093842.758                    23093852.531
 111259001.888 8  86695400.667 7  21171882.695                    21171891.172
 126926613.931 6  98903942.37443  24153336.961                    24153348.715
 106611434.900 8  83073939.630 8  20287458.438                    20287467.246
 113761077.074 7  88645076.50245  21648010.945                    21648020.336
 113738032.911 8  88627094.138 7  21643625.586                    21643636.699
 112729908.810 8  87841593.95046  21451765.969                    21451772.801
 11  8 21  1 58 30.0000000  0  8G29G10G12G26G05G30G25G02
 121042901.874 7  94319202.557 6  23033697.969                    23033708.129
 121458413.637 6  94643041.10844  23112743.641                    23112753.680
 111307793.411 8  86733420.020 7  21181167.539                    21181176.203
 126831794.548 6  98830057.24643  24135293.805                    24135304.824
 106623635.239 8  83083446.407 8  20289779.906                    20289788.809
 113760118.801 8  88644329.78445  21647828.766                    21647837.973
 113722171.272 8  88614734.424 7  21640607.281                    21640618.941
 112765538.414 8  87869357.27846  21458546.125                    21458552.816
 11  8 21  1 59  0.0000000  0  8G29G10G12G26G05G30G25G02
 120959787.681 7  94254438.292 6  23017881.898                    23017891.500
 121557969.721 7  94720617.26444  23131688.758                    23131698.188
 111357078.276 8  86771823.801 7  21190546.188                    21190554.477
 126736952.703 7  98756154.62943  24117245.719                    24117256.848
 106636387.372 8  83093383.155 8  20292206.945                    20292215.434
 113759761.696 7  88644051.50745  21647760.586                    21647770.086
 113706887.496 8  88602824.979 7  21637699.016                    21637710.461
 112801259.225 8  87897191.68546  21465343.391                    21465349.813
 11  8 21  1 59 30.0000000  0  8G29G10G12G26G05G30G25G02
 120876702.707 7  94189696.797 6  23002071.195                    23002081.172
 121657753.241 7  94798370.66744  23150676.898                    23150686.375
 111406854.608 8  86810610.552 7  21200018.336                    21200026.891
 126642091.586 6  98682237.00843  24099194.852                    24099205.742
 106649690.188 8  83103749.001 8  20294738.203                    20294746.785
 113760005.208 8  88644241.25545  21647807.047                    21647816.438
 113692181.762 8  88591365.966 7  21634900.250                    21634912.078
 112837070.870 8  87925096.85346  21472158.078                    21472164.242
 11  8 21  2  0  0.0000000  0  8G29G10G12G26G05G30G25G02
 120793648.728 7  94124979.454 6  22986266.156                    22986276.379
 121757761.236 7  94876298.95544  23169707.875                    23169717.574
 111457119.792 8  86849778.226 7  21209583.313                    21209591.938
 126547214.054 7  98608306.57543  24081139.789                    24081150.953
 106663542.242 7  83114542.828 8  20297374.164                    20297382.727
 113760848.708 7  88644898.52045  21647967.328                    21647977.094
 113678054.192 7  88580357.475 7  21632212.016                    21632223.164
 112872972.515 8  87953072.16545  21478990.438                    21478995.949
 11  8 21  2  0 30.0000000  0  8G29G10G12G26G05G30G25G02
 120710627.081 7  94060287.312 6  22970467.938                    22970477.586
 121857990.583 7  94954399.72044  23188781.164                    23188790.152
 111507871.823 8  86889325.252 7  21219241.125                    21219249.086
 126452323.863 6  98534366.26543  24063082.539                    24063093.215
 106677942.636 8  83125763.945 8  20300114.703                    20300122.953
 113762291.554 7  88646022.81245  21648241.984                    21648251.070
 113664504.969 8  88569799.639 7  21629633.883                    21629645.402
 112908964.204 8  87981117.62445  21485838.766                    21485845.258
 11  8 21  2  1  0.0000000  0  8G29G10G12G26G05G30G25G02
 120627639.567 7  93995621.774 6  22954675.742                    22954685.844
 121958438.952 7  95032671.14844  23207895.664                    23207904.730
 111559108.935 8  86929250.272 7  21228991.430                    21228999.535
 126357424.048 6  98460418.47643  24045023.430                    24045034.973
 106692890.268 8  83137411.467 8  20302958.875                    20302966.969
 113764333.338 7  88647613.82945  21648630.750                    21648639.809
 113651534.533 8  88559692.817 7  21627165.578                    21627177.004
 112945045.468 8  88009232.89745  21492705.031                    21492711.473
 11  8 21  2  1 30.0000000  0  8G29G10G12G26G05G30G25G02
 120544687.739 7  93930984.051 7  22938890.156                    22938900.855
 122059103.277 7  95111110.87944  23227050.859                    23227060.082
 111610828.632 8  86969551.335 7  21238833.156                    21238842.039
 126262517.962 6  98386465.78443  24026963.031                    24026974.742
 106708383.839 8  83149484.396 8  20305907.375                    20305915.473
 113766973.369 8  88649671.00545  21649133.109                    21649142.152
 113639142.908 8  88550037.023 7  21624807.422                    21624818.777
 112981216.189 8  88037417.87946  21499588.500                    21499594.750
 11  8 21  2  2  0.0000000  0  8G29G10G12G26G05G30G25G02
 120461773.255 7  93866375.428 6  22923112.602                    22923122.578
 122159980.838 7  95189716.75043  23246247.617                    23246256.582
 111663028.862 8  87010226.830 7  21248766.586                    21248775.285
 126167608.781 6  98312510.70743  24008902.664                    24008913.734
 106724422.214 8  83161981.847 8  20308959.500                    20308967.664
 113770210.990 7  88652193.82945  21649748.781                    21649758.309
 113627330.260 8  88540832.374 7  21622559.563                    21622570.875
 113017475.973 7  88065672.25646  21506487.898                    21506494.953
 11  8 21  2  2 30.0000000  0  8G29G10G12G26G05G30G25G02
 120378897.763 7  93801797.177 7  22907341.992                    22907351.480
 122261068.574 7  95268486.46343  23265483.484                    23265493.125
 111715707.686 8  87051275.254 7  21258791.086                    21258799.348
 126072699.795 6  98238555.77943  23990842.172                    23990852.988
 106741004.029 8  83174902.762 8  20312114.641                    20312122.867
 113774045.384 8  88655181.68045  21650478.547                    21650488.164
 113616096.633 8  88532078.922 7  21620421.883                    21620432.953
 113053824.366 8  88093995.69246  21513405.063                    21513411.934
 11  8 21  2  3  0.0000000  0  8G29G10G12G26G05G30G25G02
 120296062.647 7  93737250.418 7  22891578.445                    22891589.094
 122362363.604 7  95347417.66243  23284759.641                    23284768.551
 111768862.774 8  87092694.800 7  21268906.055                    21268914.465
 125977794.419 6  98164603.64843  23972782.430                    23972793.121
 106758127.929 8  83188246.075 8  20315373.164                    20315381.520
 113778475.925 7  88658634.07445  21651321.711                    21651331.012
 113605442.105 8  88523776.722 7  21618394.188                    21618405.281
 113090261.044 8  88122387.92046  21520338.805                    21520345.352
 11  8 21  2  3 30.0000000  0  8G29G10G12G26G05G30G25G02
 120213269.875 7  93672736.663 6  22875823.867                    22875833.109
 122463863.279 7  95426508.33943  23304074.477                    23304083.168
 111822491.801 7  87134483.642 7  21279111.188                    21279119.730
 125882895.828 6  98090656.82643  23954722.969                    23954734.020
 106775792.808 8  83202010.926 8  20318735.016                    20318742.691
 113783501.887 8  88662550.43545  21652278.211                    21652287.289
 113595366.789 8  88515925.863 7  21616477.094                    21616487.988
 113126785.898 8  88150848.84946  21527289.117                    21527295.684
 11  8 21  2  4  0.0000000  0  8G29G10G12G26G05G30G25G02
 120130521.299 7  93608257.311 6  22860077.195                    22860087.148
 122565564.763 7  95505756.22243  23323427.016                    23323437.457
 111876592.766 8  87176640.233 7  21289406.336                    21289414.906
 125788007.472 6  98016717.95543  23936666.633                    23936677.641
 106793997.456 8  83216196.384 8  20322198.500                    20322207.461
 113789122.475 8  88666930.13346  21653347.422                    21653357.039
 113585870.688 8  88508526.343 7  21614669.969                    21614681.289
 113163398.400 8  88179378.07646  21534256.242                    21534262.902
 11  8 21  2  4 30.0000000  0  8G29G10G12G26G05G30G25G02
 120047818.211 7  93543813.425 6  22844339.219                    22844348.840
 122667465.713 7  95585159.52143  23342819.188                    23342828.313
 111931163.660 8  87219162.992 7  21299791.133                    21299799.543
 125693132.573 6  97942789.57243  23918612.680                    23918623.129
 106812740.733 8  83230801.548 8  20325765.844                    20325773.961
 113795336.999 8  88671772.64345  21654530.117                    21654539.629
 113576953.951 8  88501578.272 7  21612973.563                    21612984.629
 113200098.269 8  88207975.37345  21541239.984                    21541246.688
 11  8 21  2  5  0.0000000  0  8G29G10G12G26G05G30G25G02
 119965162.088 7  93479406.133 6  22828610.273                    22828620.039
 122769562.739 7  95664715.62244  23362247.141                    23362256.883
 111986201.687 8  87262049.755 7  21310264.148                    21310272.445
 125598274.384 6  97868874.16743  23900561.578                    23900572.531
 106832020.621 8  83245824.845 8  20329434.648                    20329442.914
 113802144.253 8  88677077.02145  21655825.406                    21655835.473
 113568616.203 8  88495081.354 7  21611386.445                    21611397.840
 113236885.073 8  88236640.40345  21548239.984                    21548246.105
 11  8 21  2  5 30.0000000  0  8G29G10G12G26G05G30G25G02
 119882555.045 7  93415037.093 6  22812890.375                    22812900.355
 122871853.144 7  95744422.41743  23381712.758                    23381722.035
 112041704.713 8  87305298.868 7  21320826.281                    21320834.379
 125503436.316 6  97794974.47443  23882513.781                    23882525.219
 106851836.281 8  83261265.633 8  20333204.977                    20333213.906
 113809543.703 8  88682842.84845  21657233.602                    21657243.180
 113560857.619 8  88489035.740 7  21609910.219                    21609921.297
 113273758.781 8  88265373.15845  21555256.672                    21555263.203
 11  8 21  2  6  0.0000000  0  8G29G10G12G26G05G30G25G02
 119799998.966 7  93350707.760 6  22797180.742                    22797190.000
 122974334.256 7  95824277.82143  23401213.930                    23401223.578
 112097670.859 7  87348908.827 7  21331476.297                    21331484.969
 125408621.917 6  97721093.21443  23864471.398                    23864482.414
 106872186.594 8  83277123.034 8  20337077.789                    20337086.277
 113817534.517 8  88689069.47045  21658754.242                    21658763.484
 113553678.248 8  88483441.456 7  21608544.016                    21608554.707
 113310719.201 8  88294173.48945  21562289.898                    21562296.820
 11  8 21  2  6 30.0000000  0  8G29G10G12G26G05G30G25G02
 119717495.311 7  93286419.279 7  22781480.680                    22781490.344
 123077003.081 6  95904279.49543  23420750.852                    23420760.301
 112154097.381 8  87392877.546 7  21342213.914                    21342222.453
 125313834.301 6  97647232.84243  23846433.875                    23846444.605
 106893069.650 8  83293395.568 8  20341051.555                    20341060.199
 113826115.639 7  88695756.09145  21660387.023                    21660396.484
 113547077.787 8  88478298.270 7  21607287.938                    21607298.824
 113347765.763 7  88323040.94045  21569339.648                    21569346.477
 11  8 21  2  7  0.0000000  0  8G29G10G12G26G05G30G25G02
 119635045.362 7  93222172.645 6  22765791.078                    22765800.453
 123179857.101 6  95984425.45543  23440323.820                    23440332.617
 112210982.103 7  87437203.293 7  21353038.766                    21353047.273
 125219076.597 6  97573395.72543  23828402.133                    23828413.883
 106914483.796 8  83310081.933 8  20345126.320                    20345134.961
 113835285.996 7  88702901.84445  21662132.125                    21662141.406
 113541055.995 8  88473605.982 7  21606142.000                    21606152.805
 113384898.254 8  88351975.35545  21576405.906                    21576412.711
 11  8 21  2  7 30.0000000  0  8G29G10G12G26G05G30G25G02
 119552651.407 7  93157969.651 6  22750111.820                    22750121.496
 123282893.351 7  96064713.41343  23459930.758                    23459940.059
 112268322.821 7  87481884.371 7  21363950.500                    21363959.012
 125124352.499 6  97499584.82043  23810376.602                    23810387.641
 106936427.937 8  83327181.280 8  20349302.469                    20349310.926
 113845044.620 8  88710505.98445  21663989.414                    21663998.605
 113535612.703 8  88469364.481 7  21605105.977                    21605117.316
 113422116.341 8  88380976.45645  21583488.266                    21583495.113
 11  8 21  2  8  0.0000000  0  8G29G10G12G26G05G30G25G02
 119470315.023 7  93093811.504 7  22734443.516                    22734452.801
 123386108.908 6  96145141.10743  23479572.023                    23479581.336
 112326116.912 7  87526918.723 7  21374947.961                    21374956.523
 125029665.361 6  97425802.73143  23792358.813                    23792369.184
 106958900.426 8  83344692.323 8  20353578.906                    20353587.254
 113855390.651 7  88718567.83445  21665957.906                    21665967.215
 113530747.895 8  88465573.739 7  21604180.258                    21604191.422
 113459420.171 7  88410044.38245  21590586.727                    21590594.172
 11  8 21  2  8 30.0000000  0  8G29G10G12G26G05G30G25G02
 119388038.114 7  93029699.691 7  22718786.742                    22718796.172
 123489501.111 7  96225706.46243  23499247.031                    23499256.324
 112384362.173 7  87572304.631 7  21386031.906                    21386040.883
 124935018.840 6  97352052.28243  23774348.023                    23774358.691
 106981900.395 8  83362614.392 8  20357955.555                    20357964.191
 113866323.360 8  88727086.84545  21668038.406                    21668047.281
 113526461.586 8  88462233.773 7  21603365.094                    21603375.863
 113496809.651 8  88439179.04446  21597701.844                    21597709.152
 11  8 21  2  9  0.0000000  0  8G29G10G12G26G05G30G25G02
 119305822.050 7  92965635.297 7  22703141.172                    22703151.203
 123593067.120 6  96306407.25743  23518954.867                    23518964.703
 112443056.347 7  87618040.346 7  21397201.023                    21397209.512
 124840416.043 6  97278335.91543  23756345.617                    23756356.309
 107005425.695 8  83380945.813 8  20362432.273                    20362440.781
 113877841.337 7  88736061.90145  21670229.977                    21670238.961
 113522753.160 8  88459344.102 7  21602658.938                    21602670.445
 113534283.868 8  88468379.72145  21604833.086                    21604840.508
 11  8 21  2  9 30.0000000  0  8G29G10G12G26G05G30G25G02
 119223669.217 7  92901620.175 7  22687508.500                    22687517.469
 123696804.611 7  96387241.64143  23538696.203                    23538705.281
 112502197.158 7  87664124.091 7  21408455.102                    21408463.535
 124745860.459 6  97204656.32144  23738352.453                    23738362.973
 107029475.382 8  83399685.836 8  20367008.828                    20367016.898
 113889943.842 8  88745492.43645  21672533.289                    21672542.926
 113519622.798 8  88456904.865 7  21602063.414                    21602074.660
 113571843.391 8  88497646.87546  21611980.609                    21611987.602
 11  8 21  2 10  0.0000000  0  9G29G10G12G26G15G05G30G25G02
 119141580.853 7  92837655.271 7  22671887.625                    22671896.629
 123800710.371 7  96468207.16843  23558468.305                    23558477.852
 112561781.575 8  87710553.494 7  21419794.141                    21419802.891
 124651355.294 6  97131016.05844  23720368.336                    23720379.188
 129403116.13416 100833726.92916  24624612.852                    24624624.191
 107054047.182 8  83418832.712 8  20371684.445                    20371692.945
 113902629.127 8  88755377.08745  21674946.977                    21674956.141
 113517069.494 7  88454915.293 7  21601577.055                    21601588.793
 113609487.123 8  88526979.64746  21619144.063                    21619150.609
 11  8 21  2 10 30.0000000  0  9G29G10G12G26G15G05G30G25G02
 119059558.896 7  92773742.099 7  22656279.000                    22656288.832
 123904781.828 6  96549301.76343  23578272.430                    23578282.090
 112621807.567 7  87757326.991 7  21431216.180                    21431225.094
 124556903.999 6  97057417.72744  23702394.641                    23702405.441
 129310290.948 6 100761395.828 6  24606949.188                    24606960.492
 107079139.931 8  83438385.509 8  20376459.461                    20376467.844
 113915896.334 8  88765715.17845  21677471.852                    21677481.254
 113515093.265 7  88453375.387 7  21601200.906                    21601212.496
 113647215.147 8  88556378.09646  21626323.008                    21626329.563
 11  8 21  2 11  0.0000000  0  9G29G10G12G26G15G05G30G25G02
 118977605.315 7  92709882.216 7  22640684.078                    22640693.250
 124009016.422 6  96630523.48943  23598107.414                    23598117.313
 112682272.288 7  87804442.359 7  21442722.273                    21442730.602
 124462509.873 6  96983863.96244  23684431.773                    23684442.973
 129217333.632 6 100688961.761 6  24589259.383                    24589270.949
 107104751.892 8  83458342.885 8  20381333.688                    20381341.906
 113929744.348 8  88776505.83445  21680106.820                    21680115.961
 113513693.656 8  88452284.785 7  21600934.977                    21600946.145
 113685027.235 8  88585842.04646  21633518.844                    21633525.641
 11  8 21  2 11 30.0000000  0  9G29G10G12G26G15G05G30G25G02
 118895721.649 7  92646076.813 7  22625101.930                    22625111.527
 124113411.223 6  96711870.09443  23617972.875                    23617982.184
 112743174.128 8  87851898.327 7  21454311.328                    21454320.305
 124368176.764 6  96910357.69944  23666481.039                    23666491.898
 129124246.671 6 100616426.665 6  24571545.172                    24571557.160
 107130881.655 8  83478703.751 8  20386305.852                    20386314.004
 113944172.170 8  88787748.29345  21682852.563                    21682861.582
 113512870.596 8  88451643.447 7  21600778.586                    21600789.328
 113722923.378 8  88615371.49945  21640730.125                    21640736.699
 11  8 21  2 12  0.0000000  0  9G29G10G12G26G15G05G30G25G02
 118813910.018 7  92582327.535 7  22609533.359                    22609542.980
 124217963.719 6  96793339.55043  23637868.672                    23637877.945
 112804510.103 7  87899692.592 7  21465983.156                    21465991.844
 124273908.118 7  96836901.68244  23648542.719                    23648552.820
 129031032.492 6 100543792.433 6  24553807.063                    24553818.789
 107157527.948 7  83499467.106 8  20391376.398                    20391384.438
 113959178.785 8  88799441.77445  21685707.938                    21685717.012
 113512623.849 8  88451451.182 7  21600731.477                    21600742.406
 113760903.706 8  88644966.54945  21647957.406                    21647964.234
 11  8 21  2 12 30.0000000  0  9G29G10G12G26G15G05G30G25G02
 118732172.024 7  92518635.627 7  22593979.633                    22593988.352
 124322671.038 6  96874929.68643  23657793.805                    23657803.871
 112866277.723 8  87947823.198 7  21477737.039                    21477746.066
 124179707.202 6  96763498.43943  23630616.742                    23630626.715
 128937693.447 7 100471060.906 6  24536046.164                    24536056.699
 107184688.771 8  83520631.387 8  20396544.727                    20396553.188
 113974762.573 8  88811584.98945  21688673.672                    21688682.855
 113512952.620 8  88451707.361 7  21600794.055                    21600805.270
 113798967.961 8  88674627.00245  21655200.789                    21655207.801
 11  8 21  2 13  0.0000000  0  9G29G10G12G26G15G05G30G25G02
 118650509.842 7  92455002.789 7  22578439.133                    22578448.555
 124427530.668 6  96956638.42143  23677748.375                    23677758.027
 112928475.099 7  87996288.681 7  21489573.172                    21489581.547
 124085577.631 6  96690150.81043  23612703.789                    23612714.516
 128844232.504 6 100398234.385 6  24518260.688                    24518271.770
 107212362.903 8  83542195.653 8  20401810.930                    20401819.188
 113990922.583 8  88824177.20945  21691748.852                    21691758.012
 113513856.783 8  88452411.899 7  21600965.914                    21600977.066
 113837115.614 8  88704352.42645  21662459.781                    21662466.926
 11  8 21  2 13 30.0000000  0  9G29G10G12G26G15G05G30G25G02
 118568925.321 7  92391430.471 7  22562914.156                    22562923.734
 124532539.750 6  97038463.64443  23697731.742                    23697740.879
 112991098.940 7  88045086.468 7  21501490.359                    21501498.668
 123991522.855 6  96616861.46544  23594805.859                    23594816.480
 128750651.695 6 100325314.444 6  24500452.008                    24500463.156
 107240548.513 7  83564158.468 8  20407174.516                    20407183.004
 114007657.382 8  88837217.31445  21694932.945                    21694942.340
 113515335.650 8  88453564.269 7  21601247.523                    21601258.555
 113875346.442 8  88734142.67146  21669735.344                    21669742.574
 11  8 21  2 14  0.0000000  0  9G29G10G12G26G15G05G30G25G02
 118487420.128 7  92327919.969 7  22547404.398                    22547413.863
 124637695.549 6  97120403.18243  23717741.117                    23717751.234
 113054147.119 8  88094214.916 7  21513487.820                    21513496.320
 123897546.256 6  96543633.01844  23576922.250                    23576933.043
 128656953.354 6 100252302.926 6  24482621.922                    24482633.570
 107269243.482 8  83586518.194 8  20412635.195                    20412643.672
 114024965.470 8  88850704.12945  21698226.836                    21698236.219
 113517388.581 8  88455163.959 7  21601638.227                    21601648.828
 113913660.640 8  88763997.88446  21677026.156                    21677033.082
 11  8 21  2 14 30.0000000  0  9G29G10G12G26G15G05G30G25G02
 118405995.906 7  92264472.563 7  22531909.883                    22531919.375
 124742995.280 7  97202454.85743  23737779.242                    23737789.105
 113117616.830 8  88143671.827 7  21525565.266                    21525574.359
 123803651.361 6  96470468.25144  23559054.875                    23559065.559
 128563140.337 6 100179202.030 6  24464769.195                    24464781.289
 107298446.338 8  83609273.675 8  20418192.195                    20418200.711
 114042845.703 8  88864636.77645  21701629.383                    21701638.816
 113520015.248 8  88457210.709 7  21602137.984                    21602148.797
 113952057.852 8  88793917.77946  21684333.391                    21684340.207
 11  8 21  2 15  0.0000000  0  9G29G10G12G26G15G05G30G25G02
 118324654.411 7  92201089.624 7  22516431.484                    22516440.383
 124848436.220 6  97284616.65543  23757843.234                    23757853.531
 113181505.577 8  88193455.267 7  21537723.273                    21537732.070
 123709841.493 6  96397369.75644  23541203.328                    23541214.066
 128469215.016 6 100106013.599 6  24446895.617                    24446907.457
 107328154.883 8  83632423.198 8  20423845.414                    20423853.992
 114061296.544 8  88879014.04445  21705140.594                    21705149.742
 113523214.908 8  88459703.941 7  21602746.820                    21602758.406
 113990538.087 8  88823902.36145  21691655.594                    21691662.059
 11  8 21  2 15 30.0000000  0  9G29G10G12G26G15G05G30G25G02
 118243397.956 7  92137772.940 7  22500968.734                    22500977.781
 124954015.946 7  97366886.57943  23777935.078                    23777944.992
 113245810.441 8  88243562.940 7  21549960.250                    21549968.539
 123616120.342 7  96324340.36244  23523369.453                    23523379.203
 128375179.811 6 100032739.557 6  24429001.445                    24429013.371
 107358367.929 8  83655965.832 8  20429594.836                    20429603.258
 114080316.733 8  88893834.97045  21708760.008                    21708769.066
 113526987.033 8  88462643.250 7  21603464.703                    21603475.969
 114029101.063 8  88853951.43245  21698993.758                    21699000.773
 11  8 21  2 16  0.0000000  0  9G29G10G12G26G15G05G30G25G02
 118162228.514 7  92074524.067 7  22485522.641                    22485531.785
 125059731.746 6  97449262.53443  23798051.977                    23798061.691
 113310529.319 8  88293993.223 7  21562275.781                    21562284.195
 123522491.553 7  96251382.96444  23505551.328                    23505562.230
 128281037.661 6  99959382.196 6  24411086.695                    24411098.090
 107389084.033 8  83679900.464 8  20435440.008                    20435448.395
 114099905.098 8  88909098.63445  21712487.188                    21712496.508
 113531331.334 8  88466028.417 7  21604291.195                    21604302.207
 114067746.683 8  88884064.90145  21706347.867                    21706354.508
 11  8 21  2 16 30.0000000  0  9G29G10G12G26G15G05G30G25G02
 118081147.453 7  92011344.064 7  22470093.148                    22470102.180
 125165580.793 6  97531742.28743  23818194.773                    23818204.313
 113375659.508 8  88344744.014 7  21574669.672                    21574678.340
 123428957.960 7  96178499.76044  23487753.023                    23487763.598
 128186790.625 6  99885943.069 5  24393152.563                    24393163.223
 107420300.525 8  83704225.018 8  20441380.492                    20441388.305
 114120059.505 8  88924803.35445  21716323.000                    21716331.871
 113536246.539 8  88469858.454 7  21605226.727                    21605237.969
 114106474.568 7  88914242.48045  21713717.398                    21713724.227
 11  8 21  2 17  0.0000000  0  9G29G10G12G26G15G05G30G25G02
 118000157.210 7  91948234.825 7  22454680.945                    22454690.602
 125271560.679 6  97614323.97743  23838362.094                    23838371.910
 113441198.938 7  88395813.685 7  21587141.180                    21587149.926
 123335523.935 7  96105694.12744  23469972.516                    23469983.059
 128092441.820 6  99812424.643 5  24375198.328                    24375209.336
 107452016.538 8  83728938.797 8  20447415.508                    20447424.117
 114140779.289 8  88940948.63945  21720265.617                    21720274.727
 113541732.640 8  88474133.335 7  21606270.922                    21606281.648
 114145285.056 7  88944484.43245  21721102.836                    21721109.625
 11  8 21  2 17 30.0000000  0  9G29G10G12G26G15G05G30G25G02
 117919259.185 7  91885197.448 7  22439286.734                    22439296.090
 125377668.255 6  97697005.17943  23858553.680                    23858563.953
 113507143.903 7  88447199.353 7  21599689.875                    21599698.352
 123242192.285 7  96032968.25744  23452212.430                    23452222.676
 127997993.651 6  99738828.804 5  24357225.359                    24357235.629
 107484229.454 8  83754039.784 8  20453545.477                    20453553.867
 114162062.251 8  88957532.76045  21724315.461                    21724324.953
 113547788.330 8  88478852.042 7  21607422.672                    21607433.688
 114184177.593 7  88974790.30945  21728503.969                    21728510.836
 11  8 21  2 18  0.0000000  0  9G29G10G12G26G15G05G30G25G02
 117838455.834 7  91822233.848 7  22423910.070                    22423919.727
 125483901.526 6  97779784.31843  23878768.977                    23878779.285
 113573492.306 7  88498899.399 7  21612315.938                    21612324.324
 123148967.065 7  95960325.32444  23434472.844                    23434482.859
 127903448.692 6  99665157.564 5  24339233.609                    24339244.172
 107516938.490 8  83779527.359 8  20459769.617                    20459777.832
 114183907.595 8  88974555.10445  21728472.766                    21728481.910
 113554413.562 8  88484014.557 7  21608683.914                    21608694.816
 114223152.545 7  89005160.41845  21735920.508                    21735927.805
 11  8 21  2 18 30.0000000  0  9G29G10G12G26G15G05G30G25G02
 117757749.027 7  91759345.459 7  22408552.203                    22408561.227
 125590257.860 6  97862659.37243  23899007.492                    23899018.316
 113640241.549 8  88550911.789 7  21625017.898                    21625026.090
 123055851.719 7  95887767.98444  23416752.734                    23416763.102
 127808809.310 6  99591412.768 6  24321224.289                    24321234.883
 107550141.379 8  83805399.759 8  20466087.992                    20466096.465
 114206313.480 8  88992014.23046  21732736.242                    21732745.969
 113561607.292 8  88489620.056 7  21610052.773                    21610064.004
 114262209.787 7  89035594.64945  21743353.234                    21743359.473
 11  8 21  2 19  0.0000000  0  9G29G10G12G26G15G05G30G25G02
 117677140.508 7  91696533.663 7  22393212.969                    22393222.207
 125696734.341 6  97945628.01743  23919270.109                    23919279.246
 113707389.016 7  88603234.472 7  21637795.820                    21637804.156
 122962849.402 7  95815298.74844  23399055.008                    23399065.258
 127714078.063 6  99517596.396 6  24303196.875                    24303208.184
 107583835.790 8  83831655.160 8  20472499.609                    20472508.188
 114229278.057 8  89009908.69745  21737106.438                    21737115.727
 113569368.541 8  88495667.789 7  21611529.750                    21611540.969
 114301348.888 7  89066092.64645  21750800.555                    21750807.465
 11  8 21  2 19 30.0000000  0  9G29G10G12G26G15G05G30G25G02
 117596632.224 7  91633799.989 7  22377892.242                    22377902.027
 125803328.196 6  98028688.11243  23939553.789                    23939563.723
 113774932.105 7  88655865.431 7  21650648.641                    21650657.340
 122869964.004 6  95742920.59744  23381379.664                    23381389.980
 127619257.851 6  99443710.734 6  24285153.875                    24285164.922
 107618020.102 8  83858292.300 8  20479004.750                    20479013.473
 114252799.950 8  89028237.43945  21741582.117                    21741591.547
 113577696.721 8  88502157.283 7  21613114.430                    21613125.785
 114340569.850 7  89096654.44445  21758264.391                    21758270.883
 11  8 21  2 20  0.0000000  0  9G29G10G12G26G15G05G30G25G02
 117516226.051 7  91571145.883 7  22362591.906                    22362601.160
 125910037.052 7  98111837.84543  23959860.445                    23959869.691
 113842867.684 7  88708802.234 7  21663576.508                    21663585.125
 122777199.102 6  95670636.31944  23363726.555                    23363737.113
 127524351.318 6  99369757.785 6  24267093.250                    24267104.297
 107652692.708 8  83885309.926 8  20485602.828                    20485611.188
 114276877.657 8  89046999.28445  21746164.031                    21746173.594
 113586591.132 8  88509087.987 7  21614806.758                    21614818.105
 114379872.716 8  89127280.06045  21765743.352                    21765750.078
 11  8 21  2 20 30.0000000  0  9G29G10G12G26G15G05G30G25G02
 117435924.244 7  91508573.087 7  22347310.688                    22347320.531
 126016858.211 7  98195075.09143  23980187.695                    23980197.082
 113911193.505 7  88762043.115 7  21676578.313                    21676586.922
 122684558.230 6  95598448.70144  23346098.055                    23346107.895
 127429361.071 6  99295739.615 6  24249016.891                    24249028.102
 107687851.553 8  83912706.440 8  20492293.609                    20492301.926
 114301509.568 8  89066192.97045  21750851.383                    21750860.754
 113596050.816 8  88516459.163 7  21616607.203                    21616617.754
 114419257.527 8  89157969.53345  21773238.375                    21773244.719
 11  8 21  2 21  0.0000000  0  9G29G10G12G26G15G05G30G25G02
 117355728.769 7  91446083.158 7  22332050.289                    22332059.598
 126123789.099 6  98278397.83943  24000536.234                    24000546.359
 113979906.608 7  88815585.782 7  21689653.930                    21689662.332
 122592044.948 6  95526360.48544  23328492.945                    23328503.086
 127334289.716 6  99221658.212 6  24230926.227                    24230936.480
 107723494.818 8  83940480.429 8  20499075.930                    20499084.559
 114326693.862 8  89085817.09445  21755643.867                    21755653.559
 113606074.911 8  88524270.140 7  21618514.461                    21618525.438
 114458724.154 8  89188722.75345  21780748.625                    21780755.063
 11  8 21  2 21 30.0000000  0  9G29G10G12G26G15G05G30G25G02
 117275641.427 7  91383677.505 7  22316809.680                    22316819.238
 126230827.144 6  98361804.09843  24020903.922                    24020914.309
 114049004.298 7  88869428.129 7  21702802.977                    21702811.672
 122499662.667 6  95454374.36544  23310913.141                    23310922.934
 127239139.475 7  99147515.328 6  24212819.125                    24212829.750
 107759620.135 8  83968630.045 8  20505950.602                    20505958.777
 114352428.758 8  89105870.24945  21760541.109                    21760550.688
 113616662.372 8  88532520.104 7  21620529.109                    21620540.496
 114498272.428 7  89219539.58745  21788274.438                    21788280.609
 11  8 21  2 22  0.0000000  0  9G29G10G12G26G15G05G30G25G02
 117195664.351 7  91321357.759 7  22301591.109                    22301600.273
 126337969.585 6  98445291.77843  24041292.492                    24041302.930
 114118484.083 7  88923568.214 7  21716024.305                    21716033.098
 122407415.126 6  95382493.21144  23293359.602                    23293369.316
 127143913.519 6  99073313.430 6  24194697.969                    24194708.398
 107796225.987 8  83997154.091 8  20512916.242                    20512924.977
 114378712.739 7  89126351.25345  21765543.000                    21765552.340
 113627812.447 8  88541208.477 7  21622650.961                    21622661.953
 114537902.233 7  89250419.95345  21795815.750                    21795822.117
 11  8 21  2 22 30.0000000  0  9G29G10G12G26G15G05G30G25G02
 117115799.733 7  91259125.644 7  22286393.266                    22286402.504
 126445214.415 6  98528859.18643  24061700.805                    24061710.828
 114188343.557 8  88978004.165 7  21729318.219                    21729326.891
 122315306.154 6  95310720.03944  23275831.023                    23275841.402
 127048614.499 6  98999054.599 6  24176563.711                    24176573.871
 107833310.913 7  84026051.447 8  20519973.516                    20519981.672
 114405544.394 7  89147259.01645  21770648.750                    21770658.426
 113639524.497 8  88550334.747 7  21624879.805                    21624890.891
 114577613.954 7  89281364.15345  21803372.258                    21803379.270
 11  8 21  2 23  0.0000000  0  9G29G10G12G26G15G05G30G25G02
 117036049.301 7  91196982.520 7  22271216.906                    22271226.242
 126552558.742 7  98612504.11043  24082128.945                    24082137.879
 114258579.109 7  89032733.151 7  21742683.602                    21742692.023
 122223339.157 7  95239057.51744  23258330.125                    23258340.758
 126953244.779 6  98924740.649 6  24158414.164                    24158425.336
 107870872.387 7  84055320.142 8  20527121.016                    20527129.102
 114432921.532 8  89168591.83745  21775858.688                    21775868.098
 113651797.250 8  88559897.926 7  21627215.375                    21627226.078
 114617407.433 7  89312372.04945  21810944.555                    21810951.160
 11  8 21  2 23 30.0000000  0  9G29G10G12G26G15G05G30G25G02
 116956415.070 7  91134929.935 7  22256063.227                    22256072.051
 126659999.888 6  98696224.48543  24102573.250                    24102582.684
 114329188.065 7  89087753.114 7  21756120.242                    21756128.371
 122131517.486 7  95167508.24144  23240857.039                    23240867.852
 126857807.193 6  98850373.849 6  24140253.031                    24140264.383
 107908908.257 8  84084958.492 8  20534358.797                    20534367.215
 114460842.300 7  89190348.27645  21781171.438                    21781180.727
 113664629.418 8  88569897.022 7  21629656.906                    21629668.184
 114657282.371 7  89343443.43445  21818532.594                    21818539.117
 11  8 21  2 24  0.0000000  0  9G29G10G12G26G15G05G30G25G02
 116876899.134 7  91072969.526 7  22240931.852                    22240941.750
 126767535.751 6  98780018.59443  24123036.641                    24123046.137
 114400168.602 8  89143062.617 7  21769627.430                    21769635.699
 122039844.943 7  95096075.14644  23223412.922                    23223422.879
 126762304.547 6  98775956.327 6  24122080.328                    24122090.305
 107947417.028 8  84114965.336 8  20541686.883                    20541694.934
 114489305.308 7  89212527.23945  21786588.031                    21786597.129
 113678020.504 8  88580331.638 7  21632204.883                    21632216.234
 114697239.034 7  89374578.50645  21826136.125                    21826143.355
 11  8 21  2 24 30.0000000  0  9G29G10G12G26G15G05G30G25G02
 116797503.504 7  91011102.884 7  22225823.117                    22225832.738
 126875163.466 6  98863884.31643  24143517.141                    24143527.211
 114471517.212 7  89198658.935 7  21783204.656                    21783213.148
 121948325.186 7  95024761.12244  23205997.414                    23206007.320
 126666739.584 6  98701490.237 6  24103893.555                    24103905.422
 107986396.468 8  84145338.932 8  20549104.539                    20549112.840
 114518308.456 8  89235127.09145  21792107.438                    21792116.734
 113691969.243 8  88591200.790 7  21634859.289                    21634871.094
 114737277.369 7  89405777.21845  21833755.469                    21833761.801
 11  8 21  2 25  0.0000000  0  9G29G10G12G26G15G05G30G25G02
 116718230.425 7  90949331.726 7  22210737.906                    22210747.027
 126982880.541 6  98947819.62543  24164015.461                    24164025.109
 114543230.972 7  89254539.776 7  21796851.219                    21796859.492
 121856961.777 7  94953568.94344  23188610.703                    23188620.953
 126571114.897 6  98626977.590 6  24085696.984                    24085708.176
 108025844.538 8  84176077.703 8  20556611.125                    20556619.230
 114547849.948 8  89258146.43545  21797728.664                    21797738.332
 113706474.526 8  88602503.607 7  21637619.820                    21637630.934
 114777397.277 7  89437039.49145  21841390.047                    21841396.676
 11  8 21  2 25 30.0000000  0  9G29G10G12G26G15G05G30G25G02
 116639081.409 7  90887657.236 7  22195676.563                    22195685.535
 127090684.323 6  99031822.56543  24184530.031                    24184539.547
 114615307.076 7  89310702.970 7  21810566.953                    21810575.598
 121765758.155 7  94882501.22844  23171255.539                    23171265.602
 126475432.857 6  98552420.268 6  24067489.453                    24067499.641
 108065758.843 8  84207179.765 8  20564206.609                    20564214.863
 114577927.705 8  89281583.64445  21803452.281                    21803461.953
 113721535.076 8  88614239.100 7  21640486.320                    21640496.848
 114817598.585 7  89468365.18445  21849040.117                    21849047.078
 11  8 21  2 26  0.0000000  0  9G29G10G12G26G15G05G30G25G02
 116560058.801 7  90826081.248 7  22180638.555                    22180647.949
 127198572.149 6  99115890.99843  24205059.422                    24205070.418
 114687742.961 7  89367146.513 7  21824351.148                    21824359.730
 121674717.871 7  94811560.82244  23153931.141                    23153941.031
 126379696.516 6  98477820.622 6  24049271.672                    24049282.223
 108106137.153 8  84238643.404 8  20571890.313                    20571898.434
 114608539.870 8  89305437.28945  21809277.375                    21809286.637
 113737149.822 8  88626406.438 7  21643457.195                    21643468.426
 114857881.304 8  89499754.32045  21856705.727                    21856712.109
 11  8 21  2 26 30.0000000  0  9G29G10G12G26G15G05G30G25G02
 116481164.911 7  90764605.553 7  22165626.000                    22165634.855
 127306541.939 6  99200023.30643  24225606.500                    24225616.523
 114760535.715 7  89423868.136 7  21838203.016                    21838211.422
 121583844.787 7  94740750.68644  23136638.375                    23136648.348
 126283908.636 6  98403180.787 6  24031042.906                    24031054.680
 108146978.356 8  84270467.724 8  20579662.195                    20579670.352
 114639684.869 7  89329706.12845  21815204.422                    21815213.605
 113753317.904 8  88639004.954 7  21646533.828                    21646545.242
 114898245.811 8  89531207.18745  21864386.656                    21864393.191
 11  8 21  2 27  0.0000000  0  9G29G10G12G26G15G05G30G25G02
 116402401.938 7  90703231.865 7  22150637.414                    22150646.559
 127414591.222 7  99284217.52943  24246167.688                    24246177.805
 114833682.643 7  89480865.733 7  21852122.391                    21852130.711
 121493142.517 7  94670073.67044  23119378.430                    23119388.426
 126188071.921 7  98328502.907 6  24012806.883                    24012816.859
 108188280.321 8  84302651.076 8  20587521.766                    20587530.129
 114671360.742 7  89354388.63945  21821231.719                    21821241.000
 113770038.120 8  88652033.707 7  21649715.258                    21649726.941
 114938692.241 7  89562723.89445  21872083.281                    21872090.070
 11  8 21  2 27 30.0000000  0  9G29G10G12G26G15G05G30G25G02
 116323771.473 7  90641961.429 7  22135674.664                    22135683.828
 127522717.509 7  99368471.78443  24266743.289                    24266753.320
 114907180.922 7  89538137.107 7  21866108.594                    21866116.961
 121402614.902 7  94599532.73444  23102151.109                    23102161.457
 126092189.357 7  98253789.297 6  23994560.578                    23994570.508
 108230040.736 8  84335191.673 8  20595468.547                    20595476.715
 114703565.351 7  89379483.15045  21827360.078                    21827369.605
 113787309.191 8  88665491.687 7  21653002.383                    21653013.676
 114979220.297 7  89594304.19945  21879795.883                    21879802.305
 11  8 21  2 28  0.0000000  0  9G29G10G12G26G15G05G30G25G02
 116245275.739 7  90580795.985 7  22120737.273                    22120746.035
 127630918.328 6  99452784.06443  24287333.617                    24287342.902
 114981027.545 7  89595679.928 7  21880161.039                    21880169.785
 121312265.171 7  94529130.42044  23084958.492                    23084968.883
 125996263.178 7  98179041.706 6  23976306.469                    23976316.227
 108272257.315 8  84368087.716 8  20603502.047                    20603510.289
 114736296.675 7  89404988.08745  21833588.859                    21833597.715
 113805129.830 8  88679377.910 7  21656393.297                    21656404.844
 115019829.864 7  89625948.02645  21887523.289                    21887530.020
 11  8 21  2 28 30.0000000  0  9G29G10G12G26G15G05G30G25G02
 116166916.794 7  90519737.100 7  22105825.844                    22105834.902
 127739190.982 6  99537152.28643  24307937.484                    24307946.672
 115055219.516 7  89653491.848 7  21894279.195                    21894287.984
 121222097.011 7  94458869.59844  23067799.680                    23067809.855
 125900296.375 7  98104262.464 6  23958044.508                    23958054.430
 108314927.743 7  84401337.409 8  20611621.648                    20611630.063
 114769552.610 8  89430901.82745  21839917.086                    21839926.168
 113823498.663 8  88693691.286 7  21659888.906                    21659899.902
 115060521.174 7  89657655.56245  21895266.617                    21895273.227
 11  8 21  2 29  0.0000000  0  9G29G10G12G26G15G05G30G25G02
 116088696.815 7  90458786.528 7  22090941.242                    22090950.320
 127847533.401 6  99621574.89742  24328553.391                    24328563.840
 115129754.358 7  89711570.929 7  21908462.711                    21908471.586
 121132114.351 7  94388753.31644  23050676.711                    23050686.465
 125804292.064 7  98029454.000 6  23939775.703                    23939785.035
 108358050.567 7  84434939.615 8  20619828.063                    20619836.414
 114803331.639 7  89457223.15545  21846345.391                    21846354.719
 113842414.846 8  88708431.171 7  21663488.492                    21663499.758
 115101294.793 7  89689427.21145  21903025.508                    21903031.879
 11  8 21  2 29 30.0000000  0  9G29G10G12G26G15G05G30G25G02
 116010617.963 7  90397945.918 7  22076083.297                    22076092.102
 127955942.823 5  99706049.75742  24349182.563                    24349193.359
 115204629.068 7  89769914.835 7  21922710.898                    21922719.719
 121042320.346 7  94318784.03544  23033589.406                    23033599.191
 125708252.597 7  97954618.158 6  23921500.250                    23921509.672
 108401622.996 8  84468892.168 8  20628119.578                    20628127.828
 114837631.159 8  89483950.06945  21852872.297                    21852881.355
 113861876.682 8  88723596.247 7  21667191.844                    21667203.379
 115142149.948 7  89721262.41345  21910799.961                    21910805.926
 11  8 21  2 30  0.0000000  0  9G29G10G12G26G15G05G30G25G02
 115932682.712 7  90337217.196 7  22061252.336                    22061261.684
 128064417.445 5  99790575.43142  24369824.688                    24369835.426
 115279841.335 7  89828521.785 7  21937023.523                    21937032.070
 120952719.186 7  94248965.01744  23016538.641                    23016548.676
 125612181.078 6  97879757.323 6  23903217.836                    23903227.871
 108445643.743 8  84503194.050 8  20636496.242                    20636504.785
 114872449.694 8  89511081.40945  21859497.781                    21859507.336
 113881883.335 8  88739185.858 7  21670998.922                    21671010.160
 115183087.089 8  89753161.47445  21918589.898                    21918596.305
 11  8 21  2 30 30.0000000  0  9G29G10G12G26G15G05G30G25G02
 115854893.048 7  90276601.928 7  22046449.727                    22046458.832
 128172954.190 6  99875149.47443  24390478.859                    24390489.754
 115355387.263 7  89887388.733 7  21951399.727                    21951407.867
 120863314.482 7  94179299.09144  22999525.320                    22999535.242
 125516080.206 7  97804873.628 6  23884929.414                    23884939.977
 108490110.348 8  84537843.358 8  20644958.453                    20644966.500
 114907784.818 8  89538615.28045  21866222.055                    21866231.266
 113902433.166 8  88755198.729 7  21674909.484                    21674920.730
 115224106.442 7  89785124.60845  21926395.953                    21926402.078
 11  8 21  2 31  0.0000000  0  9G29G10G12G26G15G05G30G25G02
 115777250.472 7  90216101.256 7  22031674.867                    22031683.977
 128281550.435 6  99959769.88243  24411144.859                    24411155.484
 115431263.984 7  89946513.425 7  21965838.203                    21965847.027
 120774109.372 7  94109788.68144  22982550.344                    22982560.039
 125419952.629 6  97729969.102 6  23866637.320                    23866647.102
 108535019.801 8  84572837.745 8  20653504.305                    20653512.469
 114943634.172 8  89566549.86145  21873044.219                    21873053.332
 113923524.553 8  88771633.587 7  21678922.953                    21678934.266
 115265207.862 8  89817151.69345  21934217.258                    21934223.574
 11  8 21  2 31 30.0000000  0  9G29G10G12G26G15G05G30G25G02
 115699757.249 7  90155716.968 7  22016928.211                    22016937.449
 128390203.785 6 100044434.82142  24431820.430                    24431830.512
 115507468.522 8  90005893.564 7  21980339.469                    21980348.219
 120685107.632 7  94040436.73744  22965613.773                    22965623.613
 125323800.838 6  97655045.721 6  23848340.438                    23848350.813
 108580369.845 8  84608175.451 8  20662133.625                    20662141.836
 114979995.465 8  89594883.35345  21879963.094                    21879972.129
 113945155.977 8  88788489.252 7  21683039.547                    21683050.547
 115306390.858 7  89849242.34045  21942053.922                    21942060.090
 11  8 21  2 32  0.0000000  0  9G29G10G12G26G15G05G30G25G02
 115622416.096 7  90095451.176 7  22002210.977                    22002219.824
 128498912.225 6 100129142.70842  24452506.898                    24452516.520
 115583998.894 8  90065527.606 7  21994902.828                    21994911.488
 120596313.132 7  93971246.28044  22948716.336                    22948726.734
 125227628.538 7  97580106.355 6  23830039.891                    23830049.410
 108626159.526 8  84643855.728 8  20670847.234                    20670855.500
 115016867.227 8  89623614.60845  21886979.695                    21886988.719
 113967326.601 8  88805765.079 7  21687258.359                    21687269.852
 115347656.460 7  89881397.35845  21949906.250                    21949912.875
 11  8 21  2 32 30.0000000  0  9G29G10G12G26G15G05G30G25G02
 115545229.206 7  90035305.588 7  21987522.703                    21987531.336
 128607673.388 6 100213891.63143  24473203.750                    24473212.813
 115660851.935 7  90125413.069 7  22009527.367                    22009536.258
 120507729.885 7  93902220.42544  22931859.234                    22931869.355
 125131438.194 7  97505152.941 6  23811735.266                    23811745.109
 108672386.699 8  84679876.921 8  20679644.094                    20679652.316
 115054247.293 8  89652741.93745  21894092.945                    21894101.430
 113990035.103 8  88823460.011 7  21691579.820                    21691591.078
 115389004.806 7  89913616.86245  21957775.094                    21957781.523
 11  8 21  2 33  0.0000000  0  9G29G10G12G26G15G05G30G25G02
 115468198.226 7  89975281.490 7  21972863.969                    21972872.863
 128716484.997 6 100298679.86443  24493910.797                    24493919.246
 115738024.155 8  90185547.248 7  22024213.102                    22024221.363
 120419361.072 7  93833361.68144  22915043.820                    22915053.336
 125035232.225 7  97430187.360 6  23793427.469                    23793437.691
 108719048.433 8  84716236.722 8  20688523.516                    20688531.656
 115092133.065 7  89682263.33045  21901301.875                    21901311.398
 114013279.558 8  88841572.577 7  21696002.750                    21696014.238
 115430435.656 7  89945900.64545  21965658.453                    21965665.453
 11  8 21  2 33 30.0000000  0  9G29G10G12G26G15G05G30G25G02
 115391325.618 7  89915380.795 7  21958235.602                    21958244.988
 128825344.323 6 100383505.32643  24514624.813                    24514634.234
 115815512.727 8  90245927.930 7  22038958.500                    22038967.168
 120331210.213 7  93764672.74644  22898269.125                    22898279.039
 124939013.674 7  97355211.977 6  23775117.102                    23775128.133
 108766142.461 8  84752933.378 8  20697484.984                    20697493.359
 115130522.261 7  89712177.00145  21908607.227                    21908616.742
 114037058.443 8  88860101.573 7  21700527.734                    21700538.945
 115471948.894 7  89978248.63845  21973558.625                    21973565.512
 11  8 21  2 34  0.0000000  0  9G29G10G12G26G15G05G30G25G02
 115314613.155 7  89855604.902 7  21943637.367                    21943646.563
 128934249.184 6 100468366.20643  24535348.586                    24535358.242
 115893314.937 7  90306553.015 7  22053763.492                    22053772.230
 120243281.113 7  93696156.61744  22881536.703                    22881546.406
 124842785.548 7  97280229.111 6  23756805.883                    23756816.391
 108813666.582 8  84789965.171 8  20706528.641                    20706536.695
 115169412.879 7  89742481.37845  21916007.680                    21916016.563
 114061370.392 8  88879045.953 7  21705154.211                    21705165.723
 115513544.832 7  90010661.05645  21981473.813                    21981480.703
 11  8 21  2 34 30.0000000  0 10G29G10G12G26G15G05G30G25G02G21
 115238063.429 7  89795955.796 7  21929070.656                    21929079.578
 129043197.221 6 100553260.72443  24556081.797                    24556090.391
 115971427.828 8  90367420.183 7  22068628.445                    22068636.879
 120155577.437 7  93627816.16344  22864847.391                    22864857.234
 124746550.565 7  97205240.930 6  23738493.359                    23738503.180
 108861618.590 8  84827330.378 7  20715653.727                    20715661.953
 115208802.481 7  89773174.57045  21923503.438                    21923512.723
 114086213.801 8  88898404.447 7  21709881.836                    21709892.887
 115555223.248 7  90043137.74345  21989404.875                    21989412.172
 132325191.16515                  25180652.508
 11  8 21  2 35  0.0000000  0 10G29G10G12G26G15G05G30G25G02G21
 115161678.514 7  89736435.116 7  21914535.211                    21914543.773
 129152186.177 6 100638187.14443  24576820.016                    24576830.309
 116049848.233 7  90428526.976 7  22083551.156                    22083559.766
 120068102.957 7  93559654.29644  22848201.672                    22848211.684
 124650311.599 6  97130249.651 6  23720178.906                    23720189.816
 108909996.377 8  84865027.370 8  20724859.398                    20724867.855
 115248688.870 7  89804254.87845  21931093.633                    21931103.121
 114111587.119 8  88918175.878 7  21714710.258                    21714721.191
 115596984.662 7  90075679.12445  21997351.922                    21997358.863
 132269345.761 4                  25170025.398
 11  8 21  2 35 30.0000000  0  9G29G12G26G15G05G30G25G02G21
 115085461.777 7  89677045.489 7  21900031.242                    21900040.539
 116128574.841 8  90489872.380 7  22098532.258                    22098540.926
 119980862.894 7  93491675.08744  22831600.336                    22831609.984
 124554073.027 7  97055258.688 6  23701865.867                    23701876.344
 108958799.409 8  84903055.711 7  20734146.352                    20734154.453
 115289071.303 7  89835721.70945  21938777.906                    21938787.359
 114137490.378 8  88938360.234 7  21719639.313                    21719650.914
 115638830.807 7  90108286.50945  22005315.336                    22005321.859
 132213509.53515                  25159400.602
 11  8 21  2 36  0.0000000  0  9G29G12G26G15G05G30G25G02G21
 115009414.113 7  89617787.604 7  21885560.078                    21885569.352
 116207603.102 7  90551452.828 7  22113571.070                    22113579.773
 119893859.412 7  93423880.22244  22815043.813                    22815053.625
 124457836.122 7  96980268.998 6  23683552.063                    23683562.574
 109008023.672 8  84941412.286 7  20743513.617                    20743521.820
 115329945.916 7  89867572.04945  21946556.313                    21946565.113
 114163920.374 8  88958955.033 7  21724669.055                    21724680.043
 115680760.109 7  90140958.70145  22013293.672                    22013300.809
 132157680.535 5 102980074.59352  25148777.031                    25148786.285
 11  8 21  2 36 30.0000000  0  9G29G12G26G15G05G30G25G02G21
 114933537.891 7  89558663.315 7  21871121.430                    21871130.375
 116286929.842 8  90613265.853 7  22128666.148                    22128675.035
 119807095.588 7  93356272.11444  22798533.359                    22798543.055
 124361603.615 6  96905282.709 6  23665239.594                    23665249.543
 109057666.700 8  84980095.170 8  20752960.289                    20752968.590
 115371310.235 7  89899803.97645  21954427.789                    21954436.941
 114190875.322 8  88979958.880 7  21729798.156                    21729809.777
 115722772.431 7  90173695.57645  22021288.164                    22021295.387
 132101857.504 5 102936576.29742  25138152.703                    25138164.367
 11  8 21  2 37  0.0000000  0  9G29G12G26G15G05G30G25G02G21
 114857835.268 7  89499674.299 7  21856715.688                    21856724.395
 116366552.671 7  90675309.614 7  22143817.789                    22143826.699
 119720575.683 7  93288854.06744  22782068.953                    22782079.027
 124265378.476 7  96830302.196 6  23646928.508                    23646938.750
 109107726.291 8  85019102.643 7  20762486.297                    20762494.785
 115413162.188 7  89932415.88245  21962391.852                    21962401.711
 114218353.852 8  89001370.710 7  21735027.219                    21735038.742
 115764868.397 7  90206497.61445  22029299.125                    22029305.941
 132046040.159 5 102893082.38842  25127531.391                    25127542.996
 11  8 21  2 37 30.0000000  0  9G29G12G26G15G05G30G25G02G21
 114782308.664 7  89440822.436 7  21842343.500                    21842352.555
 116446468.470 7  90737581.658 7  22159025.305                    22159034.246
 119634303.528 7  93221629.09044  22765651.883                    22765661.434
 124169164.172 6  96755330.084 6  23628619.703                    23628629.254
 109158200.650 8  85058433.323 7  20772091.430                    20772099.301
 115455499.581 7  89965406.04945  21970448.672                    21970457.840
 114246354.486 8  89023189.382 7  21740355.781                    21740367.293
 115807048.162 8  90239364.96445  22037325.945                    22037331.879
 131990228.088 5 102849592.58542  25116911.297                    25116922.219
 11  8 21  2 38  0.0000000  0  9G29G12G26G15G05G30G25G02G21
 114706960.271 7  89382109.450 7  21828004.828                    21828014.090
 116526673.783 7  90800079.295 7  22174287.953                    22174296.906
 119548282.577 7  93154599.84344  22749282.508                    22749292.070
 124072963.237 6  96680368.391 6  23610313.000                    23610322.305
 109209087.067 8  85098085.073 7  20781774.570                    20781782.891
 115498319.856 7  89998772.49245  21978596.898                    21978605.887
 114274875.309 8  89045413.397 7  21745782.750                    21745794.063
 115849311.757 7  90272297.62645  22045368.664                    22045374.934
 131934420.454 5 102806106.19142  25106289.961                    25106301.762
 11  8 21  2 38 30.0000000  0  9G29G12G26G15G05G30G25G02G21
 114631792.076 7  89323536.877 7  21813700.867                    21813709.863
 116607165.659 7  90862800.233 7  22189605.273                    22189614.023
 119462516.287 7  93087769.01944  22732961.914                    22732971.703
 123976778.492 6  96605419.322 6  23592010.117                    23592019.109
 109260382.904 8  85138055.851 7  20791536.016                    20791544.113
 115541620.304 7  90032513.09445  21986837.078                    21986845.699
 114303914.386 8  89068041.250 7  21751308.758                    21751319.883
 115891659.248 7  90305295.67345  22053426.992                    22053433.086
 131878616.428 5 102762622.63342  25095671.656                    25095683.234
 11  8 21  2 39  0.0000000  0  9G29G12G26G15G05G30G25G02G21
 114556806.428 7  89265106.561 7  21799431.523                    21799440.797
 116687941.738 7  90925742.629 7  22204976.188                    22204985.227
 119377008.665 7  93021139.74744  22716690.406                    22716699.887
 123880613.176 6  96530485.376 6  23573710.461                    23573719.781
 109312086.743 8  85178344.559 8  20801374.570                    20801382.645
 115585399.085 7  90066626.40845  21995167.508                    21995176.648
 114333470.484 8  89091071.983 7  21756933.430                    21756944.297
 115934091.053 7  90338359.40045  22061501.211                    22061507.395
 131822816.187 5 102719142.04242  25085052.281                    25085064.551
 11  8 21  2 39 30.0000000  0  9G29G12G26G15G05G30G25G02G21
 114482005.662 8  89206820.289 7  21785197.570                    21785206.313
 116768998.671 7  90988903.859 7  22220401.133                    22220409.598
 119291763.255 7  92954714.80144  22700468.492                    22700478.613
 123784469.878 7  96455568.596 6  23555414.664                    23555424.023
 109364195.690 8  85218948.935 8  20811290.820                    20811299.020
 115629653.332 7  90101110.24945  22003588.773                    22003598.102
 114363541.476 8  89114503.935 7  21762655.719                    21762666.887
 115976607.370 7  90371488.99145  22069591.711                    22069598.508
 131767018.636 5 102675663.50942  25074435.477                    25074446.457
 11  8 21  2 40  0.0000000  0  9G29G12G26G15G05G30G25G02G21
 114407391.741 8  89148679.609 7  21770998.852                    21771007.344
 116850333.230 7  91052281.442 7  22235878.406                    22235887.262
 119206783.546 7  92888496.90044  22684297.398                    22684307.180
 123688351.370 6  96380671.135 6  23537123.453                    23537133.242
 109416707.349 8  85259867.106 7  20821283.500                    20821291.629
 115674380.654 7  90135962.69045  22012100.203                    22012109.891
 114394125.582 8  89138335.719 7  21768475.609                    21768486.836
 116019207.985 7  90404684.26945  22077698.500                    22077704.934
 131711223.208 6 102632186.64642  25063818.102                    25063828.652
 11  8 21  2 40 30.0000000  0  9G29G12G26G15G05G30G25G02G21
 114332967.263 8  89090686.557 7  21756836.305                    21756845.375
 116931942.827 7  91115873.329 7  22251408.219                    22251416.613
 119122073.498 7  92822489.11044  22668177.445                    22668187.156
 123592260.799 7  96305795.441 6  23518838.234                    23518847.938
 109469619.746 8  85301097.538 8  20831351.813                    20831360.672
 115719578.771 7  90171181.99245  22020701.266                    22020710.594
 114425221.268 8  89162566.131 7  21774393.000                    21774404.246
 116061893.576 7  90437945.75245  22085821.156                    22085827.910
 131655429.328 6 102588710.98542  25053199.633                    25053210.930
 11  8 21  2 41  0.0000000  0  9G29G12G26G15G05G30G25G02G21
 114258734.737 8  89032843.070 7  21742710.820                    21742719.430
 117013824.291 7  91179677.055 7  22266989.789                    22266997.953
 119037636.953 7  92756694.45144  22652109.523                    22652119.426
 123496201.659 7  96230944.244 6  23500558.813                    23500568.133
 109522930.778 8  85342638.610 7  20841497.500                    20841505.285
 115765245.486 8  90206766.44245  22029391.070                    22029400.750
 114456826.933 8  89187193.933 7  21780406.750                    21780418.480
 116104664.025 7  90471273.37145  22093959.961                    22093966.719
 131599636.567 5 102545236.17142  25042582.461                    25042594.371
 11  8 21  2 41 30.0000000  0  9G29G12G26G15G05G30G25G02G21
 114184696.101 8  88975150.665 7  21728620.891                    21728629.871
 117095974.420 7  91243690.126 7  22282622.367                    22282630.570
 118953477.207 7  92691115.48344  22636094.969                    22636104.023
 123400176.299 7  96156119.364 6  23482285.813                    23482295.441
 109576637.368 8  85384487.905 7  20851716.789                    20851725.355
 115811377.808 8  90242713.70745  22038169.695                    22038179.301
 114488940.233 8  89212217.291 7  21786518.250                    21786529.652
 116147519.603 7  90504667.32745  22102114.945                    22102122.055
 131543844.181 5 102501761.64142  25031966.297                    25031977.926
 11  8 21  2 42  0.0000000  0  9G29G12G26G15G05G30G25G02G21
 114110853.106 8  88917610.713 7  21714568.984                    21714577.805
 117178390.307 7  91307910.293 7  22298305.672                    22298313.852
 118869597.920 7  92625755.04744  22620133.258                    22620142.770
 123304187.680 7  96081323.132 6  23464018.992                    23464029.332
 109630737.268 8  85426643.662 7  20862011.914                    20862019.941
 115857973.149 8  90279021.75645  22047036.828                    22047046.367
 114521559.325 8  89237634.762 7  21792725.383                    21792736.535
 116190460.618 7  90538127.85545  22110286.258                    22110293.379
 131488051.352 5 102458286.94452  25021349.398                    25021360.625
 11  8 21  2 42 30.0000000  0  9G29G12G26G15G05G30G25G02G21
 114037208.545 8  88860225.383 7  21700555.156                    21700563.996
 117261068.824 7  91372335.098 7  22314038.875                    22314047.129
 118786002.841 7  92560616.06344  22604225.656                    22604234.527
 123208239.033 7  96006558.042 6  23445761.438                    23445770.711
 109685228.556 8  85469104.408 7  20872381.195                    20872389.707
 115905029.166 8  90315688.77845  22055991.000                    22056001.176
 114554682.452 8  89263444.997 7  21799028.469                    21799039.742
 116233487.154 7  90571655.03445  22118474.305                    22118481.004
 131432257.97215 102414811.65552  25010731.148                    25010743.504
 11  8 21  2 43  0.0000000  0  9G29G12G26G15G05G30G25G02G21
 113963765.217 8  88802996.857 7  21686579.281                    21686588.234
 117344007.437 7  91436962.587 7  22329821.484                    22329829.602
 118702696.192 7  92495701.82744  22588372.727                    22588382.086
 123112333.517 7  95931826.568 6  23427510.742                    23427520.699
 109740109.421 8  85511868.714 7  20882824.891                    20882833.070
 115952543.727 7  90352713.08445  22065032.984                    22065042.754
 114588308.164 8  89289646.850 7  21805427.039                    21805438.621
 116276599.930 7  90605249.41045  22126678.430                    22126684.816
 131376463.65115 102371335.69452  25000112.953                    25000126.289
 11  8 21  2 43 30.0000000  0  9G29G12G26G15G05G30G25G02G21
 113890524.642 7  88745926.310 7  21672642.102                    21672650.664
 117427202.434 7  91501789.853 7  22345652.836                    22345661.266
 118619680.854 7  92431014.60744  22572575.539                    22572584.445
 123016473.599 7  95857130.604 6  23409268.609                    23409278.809
 109795376.172 8  85554933.711 7  20893342.055                    20893349.727
 116000513.710 7  90390092.29045  22074161.469                    22074170.910
 114622433.990 8  89316238.406 7  21811921.070                    21811932.406
 116319798.722 7  90638910.81345  22134899.250                    22134905.863
 131320667.32015 102327857.97152  24989496.727                    24989508.723
 11  8 21  2 44  0.0000000  0  9G29G12G26G15G05G30G25G02G21
 113817489.106 8  88689015.534 7  21658743.813                    21658752.957
 117510650.824 7  91566814.553 7  22361532.633                    22361540.938
 118536960.586 7  92366557.29745  22556834.094                    22556843.602
 122920662.088 7  95782472.375 6  23391036.641                    23391046.500
 109851026.784 8  85598297.816 7  20903932.281                    20903939.699
 116048936.434 7  90427824.28345  22083375.984                    22083385.309
 114657057.790 8  89343217.987 7  21818509.555                    21818520.688
 116363083.629 7  90672639.32845  22143136.344                    22143142.711
 131264867.89615 102284378.12452  24978878.430                    24978889.898
 11  8 21  2 44 30.0000000  0  9G29G12G26G15G05G30G25G02G21
 113744661.557 7  88632266.822 7  21644885.117                    21644894.008
 117594350.593 7  91632035.133 7  22377460.422                    22377468.566
 118454539.488 7  92302333.09644  22541150.195                    22541159.250
 122824902.704 7  95707854.757 6  23372814.719                    23372823.672
 109907059.584 8  85641959.744 7  20914594.766                    20914602.953
 116097809.890 7  90465907.47845  22092676.117                    22092685.492
 114692178.328 8  89370584.627 7  21825193.141                    21825204.219
 116406455.419 8  90706435.52145  22151389.438                    22151396.301
 131209066.039 5 102240896.22342  24968259.133                    24968270.313
 11  8 21  2 45  0.0000000  0  9G29G12G26G15G05G30G25G02G21
 113672043.949 7  88575681.707 7  21631066.453                    21631074.660
 117678297.757 7  91697448.496 7  22393434.688                    22393443.727
 118372421.379 7  92238345.00745  22525523.305                    22525532.762
 122729198.065 7  95633279.797 6  23354602.375                    23354611.629
 109963471.803 8  85685917.319 7  20925329.141                    20925337.738
 116147131.403 7  90504339.80845  22102062.383                    22102071.473
 114727793.452 8  89398336.668 7  21831970.438                    21831981.938
 116449913.985 8  90740299.33945  22159659.398                    22159666.285
 131153260.459 5 102197411.41942  24957639.906                    24957650.559
 11  8 21  2 45 30.0000000  0  9G29G12G26G15G05G30G25G02G21
 113599638.428 8  88519261.839 7  21617288.258                    21617297.051
 117762489.095 7  91763052.111 7  22409456.148                    22409464.953
 118290609.375 7  92174595.43944  22509954.906                    22509964.461
 122633551.091 7  95558749.772 6  23336401.156                    23336410.965
 110020260.976 8  85730168.633 7  20936136.250                    20936144.125
 116196897.974 7  90543118.95345  22111532.086                    22111541.273
 114763900.843 8  89426472.283 7  21838841.297                    21838852.668
 116493459.748 7  90774231.09445  22167945.898                    22167952.543
 131097450.516 6 102153923.22442  24947019.023                    24947029.699
 11  8 21  2 46  0.0000000  0  9G29G12G26G15G05G30G25G02G21
 113527447.127 8  88463008.915 7  21603550.617                    21603559.922
 117846921.411 7  91828843.506 7  22425522.594                    22425531.070
 118209106.978 7  92111087.11545  22494445.242                    22494454.785
 122537964.648 7  95484266.918 6  23318211.406                    23318221.203
 110077424.509 8  85774711.656 7  20947013.922                    20947021.738
 116247106.823 7  90582242.73045  22121086.797                    22121095.656
 114800498.322 8  89454989.781 7  21845805.625                    21845816.887
 116537092.578 7  90808230.70145  22176248.656                    22176255.648
 131041635.752 6 102110431.21842  24936398.711                    24936408.012
 11  8 21  2 46 30.0000000  0  9G29G12G26G15G05G30G25G02G21
 113455472.934 7  88406925.155 7  21589854.344                    21589862.918
 117931592.275 7  91894820.780 7  22441635.148                    22441643.926
 118127917.996 7  92047823.01545  22478995.906                    22479004.934
 122442442.068 7  95409833.816 6  23300034.461                    23300043.711
 110134960.191 8  85819544.663 7  20957962.484                    20957970.273
 116297755.699 7  90621709.37645  22130724.453                    22130733.836
 114837584.215 8  89483887.875 7  21852862.664                    21852874.059
 116580813.008 7  90842298.56145  22184568.297                    22184575.270
 130985815.684 6 102066935.17442  24925775.953                    24925786.406
 11  8 21  2 47  0.0000000  0  9G29G12G26G15G05G30G25G02G21
 113383718.017 8  88351012.262 7  21576199.648                    21576208.172
 118016498.966 7  91960981.826 7  22457792.547                    22457801.172
 118047046.401 7  91984806.24145  22463605.992                    22463615.691
 122346986.388 7  95335452.836 6  23281869.578                    23281878.734
 110192865.625 8  85864665.771 7  20968981.625                    20968989.160
 116348841.878 7  90661516.78545  22140445.852                    22140455.152
 114875156.451 8  89513164.917 7  21860012.938                    21860024.223
 116624621.335 7  90876434.91645  22192904.867                    22192911.641
 130929989.615 6 102023434.42542  24915152.953                    24915163.105
 11  8 21  2 47 30.0000000  0  9G29G12G26G15G05G30G25G02G21
 113312184.690 8  88295272.037 7  21562587.500                    21562596.297
 118101637.962 7  92027323.887 7  22473993.602                    22474002.641
 117966495.867 7  91922039.64245  22448277.820                    22448287.266
 122251600.406 7  95261126.165 6  23263718.148                    23263727.098
 110251138.496 8  85910073.205 7  20980070.414                    20980078.496
 116400362.670 7  90701662.85045  22150250.141                    22150259.211
 114913212.977 8  89542819.332 7  21867254.516                    21867266.055
 116668517.859 7  90910639.98045  22201257.836                    22201264.949
 130874157.186 6 101979928.68142  24904527.508                    24904538.430
 11  8 21  2 48  0.0000000  0  9G29G12G26G15G05G30G25G02G21
 113240874.929 8  88239706.028 7  21549017.602                    21549026.500
 118187006.110 7  92093844.511 7  22490239.102                    22490247.688
 117886269.572 7  91859525.68545  22433011.617                    22433020.949
 122156286.902 7  95186855.970 6  23245580.289                    23245589.500
 110309776.092 8  85955764.832 7  20991228.742                    20991236.746
 116452315.271 7  90742145.38945  22160136.047                    22160145.840
 114951751.545 8  89572849.359 7  21874588.109                    21874599.250
 116712502.632 7  90944913.80445  22209628.391                    22209635.039
 130818317.788 6 101936417.59242  24893901.820                    24893912.699
 11  8 21  2 48 30.0000000  0  9G29G12G26G15G05G30G25G02G21
 113169791.490 7  88184316.374 7  21535490.969                    21535499.508
 118272600.472 7  92160541.396 7  22506527.047                    22506535.984
 117806371.581 7  91797267.56544  22417806.859                    22417816.652
 122061049.417 7  95112645.028 6  23227457.297                    23227466.434
 110368776.218 8  86001738.949 7  21002456.234                    21002464.180
 116504697.106 7  90782962.39545  22170104.438                    22170113.711
 114990770.178 8  89603253.471 7  21882013.352                    21882024.324
 116756576.137 7  90979256.78645  22218014.969                    22218022.070
 130762470.550 6 101892900.32942  24883274.648                    24883284.934
 11  8 21  2 49  0.0000000  0  9G29G12G26G15G05G30G25G02G21
 113098936.423 8  88129104.671 7  21522007.703                    21522016.578
 118358417.740 7  92227411.973 7  22522857.555                    22522866.391
 117726805.291 7  91735267.91045  22402666.297                    22402676.031
 121965891.091 7  95038495.759 6  23209348.906                    23209358.457
 110428136.757 8  86047993.923 7  21013752.180                    21013760.359
 116557505.305 7  90824111.63345  22180153.109                    22180162.289
 115030266.659 8  89634029.928 7  21889529.234                    21889540.512
 116800738.738 7  91013669.19945  22226418.891                    22226425.707
 130706615.048 6 101849376.69543  24872645.438                    24872656.484
 11  8 21  2 49 30.0000000  0  9G29G12G26G15G05G30G25G02G21
 113028311.754 8  88074072.496 7  21508568.078                    21508576.594
 118444454.843 7  92294453.855 7  22539229.398                    22539238.629
 117647574.028 7  91673529.30145  22387588.844                    22387598.727
 121870814.239 7  94964409.978 6  23191256.695                    23191265.785
 110487854.493 8  86094527.233 8  21025116.164                    21025124.594
 116610736.815 7  90865590.73745  22190282.539                    22190292.137
 115070238.486 8  89665176.793 7  21897135.500                    21897146.867
 116844990.221 7  91048150.86945  22234839.328                    22234846.410
 130650750.865 6 101805846.28843  24862014.234                    24862025.109
 11  8 21  2 50  0.0000000  0  9G29G12G26G15G05G30G25G02G21
 112957920.347 8  88019222.086 7  21495172.945                    21495181.902
 118530708.853 7  92361664.760 7  22555643.164                    22555652.777
 117568681.834 7  91612054.91545  22372576.656                    22372585.547
 121775822.245 7  94890390.294 6  23173179.961                    23173189.887
 110547927.294 8  86141337.200 7  21036547.469                    21036555.875
 116664389.193 7  90907397.78245  22200492.836                    22200501.898
 115110683.794 8  89696692.608 7  21904832.172                    21904843.543
 116889331.369 7  91082702.41345  22243277.406                    22243284.008
 130594877.058 6 101762308.39543  24851381.844                    24851391.805
 11  8 21  2 50 30.0000000  0  9G29G12G26G15G05G30G25G02G21
 112887764.648 8  87964555.353 7  21481822.578                    21481831.652
 118617176.709 7  92429042.313 7  22572097.406                    22572106.496
 117490132.291 7  91550847.51445  22357629.039                    22357638.066
 121680918.561 7  94816439.429 6  23155120.563                    23155130.098
 110608353.166 8  86188422.285 7  21048046.164                    21048054.195
 116718459.965 7  90949530.85145  22210782.359                    22210791.238
 115151600.650 8  89728575.867 7  21912618.477                    21912629.355
 116933762.585 7  91117324.13245  22251731.961                    22251739.102
 130538993.398 6 101718762.80943  24840747.563                    24840757.492
 11  8 21  2 51  0.0000000  0  9G29G12G26G15G05G30G25G02G21
 112817846.983 8  87910074.094 7  21468518.008                    21468526.871
 118703855.828 7  92496584.460 7  22588591.742                    22588600.875
 117411929.315 7  91489910.16945  22342746.742                    22342756.668
 121586105.907 7  94742559.503 6  23137077.922                    23137087.699
 110669129.685 8  86235780.611 7  21059611.852                    21059619.742
 116772946.325 7  90991987.75645  22221150.766                    22221159.230
 115192986.836 8  89760824.831 7  21920493.758                    21920505.063
 116978284.008 7  91152016.15145  22260205.227                    22260211.559
 130483099.630 6 101675209.37843  24830111.711                    24830120.867
 11  8 21  2 51 30.0000000  0  9G29G12G26G15G05G30G25G02G21
 112748169.634 8  87855780.103 7  21455258.648                    21455267.559
 118790742.615 7  92564288.428 7  22605126.297                    22605134.859
 117334076.211 7  91429245.45944  22327932.164                    22327941.668
 121491387.126 7  94668752.714 6  23119054.031                    23119063.531
 110730253.962 8  86283409.911 7  21071243.414                    21071250.980
 116827845.251 7  91034766.13345  22231597.094                    22231606.371
 115234839.928 8  89793437.625 7  21928458.188                    21928469.785
 117022895.914 7  91186778.68245  22268693.945                    22268700.543
 130427194.817 6 101631647.27943  24819472.891                    24819482.945
 11  8 21  2 52  0.0000000  0  9G29G12G26G15G05G30G25G02G21
 112678734.359 8  87801674.735 7  21442045.398                    21442053.934
 118877833.723 7  92632151.612 7  22621699.086                    22621707.781
 117256576.291 7  91368855.95145  22313184.133                    22313193.641
 121396765.300 7  94595021.475 6  23101047.469                    23101056.953
 110791723.475 8  86331308.225 7  21082940.406                    21082948.715
 116883153.697 7  91077863.64245  22242121.688                    22242131.121
 115277157.479 8  89826412.319 7  21936511.008                    21936522.859
 117067598.353 7  91221611.75845  22277200.727                    22277207.273
 130371278.483 6 101588076.22943  24808832.242                    24808842.758
 11  8 21  2 52 30.0000000  0  9G29G12G26G15G05G30G25G02G21
 112609544.024 8  87747760.239 7  21428879.141                    21428887.531
 118965126.726 7  92700172.123 7  22638310.625                    22638319.578
 117179433.426 7  91308744.67645  22298504.406                    22298513.770
 121302243.819 7  94521368.435 6  23083060.625                    23083070.684
 110853535.947 8  86379473.779 7  21094703.250                    21094710.813
 116938869.185 7  91121278.29345  22252724.211                    22252734.043
 115319937.434 8  89859747.349 7  21944651.547                    21944662.805
 117112392.043 7  91256515.94645  22285724.469                    22285730.918
 130315350.019 6 101544495.69443  24798188.953                    24798199.309
 11  8 21  2 53  0.0000000  0  9G29G12G26G15G05G30G25G02G21
 112540601.560 8  87694038.883 7  21415759.703                    21415768.563
 119052618.503 7  92768347.506 7  22654960.086                    22654968.641
 117102651.499 7  91248914.65445  22283893.305                    22283902.781
 121207825.989 7  94447796.145 6  23065093.563                    23065102.871
 110915689.393 8  86427905.026 7  21106530.344                    21106538.656
 116994989.160 7  91165008.15345  22263403.117                    22263413.273
 115363177.924 7  89893441.238 7  21952879.945                    21952891.512
 117157277.315 7  91291491.49545  22294266.195                    22294272.359
 130259409.138 6 101500905.56842  24787544.609                    24787554.336
 11  8 21  2 53 30.0000000  0  9G29G12G26G15G05G30G25G02G21
 112471908.230 8  87640511.660 7  21402687.703                    21402696.402
 119140305.033 7  92836674.648 7  22671646.211                    22671654.953
 117026233.326 7  91189368.06945  22269351.391                    22269361.000
 121113513.997 7  94374306.321 6  23047147.000                    23047155.902
 110978180.322 8  86476599.237 7  21118421.945                    21118430.402
 117051509.794 7  91209050.20045  22274159.391                    22274168.543
 115406875.526 8  89927491.314 7  21961195.516                    21961206.219
 117202253.872 7  91326538.15445  22302824.664                    22302831.004
 130203454.836 6 101457304.96042  24776896.219                    24776906.359
 11  8 21  2 54  0.0000000  0  9G29G12G26G15G05G30G25G02G21
 112403467.123 8  87587180.972 7  21389664.203                    21389672.402
 119228184.258 7  92905151.940 7  22688368.555                    22688377.508
 116950183.373 7  91130108.40945  22254879.766                    22254888.875
 121019311.548 7  94300901.848 6  23029220.641                    23029229.898
 111041007.223 8  86525555.262 7  21130377.523                    21130385.758
 117108429.227 7  91253402.99545  22284991.039                    22285000.242
 115451029.072 8  89961896.669 7  21969597.953                    21969608.504
 117247322.819 7  91361656.83145  22311401.156                    22311407.055
 130147486.876 6 101413693.73842  24766246.289                    24766256.238
 11  8 21  2 54 30.0000000  0  9G29G12G26G15G05G30G25G02G21
 112335280.257 8  87534048.381 7  21376688.219                    21376697.012
 119316252.717 7  92973776.691 7  22705127.469                    22705136.500
 116874504.694 7  91071138.07245  22240478.250                    22240487.672
 120925221.582 7  94227585.043 6  23011315.688                    23011324.703
 111104167.422 8  86574770.992 7  21142396.438                    21142404.605
 117165744.168 7  91298063.99145  22295897.734                    22295907.121
 115495635.714 8  89996655.104 7  21978086.398                    21978097.164
 117292484.371 7  91396847.64245  22319994.461                    22320001.117
 130091504.717 6 101370071.44742  24755592.852                    24755602.832
 11  8 21  2 55  0.0000000  0  9G29G12G26G15G05G30G25G02G21
 112267350.322 8  87481116.003 7  21363761.813                    21363770.176
 119404507.397 7  93042546.547 6  22721921.922                    22721931.023
 116799201.088 7  91012459.97645  22226148.313                    22226158.141
 120831247.278 7  94154358.338 6  22993433.180                    22993442.160
 111167658.381 8  86624244.468 7  21154478.250                    21154486.430
 117223451.881 7  91343031.02545  22306879.320                    22306887.910
 115540693.279 8  90031764.903 7  21986660.359                    21986670.918
 117337738.700 7  91432110.76445  22328606.500                    22328613.230
 130035507.835 6 101326437.69443  24744936.852                    24744947.027
 11  8 21  2 55 30.0000000  0  9G29G12G26G15G05G30G25G02G21
 112199679.651 8  87428385.648 7  21350884.172                    21350892.668
 119492945.176 7  93111459.080 7  22738751.430                    22738760.293
 116724275.686 7  90954076.59645  22211890.750                    22211899.992
 120737391.684 7  94081224.144 6  22975573.148                    22975582.105
 111231477.351 8  86673973.530 7  21166622.953                    21166631.160
 117281549.152 7  91388301.61545  22317934.570                    22317943.273
 115586199.135 8  90067224.008 7  21995319.844                    21995330.461
 117383085.982 7  91467446.29445  22337235.438                    22337242.301
 129979495.538 6 101282791.88042  24734278.820                    24734287.625
 11  8 21  2 56  0.0000000  0 10G29G18G12G26G15G05G30G25G02G21
 112132269.853 8  87375858.558 7  21338056.813                    21338065.316
 129722721.90215 101082697.89952  24685418.836                    24685427.891
 119581562.838 7  93180511.777 6  22755614.547                    22755623.180
 116649732.151 7  90895990.77745  22197705.602                    22197714.867
 120643657.595 7  94008184.640 6  22957735.906                    22957744.836
 111295621.752 8  86723956.177 7  21178828.977                    21178836.938
 117340033.250 7  91433873.63245  22329064.156                    22329072.707
 115632150.860 8  90103030.553 7  22004064.320                    22004075.398
 117428526.382 7  91502854.40145  22345883.469                    22345890.184
 129923467.274 6 101239133.62142  24723615.781                    24723625.969
 11  8 21  2 56 30.0000000  0 10G29G18G12G26G15G05G30G25G02G21
 112065123.950 8  87323537.119 7  21325278.922                    21325288.055
 129633252.124 6 101012981.33543  24668393.586                    24668403.004
 119670357.475 7  93249702.399 6  22772511.500                    22772520.133
 116575574.363 7  90838205.52944  22183593.953                    22183602.719
 120550048.354 7  93935242.421 6  22939922.922                    22939931.828
 111360089.847 8  86774191.050 7  21191096.766                    21191104.664
 117398901.370 7  91479744.88245  22340266.070                    22340274.633
 115678546.348 8  90139182.879 7  22012892.953                    22012904.078
 117474060.789 7  91538335.74945  22354547.914                    22354554.496
 129867422.713 6 101195462.69142  24712950.875                    24712960.434
 11  8 21  2 57  0.0000000  0 10G29G18G12G26G15G05G30G25G02G21
 111998244.212 8  87271423.070 7  21312552.070                    21312560.758
 129543947.008 6 100943393.08243  24651398.602                    24651409.629
 119759325.851 7  93319028.381 6  22789441.688                    22789450.055
 116501805.470 7  90780723.32545  22169555.961                    22169565.309
 120456566.894 7  93862399.765 6  22922133.891                    22922142.910
 111424878.709 8  86824675.868 7  21203426.047                    21203433.910
 117458150.474 7  91525913.00345  22351540.336                    22351549.438
 115725382.983 8  90175678.958 7  22021805.406                    22021816.570
 117519689.278 7  91573890.41345  22363230.516                    22363237.375
 129811361.363 6 101151778.64342  24702282.031                    24702292.563
 11  8 21  2 57 30.0000000  0 10G29G18G12G26G15G05G30G25G02G21
 111931633.006 8  87219518.252 7  21299876.555                    21299885.109
 129454807.701 6 100873934.04543  24634436.961                    24634447.105
 119848465.003 7  93388487.433 7  22806404.039                    22806413.363
 116428429.144 7  90723547.00944  22155592.359                    22155601.848
 120363216.380 7  93789659.155 7  22904369.656                    22904379.598
 111489985.709 8  86875408.580 7  21215815.359                    21215823.285
 117517777.648 7  91572375.71845  22362887.305                    22362896.293
 115772658.451 8  90212516.989 7  22030801.648                    22030812.852
 117565412.326 7  91609518.74745  22371931.305                    22371938.578
 129755282.494 6 101108080.89842  24691610.695                    24691620.406
 11  8 21  2 58  0.0000000  0 10G29G18G12G26G15G05G30G25G02G21
 111865292.871 8  87167824.669 7  21287252.156                    21287260.820
 129365835.771 6 100804605.43943  24617505.883                    24617516.309
 119937772.179 7  93458077.423 6  22823398.906                    22823407.563
 116355449.144 7  90666679.51545  22141705.781                    22141714.953
 120270000.082 7  93717023.139 7  22886631.328                    22886640.754
 111555408.709 8  86926387.542 7  21228265.133                    21228272.996
 117577780.071 7  91619130.84145  22374304.844                    22374314.375
 115820370.317 8  90249695.069 7  22039880.836                    22039892.410
 117611230.309 7  91645221.07645  22380650.469                    22380657.520
 129699185.714 6 101064369.29042  24680936.281                    24680945.695
 11  8 21  2 58 30.0000000  0 10G29G18G12G26G15G05G30G25G02G21
 111799226.128 8  87116344.113 7  21274680.438                    21274689.008
 129277032.228 6 100735408.02643  24600606.773                    24600617.250
 120027243.554 7  93527795.361 7  22840425.055                    22840433.715
 116282868.515 7  90610123.21845  22127893.328                    22127902.762
 120176921.008 7  93644494.036 6  22868918.672                    22868927.813
 111621144.952 8  86977610.587 7  21240774.031                    21240782.246
 117638154.583 7  91666175.90044  22385794.078                    22385803.703
 115868515.968 8  90287211.162 7  22049042.289                    22049053.797
 117657143.368 7  91680997.48845  22389387.539                    22389393.910
 129643070.318 6 101020643.13742  24670257.719                    24670267.129
 11  8 21  2 59  0.0000000  0 10G29G18G12G26G15G05G30G25G02G21
 111733435.123 8  87065078.420 7  21262160.852                    21262169.543
 129188398.416 6 100666342.90443  24583740.328                    24583750.492
 120116876.369 7  93597639.094 7  22857481.406                    22857490.453
 116210691.221 7  90553881.20945  22114159.148                    22114168.316
 120083982.156 7  93572074.204 7  22851233.398                    22851242.180
 111687192.195 8  87029075.986 7  21253342.758                    21253350.816
 117698898.386 7  91713508.70544  22397352.953                    22397362.691
 115917093.104 8  90325063.469 7  22058286.641                    22058298.051
 117703151.971 7  91716848.34945  22398142.406                    22398149.125
 129586936.064 5 100976902.26742  24659575.914                    24659585.438
 11  8 21  2 59 30.0000000  0 10G29G18G12G26G15G05G30G25G02G21
 111667922.550 8  87014029.690 7  21249694.406                    21249703.016
 129099935.910 6 100597411.24143  24566906.164                    24566916.488
 120206667.937 7  93667606.520 7  22874568.125                    22874577.473
 116138920.689 7  90497956.15345  22100501.016                    22100510.484
 119991186.608 7  93499766.035 7  22833574.508                    22833583.797
 111753548.269 8  87080782.018 7  21265969.695                    21265977.836
 117760008.749 7  91761127.16244  22408982.109                    22408991.703
 115966099.424 8  90363250.205 7  22067612.453                    22067623.664
 117749256.952 7  91752774.31845  22406916.102                    22406922.363
 129530782.484 6 100933146.31342  24648889.766                    24648899.422
 11  8 21  3  0  0.0000000  0 10G29G18G12G26G15G05G30G25G02G21
 111602690.555 8  86963199.585 7  21237280.875                    21237289.410
 129011645.974 6 100528614.05743  24550105.438                    24550115.293
 120296615.299 7  93737695.350 7  22891684.773                    22891693.660
 116067560.402 7  90442350.76645  22086922.070                    22086930.848
 119898537.885 7  93427572.286 7  22815944.031                    22815953.559
 111820210.193 8  87132726.373 7  21278655.102                    21278662.969
 117821482.513 7  91809028.78345  22420680.258                    22420689.859
 116015532.245 8  90401769.275 7  22077019.039                    22077030.145
 117795458.234 7  91788775.31645  22415708.070                    22415714.383
 129474608.939 6 100889374.88142  24638200.922                    24638209.551
 11  8 21  3  0 30.0000000  0 10G29G18G12G26G15G05G30G25G02G21
 111537741.264 8  86912589.775 7  21224921.383                    21224930.164
 128923529.441 6 100459951.96243  24533336.938                    24533347.445
 120386714.706 7  93807902.666 7  22908830.008                    22908838.516
 115996613.543 7  90387067.53745  22073421.227                    22073430.172
 119806038.744 7  93355495.080 6  22798342.039                    22798351.074
 111887175.705 8  87184907.289 7  21291398.406                    21291405.859
 117883316.502 7  91857211.09945  22432446.672                    22432456.266
 116065388.939 8  90440618.642 7  22086506.719                    22086517.641
 117841756.173 7  91824851.64745  22424518.125                    22424524.410
 129418414.907 6 100845587.38842  24627507.086                    24627515.996
 11  8 21  3  1  0.0000000  0 10G29G18G12G26G15G05G30G25G02G21
 111473076.794 8  86862201.900 7  21212616.320                    21212624.762
 128835587.642 6 100391425.96643  24516602.820                    24516612.422
 120476963.114 7  93878226.086 6  22926004.078                    22926012.227
 115926083.389 7  90332109.00845  22059999.563                    22060008.438
 119713691.972 7  93283536.624 7  22780768.953                    22780778.348
 111954442.002 8  87237322.593 7  21304198.555                    21304206.875
 117945507.453 7  91905671.56245  22444281.555                    22444291.000
 116115666.610 8  90479796.036 7  22096074.063                    22096085.574
 117888151.127 7  91861003.58045  22433346.742                    22433352.914
 129362199.522 6 100801783.35642  24616808.820                    24616818.645
 11  8 21  3  1 30.0000000  0 10G29G18G12G26G15G05G30G25G02G21
 111408700.543 8  86812038.614 7  21200365.508                    21200374.086
 128747822.094 6 100323037.38843  24499900.523                    24499911.133
 120567358.211 7  93948663.799 7  22943205.469                    22943213.867
 115855974.130 7  90277478.45245  22046658.031                    22046667.441
 119621501.464 7  93211699.910 7  22763225.719                    22763235.066
 112022007.122 8  87289970.738 7  21317055.867                    21317064.184
 118008053.116 7  91954408.45245  22456183.680                    22456193.113
 116166363.578 8  90519300.155 7  22105721.602                    22105732.738
 117934643.997 7  91897231.80945  22442194.344                    22442200.629
 129305963.067 6 100757962.82842  24606107.414                    24606117.473
 11  8 21  3  2  0.0000000  0 10G29G18G12G26G15G05G30G25G02G21
 111344614.383 8  86762101.372 7  21188170.398                    21188179.039
 128660233.895 6 100254786.96742  24483233.203                    24483243.395
 120657896.401 7  94019213.015 7  22960434.063                    22960443.672
 115786289.013 7  90223178.40445  22033397.563                    22033407.000
 119529470.143 7  93139987.237 6  22745713.047                    22745721.465
 112089868.396 8  87342849.671 7  21329969.031                    21329977.246
 118070950.200 7  92003419.14845  22468152.594                    22468162.012
 116217476.884 8  90559128.716 7  22115447.883                    22115459.055
 117981234.908 7  91933536.40245  22451059.867                    22451066.230
 129249704.798 6 100714125.27143  24595401.398                    24595411.547
 11  8 21  3  2 30.0000000  0 10G29G18G12G26G15G05G30G25G02G21
 111280820.878 8  86712392.177 7  21176031.281                    21176039.383
 128572824.562 6 100186675.89142  24466599.469                    24466609.055
 120748574.652 7  94089871.369 6  22977689.391                    22977698.473
 115717031.263 7  90169211.36445  22020218.242                    22020227.176
 119437600.894 7  93068400.863 6  22728230.297                    22728239.457
 112158023.539 8  87395957.583 7  21342938.773                    21342946.586
 118134195.712 7  92052701.34945  22480188.297                    22480197.289
 116269004.022 8  90599279.712 7  22125253.438                    22125264.633
 118027924.303 7  91969917.76745  22459944.164                    22459950.922
 129193424.232 6 100670270.35643  24584692.094                    24584701.570
 11  8 21  3  3  0.0000000  0 10G29G18G12G26G15G05G30G25G02G21
 111217321.770 8  86662912.371 7  21163947.641                    21163955.824
 128485594.899 6 100118704.84042  24450000.133                    24450009.828
 120839389.704 7  94160636.318 7  22994970.742                    22994979.980
 115648204.118 7  90115579.85845  22007120.633                    22007129.820
 119345896.516 7  92996942.966 6  22710779.836                    22710788.996
 112226469.368 8  87449292.006 7  21355963.523                    21355971.523
 118197786.091 7  92102252.29945  22492288.656                    22492298.133
 116320941.979 8  90639750.849 7  22135136.625                    22135147.699
 118074712.029 7  92006375.74245  22468848.063                    22468854.262
 129137120.647 6 100626397.49843  24573977.656                    24573987.324
 11  8 21  3  3 30.0000000  0 10G29G18G12G26G15G05G30G25G02G21
 111154119.560 8  86613663.929 7  21151920.773                    21151928.715
 128398546.211 6 100050874.78242  24433434.953                    24433445.113
 120930338.346 7  94231505.367 6  23012278.242                    23012286.887
 115579811.047 7  90062286.58545  21994105.938                    21994114.871
 119254360.198 7  92925616.005 6  22693360.328                    22693369.949
 112295203.765 8  87502851.268 7  21369043.523                    21369051.367
 118261718.486 7  92152069.75445  22504454.430                    22504463.895
 116373288.197 8  90680540.106 7  22145097.820                    22145109.551
 118121598.615 7  92042910.75645  22477770.023                    22477776.441
 129080793.512 6 100582506.29843  24563258.563                    24563268.809
 11  8 21  3  4  0.0000000  0 10G29G18G12G26G15G05G30G25G02G21
 111091216.708 8  86564648.744 7  21139950.453                    21139958.813
 128311679.701 6  99983186.75043  24416904.555                    24416915.242
 121021417.798 7  94302476.352 6  23029609.945                    23029619.414
 115511855.324 7  90009334.09245  21981174.563                    21981183.320
 119162995.126 7  92854422.492 6  22675974.320                    22675983.672
 112364224.123 8  87556633.368 7  21382177.633                    21382185.438
 118325989.925 7  92202151.37845  22516685.000                    22516694.027
 116426040.177 8  90721645.537 7  22155136.133                    22155147.832
 118168584.769 7  92079523.34945  22486711.539                    22486717.770
 129024442.406 6 100538596.41443  24552536.695                    24552545.102
 11  8 21  3  4 30.0000000  0 10G29G18G12G26G15G05G30G25G02G21
 111028615.883 8  86515868.915 7  21128037.906                    21128046.465
 128224996.995 6  99915641.86643  24400409.227                    24400420.227
 121112625.046 7  94373546.930 6  23046966.094                    23046975.164
 115444340.414 7  89956725.09945  21968326.703                    21968335.445
 119071804.560 7  92783364.958 7  22658621.313                    22658630.777
 112433528.305 8  87610636.624 7  21395365.805                    21395373.789
 118390597.334 7  92252494.82445  22528979.680                    22528988.781
 116479195.337 8  90763065.136 7  22165250.883                    22165262.707
 118215670.707 7  92116213.70944  22495671.375                    22495678.090
 128968066.970 6 100494667.59743  24541808.375                    24541817.238
 11  8 21  3  5  0.0000000  0 10G29G18G12G26G15G05G30G25G02G21
 110966319.913 8  86467326.634 7  21116183.258                    21116191.973
 128138499.037 6  99848240.96043  24383949.727                    24383959.188
 121203957.379 7  94444714.936 6  23064346.141                    23064355.352
 115377270.416 8  89904462.79645  21955564.031                    21955572.637
 118980792.120 7  92712446.223 7  22641302.742                    22641311.629
 112503114.053 8  87664859.307 7  21408606.750                    21408615.484
 118455538.201 7  92303098.09245  22541337.492                    22541346.582
 116532751.460 8  90804797.178 7  22175442.680                    22175453.844
 118262857.285 7  92152982.48645  22504650.656                    22504657.285
 128911667.182 6 100450719.77443  24531074.961                    24531084.371
 11  8 21  3  5 30.0000000  0 10G29G18G12G26G15G05G30G25G02G21
 110904330.640 7  86419023.341 7  21104387.352                    21104395.352
 128052186.831 6  99780984.78243  24367525.094                    24367533.930
 121295411.387 7  94515977.745 6  23081749.211                    23081758.133
 115310647.939 7  89852549.19845  21942885.672                    21942894.742
 118889960.433 7  92641668.327 7  22624017.750                    22624026.992
 112572978.416 8  87719299.089 7  21421902.141                    21421909.984
 118520808.993 7  92353958.44245  22553757.711                    22553767.199
 116586705.538 8  90846839.316 7  22185709.742                    22185721.113
 118310144.717 7  92189829.83745  22513649.297                    22513656.035
 128855242.031 6 100406752.22843  24520337.078                    24520346.918
 11  8 21  3  6  0.0000000  0 10G29G18G12G26G15G05G30G25G02G21
 110842650.389 8  86370960.834 7  21092649.648                    21092658.348
 127966061.603 6  99713874.29343  24351134.945                    24351145.324
 121386983.870 7  94587332.917 6  23099175.266                    23099184.207
 115244476.461 7  89800987.02945  21930294.086                    21930302.883
 118799312.714 7  92571033.786 7  22606768.305                    22606776.977
 112643118.875 8  87773954.020 7  21435249.344                    21435257.703
 118586406.535 7  92405073.40145  22566240.680                    22566250.426
 116641054.731 8  90889189.340 7  22196051.984                    22196062.785
 118357533.503 7  92226756.17045  22522667.094                    22522673.684
 128798790.995 6 100362764.50243  24509595.492                    24509604.805
 11  8 21  3  6 30.0000000  0 10G29G18G12G26G15G05G30G25G02G21
 110781281.568 8  86323141.004 7  21080971.555                    21080979.836
 127880124.725 6  99646910.60043  24334782.570                    24334792.242
 121478672.021 7  94658778.219 6  23116622.813                    23116631.445
 115178759.403 7  89749778.96445  21917788.219                    21917797.316
 118708851.667 7  92500544.705 7  22589553.820                    22589563.086
 112713533.265 8  87828822.390 7  21448648.523                    21448656.676
 118652327.788 7  92456440.60545  22578785.211                    22578794.750
 116695796.462 8  90931845.236 7  22206469.148                    22206479.961
 118405023.616 7  92263761.44745  22531704.578                    22531710.797
 128742313.938 6 100318756.51843  24498847.602                    24498857.082
 11  8 21  3  7  0.0000000  0 10G29G18G12G26G15G05G30G25G02G21
 110720226.381 8  86275565.568 7  21069353.336                    21069361.625
 127794377.366 6  99580094.55042  24318464.547                    24318475.363
 121570472.611 7  94730311.122 6  23134091.484                    23134100.953
 115113499.918 7  89698927.44845  21905369.578                    21905379.070
 118618580.822 7  92430203.845 7  22572375.664                    22572385.180
 112784219.164 8  87883902.333 7  21462099.617                    21462108.086
 118718569.726 7  92508057.69845  22591390.781                    22591400.203
 116750928.066 8  90974804.935 7  22216960.203                    22216971.227
 118452615.862 7  92300846.31745  22540760.586                    22540767.504
 128685810.167 6 100274727.72843  24488095.492                    24488104.973
 11  8 21  3  7 30.0000000  0 10G29G18G12G26G15G05G30G25G02G21
 110659487.911 8  86228236.919 7  21057794.781                    21057803.309
 127708820.636 6  99513427.09143  24302183.906                    24302194.563
 121662382.810 7  94801929.428 6  23151582.016                    23151590.547
 115048701.749 7  89648435.39545  21893039.055                    21893048.199
 118528503.279 7  92360013.608 7  22555234.539                    22555243.664
 112855174.035 8  87939191.841 7  21475602.273                    21475609.844
 118785129.389 7  92559922.35745  22604056.141                    22604065.520
 116806447.018 7  91018066.462 7  22227525.266                    22227536.332
 118500310.755 7  92338011.14945  22549836.914                    22549842.938
 128629279.573 6 100230678.06843  24477338.602                    24477347.641
 11  8 21  3  8  0.0000000  0 10G29G18G12G26G15G05G30G25G02G21
 110599067.865 8  86181156.397 7  21046297.281                    21046306.219
 127623455.711 6  99446909.07543  24285939.898                    24285949.355
 121754399.354 7  94873630.606 6  23169091.734                    23169100.797
 114984367.772 7  89598305.06945  21880796.867                    21880805.613
 118438622.544 7  92289976.729 7  22538130.656                    22538140.121
 112926395.393 8  87994689.012 7  21489154.961                    21489162.969
 118852003.657 7  92612032.18644  22616781.961                    22616791.195
 116862350.446 7  91061627.573 7  22238163.344                    22238174.727
 118548108.520 7  92375256.15645  22558932.445                    22558938.605
 128572721.340 6 100186606.80243  24466575.805                    24466584.805
 11  8 21  3  8 30.0000000  0 10G29G18G12G26G15G05G30G25G02G21
 110538968.699 8  86134325.907 7  21034861.211                    21034869.477
 127538283.337 6  99380541.07443  24269732.367                    24269741.906
 121846519.094 7  94945412.196 6  23186622.156                    23186630.566
 114920501.327 7  89548539.04345  21868643.258                    21868652.344
 118348941.169 7  92220095.182 7  22521065.492                    22521073.883
 112997880.661 8  88050391.829 7  21502758.438                    21502766.035
 118919189.082 7  92664384.46044  22629567.297                    22629576.039
 116918635.414 7  91105486.005 7  22248873.695                    22248885.637
 118596009.503 7  92412581.59045  22568047.641                    22568053.965
 128516135.076 6 100142513.73543  24455807.117                    24455816.645
 11  8 21  3  9  0.0000000  0 10G29G18G12G26G15G05G30G25G02G21
 110479192.394 8  86087747.010 7  21023485.875                    21023494.527
 127453304.910 6  99314324.21743  24253561.148                    24253570.484
 121938739.192 7  95017271.989 6  23204170.055                    23204179.559
 114857105.387 7  89499139.64545  21856579.367                    21856588.313
 118259462.080 7  92150371.260 7  22504037.445                    22504046.547
 113069626.893 8  88106297.999 7  21516411.063                    21516419.305
 118986682.523 7  92716976.74744  22642410.172                    22642419.418
 116975299.099 7  91149639.515 7  22259656.477                    22259668.480
 118644013.853 7  92449987.55545  22577182.711                    22577188.953
 128459520.234 6 100098398.34543  24445033.570                    24445043.090
 11  8 21  3  9 30.0000000  0 10G29G18G12G26G15G05G30G25G02G21
 110419741.891 8  86041421.968 7  21012172.617                    21012180.980
 127368521.666 6  99248259.40343  24237427.266                    24237436.770
 122031056.521 7  95089207.531 6  23221738.438                    23221746.777
 114794183.581 7  89450109.68745  21844605.773                    21844614.707
 118170188.915 7  92080807.796 7  22487049.367                    22487058.941
 113141632.367 8  88162406.167 7  21530113.016                    21530121.590
 119054481.069 7  92769806.76544  22655312.414                    22655321.992
 117032339.052 7  91194086.220 7  22270510.906                    22270522.090
 118692122.405 7  92487474.73145  22586337.563                    22586343.605
 128402876.707 6 100054260.64743  24434254.742                    24434264.031
 11  8 21  3 10  0.0000000  0 10G29G18G12G26G15G05G30G25G02G21
 110360619.727 8  85995352.781 7  21000922.258                    21000930.461
 127283934.747 6  99182347.60543  24221331.188                    24221341.254
 122123468.260 7  95161216.661 6  23239323.719                    23239332.313
 114731739.282 7  89401451.82445  21832722.891                    21832731.980
 118081124.693 7  92011407.149 7  22470101.039                    22470109.930
 113213894.820 8  88218714.584 7  21543864.195                    21543872.660
 119122581.858 7  92822872.31145  22668271.688                    22668280.898
 117089752.611 8  91238824.051 7  22281436.469                    22281447.824
 118740335.878 7  92525043.63645  22595511.789                    22595518.621
 128346203.982 6 100010100.15043  24423471.063                    24423478.887
 11  8 21  3 10 30.0000000  0 10G29G18G12G26G15G05G30G25G02G21
 110301828.348 8  85949541.339 7  20989734.953                    20989742.824
 127199545.370 6  99116589.74943  24205272.133                    24205282.395
 122215971.253 7  95233296.870 6  23256926.523                    23256935.461
 114669775.817 7  89353168.62445  21820931.828                    21820940.508
 117992272.840 7  91942171.990 7  22453192.875                    22453201.887
 113286411.632 8  88275221.211 7  21557663.727                    21557672.180
 119190981.662 7  92876170.84145  22681287.602                    22681296.938
 117147537.069 7  91283850.890 7  22292432.867                    22292443.883
 118788654.629 7  92562694.58945  22604706.734                    22604713.320
 128289501.683 6  99965916.61343  24412680.125                    24412689.063
 11  8 21  3 11  0.0000000  0 10G29G18G12G26G15G05G30G25G02G21
 110243369.908 8  85903989.333 7  20978610.070                    20978618.586
 127115354.652 6  99050986.69643  24189251.023                    24189261.500
 122308562.656 7  95305445.982 6  23274545.992                    23274555.195
 114608296.340 7  89305262.56945  21809232.656                    21809241.215
 117903636.286 7  91873104.579 7  22436326.016                    22436334.773
 113359180.026 8  88331923.868 7  21571510.867                    21571519.543
 119259677.224 7  92929699.83445  22694359.523                    22694369.883
 117205689.465 7  91329164.434 7  22303498.320                    22303509.973
 118837079.028 7  92600427.84945  22613921.102                    22613928.676
 128232769.396 6  99921709.72043  24401883.938                    24401893.152
 11  8 21  3 11 30.0000000  0 10G29G18G12G26G15G05G30G25G02G21
 110185246.477 8  85858698.368 7  20967549.813                    20967558.617
 127031363.574 6  98985539.23543  24173267.109                    24173278.000
 122401239.262 7  95377661.495 7  23292182.188                    23292190.633
 114547303.790 7  89257735.95145  21797626.031                    21797635.109
 117815217.856 7  91804207.145 6  22419500.703                    22419509.426
 113432197.540 8  88388820.636 7  21585406.039                    21585413.770
 119328665.350 7  92983456.80645  22707487.711                    22707497.383
 117264206.944 7  91374762.436 7  22314634.219                    22314646.152
 118885609.264 7  92638243.60044  22623156.648                    22623163.129
 128176006.701 6  99877479.11143  24391082.422                    24391091.672
 11  8 21  3 12  0.0000000  0 10G29G18G12G26G15G05G30G25G02G21
 110127461.138 8  85813670.856 7  20956553.711                    20956562.402
 126947573.657 6  98920248.50242  24157321.500                    24157332.824
 122493998.797 7  95449941.617 7  23309833.625                    23309841.867
 114486801.638 7  89210591.44645  21786112.750                    21786121.672
 117727021.341 7  91735482.629 6  22402716.867                    22402725.695
 113505462.492 8  88445910.210 7  21599347.906                    21599355.613
 119397943.382 7  93037439.67145  22720671.383                    22720680.418
 117323087.109 7  91420643.069 7  22325838.523                    22325850.070
 118934246.380 7  92676142.62444  22632411.672                    22632418.293
 128119213.324 6  99833224.60343  24380275.547                    24380283.965
 11  8 21  3 12 30.0000000  0 10G29G18G12G26G15G05G30G25G02G21
 110070015.317 7  85768907.902 7  20945621.914                    20945630.352
 126863985.211 6  98855114.79743  24141416.008                    24141426.547
 122586837.301 7  95522283.290 6  23327499.633                    23327509.324
 114426792.744 7  89163831.31045  21774693.344                    21774702.539
 117639048.891 7  91666932.703 7  22385976.484                    22385985.219
 113578971.538 8  88503189.995 7  21613336.414                    21613343.617
 119467507.432 7  93091645.40745  22733908.734                    22733917.762
 117382326.505 7  91466803.618 7  22337111.180                    22337123.023
 118982990.198 7  92714124.81044  22641687.234                    22641693.520
 128062388.464 6  99788945.56244  24369461.883                    24369470.813
 11  8 21  3 13  0.0000000  0 10G29G18G12G26G15G05G30G25G02G21
 110012911.742 8  85724411.633 7  20934755.547                    20934763.852
 126780599.568 6  98790139.02743  24125548.258                    24125558.215
 122679751.725 7  95594684.115 6  23345181.055                    23345189.820
 114367280.223 7  89117457.94845  21763368.523                    21763377.406
 117551304.109 7  91598560.172 7  22369279.156                    22369288.148
 113652722.468 8  88560658.253 7  21627370.109                    21627377.965
 119537354.486 7  93146071.65044  22747199.867                    22747208.816
 117441922.462 7  91513241.996 7  22348452.547                    22348463.535
 119031841.300 7  92752190.58944  22650983.453                    22650989.836
 128005531.968 6  99744641.86443  24358642.500                    24358651.301
 11  8 21  3 13 30.0000000  0 10G29G18G12G26G15G05G30G25G02G21
 109956152.312 8  85680183.527 7  20923954.594                    20923962.496
 126697417.481 6  98725321.89143  24109720.070                    24109729.266
 122772738.899 7  95667141.611 6  23362875.563                    23362884.844
 114308267.031 7  89071473.68045  21752138.727                    21752147.559
 117463789.991 7  91530367.402 7  22352626.273                    22352634.617
 113726712.684 8  88618312.966 7  21641450.219                    21641458.016
 119607481.197 7  93200715.82145  22760544.883                    22760553.477
 117501871.858 7  91559955.785 7  22359860.023                    22359871.047
 119080800.023 7  92790340.22944  22660299.984                    22660306.766
 127948643.216 6  99700313.02643  24347816.633                    24347825.566
 11  8 21  3 14  0.0000000  0 10G29G18G12G26G15G05G30G25G02G21
 109899739.755 8  85636225.696 7  20913219.438                    20913228.039
 126614440.155 6  98660664.36343  24093929.789                    24093940.301
 122865796.213 7  95739653.784 6  23380583.813                    23380593.285
 114249756.497 7  89025881.09345  21741004.594                    21741013.297
 117376509.543 7  91462356.703 7  22336017.289                    22336025.789
 113800939.823 8  88676152.299 7  21655575.563                    21655583.535
 119677884.722 7  93255575.69444  22773942.117                    22773951.063
 117562172.237 7  91606943.057 7  22371334.711                    22371345.926
 119129867.168 7  92828574.35544  22669636.867                    22669643.813
 127891721.615 6  99655958.58843  24336984.867                    24336993.711
 11  8 21  3 14 30.0000000  0 10G29G18G12G26G15G05G30G25G02G21
 109843676.514 8  85592540.058 7  20902550.875                    20902559.352
 126531668.929 6  98596167.44043  24078178.383                    24078188.172
 122958920.831 7  95812218.401 6  23398304.938                    23398314.484
 114191751.789 7  88980682.65145  21729966.383                    21729975.695
 117289466.089 7  91394530.683 7  22319453.219                    22319461.809
 113875401.652 8  88734174.523 7  21669744.695                    21669753.375
 119748561.933 7  93310648.83044  22787391.484                    22787401.664
 117622820.789 7  91654201.644 7  22382876.102                    22382886.934
 119179042.925 7  92866893.09144  22678995.648                    22679001.805
 127834767.471 6  99611578.79243  24326146.984                    24326155.715
 11  8 21  3 15  0.0000000  0 10G29G18G12G26G15G05G30G25G02G21
 109787965.446 8  85549128.857 7  20891949.805                    20891958.121
 126449104.942 6  98531831.99043  24062466.594                    24062476.820
 123052109.750 6  95884833.111 6  23416038.000                    23416047.785
 114134256.154 7  88935880.88745  21719025.148                    21719034.359
 117202663.277 7  91326892.169 7  22302935.266                    22302943.836
 113950095.974 8  88792377.902 7  21683958.688                    21683966.988
 119819509.717 7  93365932.79645  22800892.141                    22800902.137
 117683814.783 7  91701729.414 7  22394483.055                    22394494.402
 119228327.903 7  92905296.95644  22688373.813                    22688380.457
 127777780.723 6  99567173.56543  24315303.063                    24315311.691
 11  8 21  3 15 30.0000000  0 10G29G18G12G26G15G05G30G25G02G21
 109732608.496 7  85505993.585 7  20881415.258                    20881423.961
 126366748.885 6  98467658.50043  24046795.469                    24046804.523
 123145360.312 6  95957495.842 6  23433783.492                    23433792.586
 114077272.468 7  88891478.04845  21708181.445                    21708190.738
 117116103.658 7  91259443.168 7  22286462.930                    22286472.285
 114025020.109 8  88850760.346 7  21698216.180                    21698224.414
 119890724.840 7  93421425.06745  22814444.375                    22814454.332
 117745151.122 7  91749523.944 7  22406154.227                    22406166.227
 119277722.642 7  92943786.34445  22697773.664                    22697779.793
 127720760.269 6  99522742.06243  24304452.195                    24304460.602
 11  8 21  3 16  0.0000000  0 10G29G18G12G26G15G05G30G25G02G21
 109677607.233 8  85463135.466 7  20870949.016                    20870957.781
 126284601.602 6  98403647.74743  24031162.836                    24031172.191
 123238668.829 6  96030203.739 6  23451539.367                    23451547.637
 114020803.474 7  88847476.27845  21697436.055                    21697444.707
 117029790.156 7  91192185.927 7  22270038.234                    22270047.113
 114100171.555 8  88909319.926 7  21712517.313                    21712524.945
 119962203.797 7  93477122.92644  22828045.766                    22828056.328
 117806826.717 7  91797582.844 7  22417891.375                    22417902.668
 119327227.376 7  92982361.44844  22707193.586                    22707200.348
 127663705.544 6  99478283.93243  24293594.555                    24293603.430
 11  8 21  3 16 30.0000000  0 10G29G18G12G26G15G05G30G25G02G21
 109622964.752 8  85420556.925 7  20860551.063                    20860559.566
 126202664.118 6  98339800.42943  24015570.852                    24015579.840
 123332032.548 6  96102954.680 6  23469305.516                    23469314.734
 113964852.835 7  88803878.40645  21686788.914                    21686797.969
 116943726.121 7  91125123.080 7  22253660.961                    22253669.598
 114175548.167 8  88968054.954 7  21726860.313                    21726868.508
 120033943.867 7  93533024.27244  22841697.898                    22841707.820
 117868839.102 7  91845904.166 7  22429691.656                    22429702.902
 119376843.033 7  93021023.00245  22716635.141                    22716641.996
 127606616.510 6  99433799.03243  24282731.344                    24282740.121
 11  8 21  3 17  0.0000000  0 10G29G18G12G26G15G05G30G25G02G21
 109568683.018 8  85378259.476 7  20850221.461                    20850229.922
 126120937.831 6  98276117.73043  24000018.602                    24000028.625
 123425448.484 6  96175746.301 6  23487081.789                    23487091.035
 113909423.140 7  88760686.46745  21676240.570                    21676249.984
 116857914.452 7  91058256.890 7  22237331.727                    22237340.539
 114251147.203 8  89026963.299 7  21741246.313                    21741254.441
 120105941.527 7  93589126.32444  22855398.836                    22855407.969
 117931185.043 7  91894485.402 7  22441555.930                    22441567.523
 119426569.576 7  93059770.94344  22726098.063                    22726104.813
 127549492.786 6  99389287.12143  24271860.320                    24271869.793
